[[{"header":{"parameterUnit":"m.s-1","parameterCategory":1,"la1":30.6,"la2":29.2853,"lo1":-89.7004,"lo2":-87.6739,"dy":0.0162,"dx":0.0183,"nx":112,"ny":82,"refTime":"2023-10-06T06:00:00:Z","depth":0,"parameterNumber":2,"parameterNumberName":"U-component_of_WINDS"},"data":[0.0,0.0,0.0,0.0,0.0,0.0,0.0,0.0,0.0,0.0,0.0,0.0,0.0,0.0,0.0,0.0,0.0,0.0,0.0,0.0,0.0,0.0,0.0,0.0,0.0,0.0,0.0,0.0,0.0,0.0,0.0,0.0,0.0,0.0,0.0,0.0,0.0,0.0,0.0,0.0,0.0,0.0,0.0,0.0,0.0,0.0,0.0,0.0,0.0,0.0,0.0,0.0,0.0,0.0,0.0,0.0,0.0,0.0,0.0,0.0,0.0,0.0,0.0,0.0,0.0,0.0,0.0,0.0,0.0,0.0,0.0,0.0,0.0,0.0,0.0,0.0,0.0,0.0,0.0,0.0,0.0,0.0,0.0,0.0,0.0,0.0,0.0,0.0,0.0,0.0,2.0336,2.2028,2.4909,2.6357,2.5472,2.66,2.6531,2.4615,0.0,0.0,0.0,0.0,0.0,0.0,0.0,0.0,0.0,0.0,0.0,0.0,0.0,0.0,0.0,0.0,0.0,0.0,0.0,0.0,0.0,0.0,0.0,0.0,0.0,0.0,0.0,0.0,0.0,0.0,0.0,0.0,0.0,0.0,0.0,0.0,0.0,0.0,0.0,0.0,0.0,0.0,0.0,0.0,0.0,0.0,0.0,0.0,0.0,0.0,0.0,0.0,0.0,0.0,0.0,0.0,0.0,0.0,0.0,0.0,0.0,0.0,0.0,0.0,0.0,0.0,0.0,0.0,0.0,0.0,0.0,0.0,0.0,0.0,0.0,0.0,0.0,0.0,0.0,0.0,0.0,0.0,0.0,0.0,0.0,0.0,0.0,0.0,0.0,0.0,0.0,0.0,0.0,0.0,0.0,0.0,0.0,0.0,0.0,0.0,0.0,0.0,0.0,0.0,2.2149,2.3837,2.5678,2.641,2.5472,2.6179,2.6028,2.4594,0.0,0.0,0.0,0.0,0.0,0.0,0.0,0.0,0.0,0.0,0.0,0.0,0.0,0.0,0.0,0.0,0.0,0.0,0.0,0.0,0.0,0.0,0.0,0.0,0.0,0.0,0.0,0.0,0.0,0.0,0.0,0.0,0.0,0.0,0.0,0.0,0.0,0.0,0.0,0.0,0.0,0.0,0.0,0.0,0.0,0.0,0.0,0.0,0.0,0.0,0.0,0.0,0.0,0.0,0.0,0.0,0.0,0.0,0.0,0.0,0.0,0.0,0.0,0.0,0.0,0.0,0.0,0.0,0.0,0.0,0.0,0.0,0.0,0.0,0.0,0.0,0.0,0.0,0.0,0.0,0.0,0.0,0.0,0.0,0.0,0.0,0.0,0.0,0.0,0.0,0.0,0.0,0.0,0.0,0.0,0.0,0.0,0.0,0.0,0.0,0.0,0.0,0.0,2.2274,2.3179,2.481,2.6055,2.637,2.5427,2.5967,2.5796,2.4594,2.4317,0.0,0.0,0.0,0.0,0.0,0.0,0.0,0.0,0.0,0.0,0.0,0.0,0.0,0.0,0.0,0.0,0.0,0.0,0.0,0.0,0.0,0.0,0.0,0.0,0.0,0.0,0.0,0.0,0.0,0.0,0.0,0.0,0.0,0.0,0.0,0.0,0.0,0.0,0.0,0.0,0.0,0.0,0.0,0.0,0.0,0.0,0.0,0.0,0.0,0.0,0.0,0.0,0.0,0.0,0.0,0.0,0.0,0.0,0.0,0.0,0.0,0.0,0.0,0.0,0.0,0.0,0.0,0.0,0.0,0.0,0.0,0.0,0.0,0.0,0.0,0.0,0.0,0.0,0.0,0.0,0.0,0.0,0.0,0.0,0.0,0.0,0.0,0.0,0.0,0.0,0.0,0.0,0.0,0.0,0.0,0.0,0.0,0.0,0.0,0.0,0.0,0.0,2.3257,2.3926,2.5351,2.6013,2.6072,2.536,2.5641,2.545,2.4456,2.387,0.0,0.0,0.0,0.0,0.0,0.0,0.0,0.0,0.0,0.0,0.0,0.0,0.0,0.0,0.0,0.0,0.0,0.0,0.0,0.0,0.0,0.0,0.0,0.0,0.0,0.0,0.0,0.0,0.0,0.0,0.0,0.0,0.0,0.0,0.0,0.0,0.0,0.0,0.0,0.0,0.0,0.0,0.0,0.0,0.0,0.0,0.0,0.0,0.0,0.0,0.0,0.0,0.0,0.0,0.0,0.0,0.0,0.0,0.0,0.0,0.0,0.0,0.0,0.0,0.0,0.0,0.0,0.0,0.0,0.0,0.0,0.0,0.0,0.0,0.0,0.0,0.0,0.0,0.0,0.0,0.0,0.0,0.0,0.0,0.0,0.0,0.0,0.0,0.0,0.0,0.0,0.0,0.0,0.0,0.0,0.0,0.0,0.0,0.0,0.0,0.0,0.0,2.3712,2.4545,2.5404,2.5437,2.536,2.5311,2.5057,2.4682,2.4172,2.3852,0.0,0.0,0.0,0.0,0.0,0.0,0.0,0.0,0.0,0.0,0.0,0.0,0.0,0.0,0.0,0.0,0.0,0.0,0.0,0.0,0.0,0.0,0.0,0.0,0.0,0.0,0.0,0.0,0.0,0.0,0.0,0.0,0.0,0.0,0.0,0.0,0.0,0.0,0.0,0.0,0.0,0.0,0.0,0.0,0.0,0.0,0.0,0.0,0.0,0.0,0.0,0.0,0.0,0.0,0.0,0.0,0.0,0.0,0.0,0.0,0.0,0.0,0.0,0.0,0.0,0.0,0.0,0.0,0.0,0.0,0.0,0.0,0.0,0.0,0.0,0.0,0.0,0.0,0.0,0.0,0.0,0.0,0.0,0.0,0.0,0.0,0.0,0.0,0.0,0.0,0.0,0.0,0.0,0.0,0.0,0.0,0.0,0.0,0.0,0.0,0.0,0.0,2.4098,2.4591,2.5369,2.5354,2.5283,2.5248,2.4981,2.467,2.4366,0.0,0.0,0.0,0.0,0.0,0.0,0.0,0.0,0.0,0.0,0.0,0.0,0.0,0.0,0.0,0.0,0.0,0.0,0.0,0.0,0.0,0.0,0.0,0.0,0.0,0.0,0.0,0.0,0.0,0.0,0.0,0.0,0.0,0.0,0.0,0.0,0.0,0.0,0.0,0.0,0.0,0.0,0.0,0.0,0.0,0.0,0.0,0.0,0.0,0.0,0.0,0.0,0.0,0.0,0.0,0.0,0.0,0.0,0.0,0.0,0.0,0.0,0.0,0.0,0.0,0.0,0.0,0.0,0.0,0.0,0.0,0.0,0.0,0.0,0.0,0.0,0.0,0.0,0.0,0.0,0.0,0.0,0.0,0.0,0.0,0.0,0.0,0.0,0.0,0.0,0.0,0.0,0.0,0.0,0.0,0.0,0.0,0.0,0.0,0.0,0.0,0.0,2.4195,2.4505,2.4865,2.5344,2.532,2.5241,2.5203,2.4915,2.4595,2.4279,0.0,0.0,0.0,0.0,0.0,0.0,0.0,0.0,0.0,0.0,0.0,0.0,0.0,0.0,0.0,0.0,0.0,0.0,0.0,0.0,0.0,0.0,0.0,0.0,0.0,0.0,0.0,0.0,0.0,0.0,0.0,0.0,0.0,0.0,0.0,0.0,0.0,0.0,0.0,0.0,0.0,0.0,0.0,0.0,0.0,0.0,0.0,0.0,0.0,0.0,0.0,0.0,0.0,0.0,0.0,0.0,0.0,0.0,0.0,0.0,0.0,0.0,0.0,0.0,0.0,0.0,0.0,0.0,0.0,0.0,0.0,0.0,0.0,0.0,0.0,0.0,0.0,0.0,0.0,0.0,0.0,0.0,0.0,0.0,0.0,0.0,0.0,0.0,0.0,0.0,0.0,0.0,0.0,0.0,0.0,0.0,0.0,0.0,0.0,0.0,0.0,0.0,2.4216,2.4962,2.5473,2.5415,2.5283,2.5206,2.5191,2.4837,2.4349,0.0,0.0,0.0,0.0,0.0,0.0,0.0,0.0,0.0,0.0,0.0,0.0,0.0,0.0,0.0,0.0,0.0,0.0,0.0,0.0,0.0,0.0,0.0,0.0,0.0,0.0,0.0,0.0,0.0,0.0,0.0,0.0,0.0,0.0,0.0,0.0,0.0,0.0,0.0,0.0,0.0,0.0,0.0,0.0,0.0,0.0,0.0,0.0,0.0,0.0,0.0,0.0,0.0,0.0,0.0,0.0,0.0,0.0,0.0,0.0,0.0,0.0,0.0,0.0,0.0,0.0,0.0,0.0,0.0,0.0,0.0,0.0,0.0,0.0,0.0,0.0,0.0,0.0,0.0,0.0,0.0,0.0,0.0,0.0,0.0,0.0,0.0,0.0,0.0,0.0,0.0,0.0,0.0,0.0,0.0,0.0,0.0,0.0,0.0,0.0,0.0,0.0,0.0,2.4989,2.5291,2.5453,2.534,2.5254,2.5206,2.5191,2.479,2.4366,2.4008,0.0,0.0,0.0,0.0,0.0,0.0,0.0,0.0,0.0,0.0,0.0,0.0,0.0,0.0,0.0,0.0,0.0,0.0,0.0,0.0,0.0,0.0,0.0,0.0,0.0,0.0,0.0,0.0,0.0,0.0,0.0,0.0,0.0,0.0,0.0,0.0,0.0,0.0,0.0,0.0,0.0,0.0,0.0,0.0,0.0,0.0,0.0,0.0,0.0,0.0,0.0,0.0,0.0,0.0,0.0,0.0,0.0,0.0,0.0,0.0,0.0,0.0,0.0,0.0,0.0,0.0,0.0,0.0,0.0,0.0,0.0,0.0,0.0,0.0,0.0,0.0,0.0,0.0,0.0,0.0,0.0,0.0,0.0,0.0,0.0,0.0,0.0,0.0,0.0,0.0,0.0,0.0,0.0,0.0,0.0,0.0,0.0,0.0,0.0,0.0,0.0,0.0,2.5318,2.5368,2.5383,2.5309,2.5243,2.5172,2.5101,2.4741,2.4403,2.4026,0.0,0.0,0.0,0.0,0.0,0.0,0.0,0.0,0.0,0.0,0.0,0.0,0.0,0.0,0.0,0.0,0.0,0.0,0.0,0.0,0.0,0.0,0.0,0.0,0.0,0.0,0.0,0.0,0.0,0.0,0.0,0.0,0.0,0.0,0.0,0.0,0.0,0.0,0.0,0.0,0.0,0.0,0.0,0.0,0.0,0.0,0.0,0.0,0.0,0.0,0.0,0.0,0.0,0.0,0.0,0.0,0.0,0.0,0.0,0.0,0.0,0.0,0.0,0.0,0.0,0.0,0.0,0.0,0.0,0.0,0.0,0.0,0.0,0.0,0.0,0.0,0.0,0.0,0.0,0.0,0.0,0.0,0.0,0.0,0.0,0.0,0.0,0.0,0.0,0.0,0.0,0.0,0.0,0.0,0.0,0.0,0.0,0.0,0.0,0.0,0.0,0.0,2.5301,2.5309,2.5301,2.5293,2.5231,2.5125,2.4942,2.4712,2.4405,2.3964,0.0,0.0,0.0,0.0,0.0,0.0,0.0,0.0,0.0,0.0,0.0,0.0,0.0,0.0,0.0,0.0,0.0,0.0,0.0,0.0,0.0,0.0,0.0,0.0,0.0,0.0,0.0,0.0,0.0,0.0,0.0,0.0,0.0,0.0,0.0,0.0,0.0,0.0,0.0,0.0,0.0,0.0,0.0,0.0,0.0,0.0,0.0,0.0,0.0,0.0,0.0,0.0,0.0,0.0,0.0,0.0,0.0,0.0,0.0,0.0,2.5229,2.5433,0.0,0.0,0.0,0.0,0.0,0.0,0.0,0.0,0.0,0.0,0.0,0.0,0.0,0.0,0.0,0.0,0.0,0.0,0.0,0.0,0.0,0.0,0.0,0.0,0.0,0.0,0.0,0.0,0.0,0.0,0.0,0.0,0.0,0.0,0.0,0.0,0.0,0.0,0.0,0.0,2.5244,2.5264,2.5283,2.5234,2.5217,2.518,2.5137,2.4756,2.4385,2.4082,2.3638,0.0,0.0,0.0,0.0,0.0,0.0,0.0,0.0,0.0,0.0,0.0,0.0,0.0,0.0,0.0,0.0,0.0,0.0,0.0,0.0,0.0,0.0,0.0,0.0,0.0,0.0,0.0,0.0,0.0,0.0,0.0,0.0,0.0,0.0,0.0,0.0,0.0,0.0,0.0,0.0,0.0,0.0,0.0,0.0,0.0,0.0,0.0,0.0,0.0,0.0,0.0,0.0,0.0,0.0,0.0,0.0,0.0,0.0,0.0,2.7071,2.6184,0.0,0.0,0.0,0.0,0.0,0.0,0.0,0.0,0.0,0.0,0.0,0.0,0.0,0.0,0.0,0.0,0.0,0.0,0.0,0.0,0.0,0.0,0.0,0.0,0.0,0.0,0.0,0.0,0.0,0.0,0.0,0.0,0.0,0.0,0.0,0.0,0.0,0.0,0.0,0.0,2.5201,2.5234,2.5244,2.5198,2.5203,2.5168,2.5057,2.4708,2.4403,2.421,2.3756,0.0,0.0,0.0,0.0,0.0,0.0,0.0,0.0,0.0,0.0,0.0,0.0,0.0,0.0,0.0,0.0,0.0,0.0,0.0,0.0,0.0,0.0,0.0,0.0,0.0,0.0,0.0,0.0,0.0,0.0,0.0,0.0,0.0,0.0,0.0,0.0,0.0,0.0,0.0,0.0,0.0,0.0,0.0,0.0,0.0,0.0,0.0,0.0,0.0,0.0,0.0,0.0,0.0,2.9783,3.0925,3.2081,3.1584,3.2111,3.32,2.9648,2.7783,2.7226,2.7133,0.0,0.0,0.0,0.0,0.0,0.0,0.0,0.0,0.0,0.0,0.0,0.0,0.0,0.0,0.0,0.0,0.0,0.0,0.0,0.0,0.0,0.0,2.727,2.7427,2.8108,2.8303,2.6722,0.0,0.0,0.0,0.0,0.0,0.0,0.0,0.0,0.0,0.0,0.0,2.5198,2.5201,2.519,2.5203,2.5191,2.5113,2.4915,2.4663,2.4458,2.4303,2.3834,2.3549,0.0,0.0,0.0,0.0,0.0,0.0,0.0,0.0,0.0,0.0,0.0,0.0,0.0,0.0,0.0,0.0,0.0,0.0,0.0,0.0,0.0,0.0,0.0,0.0,0.0,0.0,0.0,0.0,0.0,0.0,0.0,0.0,2.5489,2.5596,0.0,0.0,0.0,0.0,0.0,0.0,0.0,0.0,0.0,0.0,0.0,0.0,0.0,2.7864,2.8538,3.022,3.1119,3.1254,3.2938,3.3461,3.2967,3.3616,3.4042,3.4206,3.3635,0.0,2.8912,2.8221,0.0,0.0,0.0,0.0,0.0,0.0,0.0,0.0,0.0,0.0,0.0,0.0,0.0,0.0,0.0,0.0,0.0,0.0,0.0,0.0,0.0,0.0,2.8323,2.9084,2.9884,3.0216,2.9298,2.7836,2.6502,2.573,2.5521,2.5459,0.0,0.0,0.0,0.0,0.0,0.0,2.5212,2.5212,2.5201,2.5187,2.5203,2.5113,2.4915,2.4697,2.451,2.4303,2.4018,2.375,2.3504,2.3481,0.0,0.0,0.0,0.0,0.0,0.0,0.0,0.0,0.0,0.0,0.0,0.0,0.0,0.0,0.0,0.0,0.0,0.0,0.0,0.0,0.0,0.0,0.0,0.0,0.0,0.0,0.0,0.0,0.0,2.5143,2.5596,2.5557,2.5531,2.5544,0.0,0.0,0.0,0.0,0.0,0.0,0.0,0.0,0.0,2.9496,3.0335,3.0962,3.1298,3.2577,3.3699,3.4646,3.5925,3.7096,3.8102,3.8025,3.8508,3.934,3.8411,3.6585,3.409,3.1355,2.9249,2.7683,0.0,0.0,0.0,0.0,2.7457,2.7846,2.7878,2.7893,2.7874,2.7776,0.0,0.0,0.0,0.0,0.0,0.0,0.0,2.722,2.8158,2.9054,2.9923,3.0801,3.1641,3.2031,3.1192,3.0384,2.9123,2.6798,2.632,2.6118,2.5543,2.5398,0.0,0.0,0.0,2.5331,2.5265,2.5215,2.5201,2.5195,2.5203,2.5113,2.4915,2.4731,2.451,2.4303,2.4037,2.3834,2.3685,2.3553,2.3371,0.0,0.0,0.0,0.0,0.0,0.0,0.0,0.0,0.0,0.0,0.0,0.0,0.0,0.0,0.0,0.0,0.0,0.0,0.0,0.0,0.0,0.0,0.0,0.0,0.0,0.0,0.0,0.0,2.596,2.6044,2.5569,2.5826,2.5887,0.0,0.0,0.0,0.0,0.0,0.0,2.8849,3.0274,3.1568,3.2714,3.3561,3.4206,3.4631,3.5736,3.6926,3.8163,3.9308,4.0713,4.2318,4.1932,4.2338,4.3227,4.197,4.0578,3.8856,3.4845,3.2089,3.0294,2.9496,2.9311,2.9482,2.9336,2.9784,3.0507,3.0554,3.0431,3.0177,2.9747,2.9001,2.8115,2.7192,0.0,0.0,0.0,0.0,2.9078,2.9928,3.0807,3.168,3.2558,3.3437,3.3827,3.2949,3.2773,3.1733,2.8259,2.7585,2.7214,2.6071,2.5815,0.0,2.5525,2.5611,2.5605,2.5329,2.5447,2.5447,2.521,2.5191,2.5101,2.4861,2.4716,2.4528,2.4266,2.4056,2.3896,2.3816,2.3664,2.3553,2.3504,0.0,0.0,0.0,0.0,0.0,0.0,0.0,0.0,0.0,0.0,0.0,0.0,0.0,0.0,0.0,0.0,0.0,0.0,0.0,0.0,0.0,0.0,0.0,0.0,0.0,0.0,0.0,0.0,0.0,2.5696,2.6747,0.0,0.0,0.0,0.0,2.7601,2.9361,3.0753,3.1553,3.2408,3.3631,3.5258,3.6045,3.7194,3.8773,4.0554,4.148,4.1576,4.3419,4.3904,4.3266,4.4059,4.4001,4.3305,4.3208,4.2647,4.1545,3.8139,3.5262,3.2932,3.2127,3.2303,3.2954,3.2186,3.2461,3.3202,3.3209,3.2675,3.209,3.289,3.2502,3.1601,3.0778,3.0511,0.0,0.0,3.0637,3.086,3.173,3.2617,3.3495,3.4354,3.5232,3.5623,3.4764,3.4569,3.3554,3.0138,2.9455,2.8901,2.7129,0.0,2.6524,2.5626,2.6095,2.6253,2.5406,2.5964,2.6113,2.5287,2.5191,2.5063,2.4738,2.4707,2.4528,2.4133,2.4036,2.3958,2.3896,2.3816,2.3707,2.3504,2.3481,0.0,0.0,0.0,0.0,0.0,0.0,0.0,0.0,0.0,0.0,0.0,0.0,0.0,0.0,0.0,0.0,0.0,0.0,0.0,0.0,0.0,0.0,0.0,0.0,0.0,0.0,0.0,0.0,2.8351,2.9713,0.0,3.0107,3.0232,3.0706,3.1527,3.2711,3.3691,3.4406,3.6344,3.775,3.8446,3.9842,4.0875,4.1489,4.2119,4.2729,4.3304,4.3953,4.4443,4.4793,4.5102,4.5109,4.491,4.491,4.4446,4.3576,4.237,4.0045,3.7133,3.5801,3.5466,3.5654,3.4881,3.5155,3.5915,3.5903,3.5701,3.531,3.4491,3.3626,3.2856,3.2563,3.2849,3.3158,3.2619,3.2876,3.3503,3.4371,3.4413,3.4608,3.6033,3.6189,3.5916,3.5603,3.5545,3.5018,3.3222,3.1524,2.9999,2.884,2.8173,2.7683,2.7358,2.7451,2.7443,2.7079,2.7209,2.701,2.6132,2.5994,2.5634,2.4776,2.4707,2.4547,2.4133,2.4074,2.4016,2.3896,2.3876,2.3795,2.3707,2.3689,2.3898,0.0,0.0,0.0,0.0,0.0,0.0,0.0,0.0,0.0,0.0,0.0,0.0,0.0,0.0,0.0,0.0,0.0,0.0,0.0,0.0,0.0,0.0,0.0,0.0,0.0,2.914,3.0639,3.1061,3.2751,3.3734,3.3365,3.3502,3.3941,3.4794,3.5912,3.6878,3.761,3.9629,4.0933,4.136,4.2546,4.3331,4.3675,4.3675,4.3963,4.4537,4.4537,4.49,4.5528,4.558,4.5645,4.5742,4.5786,4.549,4.5007,4.5007,4.3666,4.1412,3.9226,3.8558,3.8692,3.7654,3.7831,3.8531,3.8244,3.8141,3.7906,3.6482,3.5623,3.5154,3.5154,3.5564,3.5896,3.531,3.5564,3.615,3.6735,3.6443,3.6306,3.7458,3.7301,3.6872,3.6872,3.6872,3.6618,3.5759,3.369,3.1758,3.0645,2.9962,2.9469,2.9166,2.9002,2.8817,2.8443,2.8287,2.7872,2.7005,2.6866,2.6477,2.5603,2.5515,2.5349,2.4977,2.4681,2.4476,2.4377,2.4317,2.4275,2.4254,2.4487,2.4842,2.5298,0.0,0.0,0.0,0.0,0.0,0.0,0.0,0.0,0.0,0.0,0.0,0.0,0.0,0.0,0.0,0.0,0.0,0.0,0.0,0.0,0.0,0.0,0.0,2.9004,3.1741,3.3696,3.3677,3.5722,3.6535,3.4967,3.5528,3.6355,3.7228,3.8937,4.0255,4.1127,4.1968,4.2895,4.3842,4.3899,4.4381,4.5362,4.5381,4.54,4.54,4.54,4.54,4.5419,4.5545,4.5596,4.5613,4.5737,4.58,4.58,4.58,4.58,4.5485,4.2269,4.1519,4.2052,4.0462,4.0409,4.0973,4.014,3.9839,3.9702,3.8921,3.869,3.869,3.869,3.869,3.8671,3.8651,3.8632,3.8632,3.8632,3.8612,3.8612,3.8632,3.8612,3.8593,3.8593,3.8593,3.8336,3.7477,3.5935,3.4237,3.248,3.2168,3.1825,3.0921,3.0737,0.0,2.94,2.9164,2.8728,2.7841,2.7746,2.7561,2.7127,2.7111,2.6953,2.6615,2.58,2.534,2.534,2.5196,2.5132,2.5132,2.5864,2.6128,2.5942,0.0,0.0,0.0,0.0,0.0,0.0,0.0,0.0,0.0,0.0,0.0,0.0,0.0,0.0,0.0,0.0,0.0,0.0,0.0,0.0,0.0,3.04,3.1356,3.1995,3.4344,3.6372,3.7449,3.92,4.0224,3.9908,4.0103,4.0591,4.1454,4.2001,4.2288,4.2315,4.3258,4.3603,4.3262,4.4046,4.4605,4.49,4.4995,4.5129,4.5237,4.5237,4.5361,4.5545,4.558,4.5645,4.5757,4.5766,4.58,4.58,4.58,4.58,4.5673,4.4258,4.3491,4.3017,4.2051,4.1431,4.1077,4.0837,4.0737,4.0717,4.0483,4.0405,4.0405,4.0405,4.0405,4.0288,3.9644,3.9468,3.9468,3.9468,3.9039,3.8746,3.9331,3.9019,3.8593,3.8593,3.8593,3.8336,3.7477,3.6911,3.6033,3.4295,3.3456,3.2946,3.27,3.2569,3.2151,3.1274,3.0998,3.0299,2.8785,2.86,2.817,2.7165,2.7111,2.6953,2.6615,2.6371,2.6222,2.6161,2.614,2.6096,2.6034,2.6772,2.712,0.0,0.0,0.0,0.0,0.0,0.0,0.0,0.0,0.0,0.0,0.0,0.0,0.0,0.0,0.0,0.0,0.0,0.0,0.0,0.0,0.0,0.0,3.3385,3.5063,3.6571,3.7704,3.8931,4.0486,4.1813,4.2634,4.2772,4.2801,4.3006,4.3511,4.3548,4.3461,4.3299,4.3855,4.3983,4.3557,4.4177,4.4578,4.4712,4.4789,4.4962,4.5192,4.5192,4.532,4.551,4.558,4.5645,4.5708,4.5786,4.58,4.58,4.58,4.58,4.5717,0.0,0.0,0.0,0.0,4.217,4.1147,4.1521,4.1404,4.1169,4.1523,4.1641,4.1719,4.2087,4.2181,4.2006,4.1127,4.0893,4.0815,4.0444,3.9995,3.9761,4.0229,3.9995,3.9644,3.9644,3.9644,3.939,3.8512,3.8355,0.0,3.656,3.531,3.4459,3.4384,3.4011,3.3522,3.2938,3.2131,3.1207,3.0209,2.9691,2.9083,2.8234,2.8162,0.0,0.0,0.0,2.7068,2.7002,2.7002,0.0,0.0,0.0,2.8027,2.8051,2.8451,0.0,0.0,2.7511,2.7616,0.0,0.0,0.0,0.0,0.0,0.0,0.0,0.0,0.0,0.0,0.0,0.0,0.0,0.0,0.0,0.0,3.6802,3.9045,4.1516,4.1256,4.133,4.276,4.3578,4.4005,4.4005,4.4005,4.4005,4.4005,4.4005,4.4005,4.4005,4.4005,0.0,0.0,0.0,4.4411,4.4659,4.4667,4.487,4.5213,4.5213,4.53,4.5438,4.5563,4.5629,4.5629,4.5737,4.58,4.58,4.58,4.58,4.5775,4.5059,4.4799,4.4722,4.3983,4.2666,4.1367,4.2246,0.0,0.0,4.2251,4.2546,4.2661,4.3356,4.3548,4.3372,4.2494,4.2259,4.2084,4.1303,4.1108,4.1108,4.1108,4.1108,4.1108,4.1108,4.1108,4.0834,3.9976,3.98,3.9507,3.8609,3.7165,3.6087,3.5889,3.5166,3.4525,3.4243,3.2756,3.1705,3.1609,3.0757,0.0,2.9644,2.9608,2.9435,2.904,2.8338,2.7912,2.7844,2.7844,2.8173,2.8887,2.8791,2.8761,2.8785,2.8737,2.8712,2.8694,2.8718,2.8743,0.0,0.0,0.0,0.0,0.0,0.0,0.0,0.0,0.0,0.0,0.0,0.0,0.0,0.0,0.0,3.7821,3.9283,4.0754,4.3188,4.3392,4.3429,4.3726,4.3912,4.4005,4.4005,4.4005,4.4005,4.4005,4.4005,4.4005,4.4005,4.4005,4.4005,4.4067,4.4226,4.4314,4.4373,4.4605,4.4876,4.5199,4.5321,0.0,4.5723,4.5737,4.5752,4.5752,4.58,4.58,4.58,4.58,4.5896,4.5963,4.5131,4.4871,4.4859,4.4002,4.3043,4.2264,4.3159,4.2876,4.2282,4.316,4.3453,4.3352,4.2806,4.265,0.0,4.1596,4.1342,4.1303,4.1147,4.1108,4.1108,4.1108,4.1108,4.1108,4.1108,4.1108,4.0834,3.9976,3.98,3.9312,3.7809,3.7262,3.6996,3.6857,3.6059,3.5174,3.4378,3.3282,3.2319,3.1667,3.0757,3.0034,2.9644,2.9608,2.9435,2.904,2.8847,2.8755,2.8755,2.8755,2.8828,2.8994,2.8905,2.8858,2.8785,2.8785,2.8761,2.8694,2.8815,2.8881,0.0,0.0,0.0,0.0,0.0,0.0,0.0,0.0,0.0,0.0,0.0,3.1066,3.3033,0.0,3.7261,4.0056,4.1473,4.2612,4.3838,4.4005,4.4005,4.4005,4.4005,4.4005,4.4005,4.4005,4.4005,4.4005,4.4005,4.4005,4.4005,4.4005,4.4005,4.4005,4.4116,4.4207,4.4285,4.444,4.4751,4.5201,4.5282,4.5473,4.58,4.58,4.58,4.58,4.58,4.58,4.58,4.58,4.593,4.6073,4.5619,4.5265,4.5,4.4999,4.4179,4.3183,4.4042,4.3786,4.3196,4.4069,4.4354,4.4348,4.4348,4.4348,4.4075,4.2767,4.2728,4.2845,4.1986,4.1752,4.1752,4.1752,4.142,4.1108,4.1108,4.1108,4.0971,4.0542,4.0444,4.0164,3.9301,3.8424,3.7513,3.6554,3.5965,3.5475,3.4967,3.4051,3.3125,3.23,3.1388,3.051,2.9682,2.9415,2.9206,2.9017,2.8994,2.8994,2.8994,2.8994,2.8994,2.8994,2.8929,2.8881,2.8858,2.8858,2.9034,2.9418,2.949,2.9514,0.0,0.0,0.0,0.0,0.0,0.0,0.0,2.7866,2.9064,3.1317,3.2536,3.403,3.6671,3.8495,4.0132,4.1705,4.3008,4.386,4.3974,4.3974,4.3974,4.4005,4.4005,4.4005,4.4005,4.4005,4.4005,4.4005,4.4005,4.4005,4.4005,4.4005,4.4005,4.4005,4.4005,4.4067,4.4255,4.4285,4.4568,4.5074,4.5118,4.5343,4.5723,4.5752,4.5786,4.58,4.58,4.58,4.58,4.58,4.591,4.6073,4.6093,4.5742,4.5312,4.6035,4.5293,4.4082,4.4941,4.4687,4.4101,4.4977,4.5258,4.5343,4.589,4.6046,4.5714,4.4133,4.4211,4.4426,4.3021,4.265,4.265,4.265,4.2123,4.1615,4.1615,4.1615,4.1557,4.1381,4.1498,4.1488,4.1058,3.9948,3.8442,3.6462,3.5834,3.5581,3.552,3.4683,3.3758,3.2908,3.202,3.0982,2.9719,2.927,2.9118,2.9237,2.9214,2.931,2.9475,2.9475,2.9475,2.9475,2.941,2.9386,2.9362,2.9386,2.9716,3.0357,3.0571,3.0552,2.4442,2.464,2.4802,2.5528,2.6297,2.7648,0.0,3.1982,3.2788,3.3978,3.5422,3.6809,3.794,3.9337,4.0939,4.2947,4.3245,4.3371,4.3846,4.3851,4.3883,4.3974,4.4005,4.4005,4.4005,4.4005,4.4005,4.4005,4.4005,4.4005,4.4005,4.4005,4.4005,4.4005,4.4005,4.4005,4.4036,4.4207,4.4402,4.4599,4.4825,4.5101,4.5453,4.556,4.5692,4.58,4.58,4.58,4.58,4.58,4.5877,4.6015,4.6074,4.6093,4.6074,4.623,4.5683,4.498,4.5859,4.5586,4.5,4.5875,4.6156,4.6027,4.5343,4.5148,4.4933,4.3977,4.3762,4.3801,4.3606,4.3548,4.3548,4.3548,4.3469,4.3411,4.3411,4.3411,4.3177,4.2396,4.2884,4.2893,4.1273,4.1385,4.0801,3.8225,3.6566,3.5581,3.552,3.4677,3.3799,3.2993,3.2062,3.0975,2.9719,2.9395,2.9499,3.0026,3.0081,3.0393,3.1091,3.1127,3.1127,3.1127,3.1127,3.1102,3.1027,3.1102,3.1157,3.1174,3.1983,3.1953,2.3912,2.5288,2.6632,2.6872,2.8592,3.0711,3.2724,3.3741,3.4781,3.6656,3.7967,3.9175,4.0492,4.1232,4.1994,4.3086,4.3177,4.3248,4.3767,4.3837,4.3486,4.2569,4.2915,4.341,4.3968,4.4005,4.4005,4.4005,4.4005,4.4005,4.4005,4.4005,4.4005,4.4005,4.4005,4.4005,4.4005,4.4067,4.424,4.4493,4.4776,4.5077,4.5399,4.5613,4.5761,4.58,4.58,4.58,4.58,4.58,4.5877,4.6021,4.6065,4.6131,4.6152,4.5703,4.5625,4.5742,4.5586,4.5644,4.582,4.6171,4.5968,4.548,4.5109,4.4992,4.4816,4.3957,4.4426,4.509,4.4582,4.4465,4.4465,4.4465,4.4075,4.3704,4.3704,4.3294,4.2982,4.3138,4.304,4.2822,4.2463,4.2237,4.1509,3.9766,3.8067,3.6999,3.6949,3.5729,3.4534,3.3695,3.2684,3.1808,3.1111,3.0874,3.0802,3.0895,3.0889,3.1035,3.1384,3.1384,3.1384,3.1384,3.1384,3.1403,3.1378,3.1403,3.1641,3.2067,3.2423,3.2669,2.3728,2.5794,2.794,2.8427,3.0889,3.3493,3.4677,3.5739,3.7071,3.9142,4.0036,4.0806,4.2007,4.2302,4.2404,4.2716,4.2829,4.2996,4.3356,4.3208,4.2567,4.1222,4.1434,4.1991,4.2723,4.3299,4.3732,4.3955,4.4005,4.4005,4.4005,4.4005,4.4005,4.4005,4.4005,4.4005,4.4005,4.4005,4.4121,4.4374,4.4676,4.4969,4.5265,4.5632,4.581,4.58,4.58,4.58,4.58,4.58,4.5858,4.5969,4.6065,4.6123,4.6087,4.5292,4.5391,4.5859,4.5215,4.5254,4.5586,4.5586,4.5328,4.4998,4.4992,4.5168,4.5226,4.4582,4.5324,4.6144,4.5519,4.5363,4.5363,4.5363,4.4875,4.4426,4.4426,4.3723,4.3232,4.3591,4.3162,4.2797,4.2956,4.2654,4.2121,4.1343,3.9758,3.843,3.7738,3.6133,3.4817,3.4175,3.32,3.2473,3.2128,3.1967,3.1838,3.174,3.1733,3.1825,3.2045,3.2045,3.2045,3.2045,3.2045,3.2045,3.2045,3.2045,3.2357,3.2944,3.2944,3.3238,2.4319,2.6005,2.8101,3.018,3.2842,3.539,3.7252,3.885,4.0236,4.1279,4.1516,4.1596,4.1631,4.1788,4.1924,4.1924,4.2092,4.2262,4.2346,4.1658,4.0927,4.0329,3.9819,3.9553,3.9703,4.1544,4.3076,4.3841,4.3942,4.4005,4.4005,4.4005,4.4005,4.4005,4.4005,4.4005,4.4005,4.4005,4.4005,4.4036,4.4402,4.472,4.4938,4.5528,4.581,4.58,4.58,4.58,4.58,4.58,4.58,4.5819,4.6027,4.6091,4.6008,4.5266,4.5019,4.5039,4.5019,4.4453,4.3789,4.3789,4.4334,4.4991,4.4995,4.5597,4.6261,4.6222,4.6261,4.628,4.6261,4.6261,4.6261,4.6261,4.6241,4.6222,4.6222,4.5539,4.4669,4.3779,4.3572,4.321,4.2136,4.2621,4.3129,4.3041,4.1527,3.9527,3.7065,3.5276,3.4205,3.4107,3.3377,3.2684,3.2128,3.209,3.2241,3.2548,3.2577,3.2926,3.3697,3.3733,3.3733,3.3733,3.3733,3.3733,3.3733,3.3733,3.3733,3.3752,3.3752,3.377,2.54,2.8054,3.1018,3.3073,3.548,3.7793,3.9382,4.0205,4.0608,4.0377,3.9713,3.8986,3.852,3.8018,3.8144,3.9483,4.0023,4.0737,4.2037,4.2007,4.1167,3.9367,3.968,3.9692,3.8707,4.0105,4.1668,4.3021,4.3175,4.3448,4.3968,4.4005,4.4005,4.4005,4.4005,4.4005,4.4005,4.4005,4.4005,4.4005,4.4519,4.5033,4.5437,4.5684,4.581,4.58,4.58,4.58,4.58,4.58,4.58,4.5819,4.6027,4.6111,4.6021,4.5266,4.4629,4.4141,4.4141,4.3945,4.3691,4.3691,4.3904,4.4132,4.4136,4.4758,4.5441,4.5441,4.5851,4.63,4.63,4.63,4.63,4.63,4.63,4.63,4.63,4.5553,4.4935,4.5209,4.4281,4.3501,4.3615,4.3395,4.2974,4.2329,4.1239,3.9777,3.7815,3.6565,3.5853,3.5839,3.5081,3.4381,3.3923,3.3805,3.3665,3.3489,3.343,3.3532,3.3788,3.3807,3.3807,3.3807,3.3807,3.3807,3.3807,3.3807,3.3807,3.3807,3.3807,3.3807,2.6812,2.9844,3.2934,3.5069,3.7235,3.9143,4.0085,4.036,4.0031,3.8677,3.762,3.6586,3.5395,3.4789,3.5008,3.6592,3.7155,3.8178,4.0364,4.0418,3.9846,3.873,3.9292,3.9392,3.8418,3.947,4.0873,4.2532,4.2984,4.3435,4.3968,4.4005,4.4005,4.4005,4.4005,4.4005,4.4005,4.4005,4.4109,4.4308,4.4701,4.5184,4.57,4.5765,4.581,4.58,4.58,4.58,4.58,4.58,4.58,4.5819,4.6027,4.6111,4.6021,4.5266,4.4453,4.3652,4.334,4.3047,4.2812,4.2812,4.3203,4.3706,4.371,4.4524,4.546,4.546,4.587,4.63,4.63,4.63,4.63,4.63,4.63,4.63,4.63,4.5499,4.4954,4.5496,4.4365,4.3361,4.3501,4.2811,4.203,4.1428,4.0854,4.0008,3.8642,3.743,3.6699,3.6699,3.594,3.5304,3.4945,3.4734,3.4442,3.4037,3.3895,3.3807,3.3807,3.3807,3.3807,3.3807,3.3807,3.3807,3.3807,3.3807,3.3807,3.3807,3.3807,3.3807,2.8469,3.1265,3.3915,3.6094,3.7981,3.9351,3.9458,3.9408,3.866,3.6397,3.5408,3.4332,3.237,3.2229,3.2647,3.3527,3.3946,3.5031,3.7638,3.744,3.7422,3.8518,3.8684,3.8716,3.8756,3.954,4.0762,4.2456,4.3384,4.3892,4.3986,4.4005,4.4005,4.4005,4.4005,4.4005,4.4005,4.4005,4.4279,4.48,4.4849,4.5184,4.57,4.5765,4.581,4.58,4.58,4.58,4.58,4.58,4.58,4.5819,4.6027,4.6111,4.6021,4.5227,4.4414,4.3574,4.2695,4.1894,4.1269,4.1308,4.2422,4.3769,4.3771,4.4953,4.63,4.63,4.63,4.63,4.63,4.63,4.63,4.63,4.63,4.63,4.63,4.5538,4.4842,4.4764,4.3955,4.2965,4.2024,4.1143,4.0566,4.0566,4.0527,4.0219,3.945,3.7873,3.6815,3.6776,3.6045,3.5441,3.5122,3.487,3.4572,3.4265,3.3961,3.3807,3.3815,3.3807,3.3807,3.3807,3.3807,3.3807,3.3807,3.3807,3.3807,3.3807,3.3807,3.3807,2.9872,3.2497,3.495,3.6538,3.7776,3.8395,3.79,3.7317,3.6285,3.4065,3.2357,3.094,2.9852,3.0211,3.1263,3.3161,3.4728,3.6516,3.8884,3.9593,3.9721,3.9439,3.9687,3.9764,3.9557,4.051,4.1588,4.2548,4.2865,4.3299,4.3968,4.4005,4.4005,4.4005,4.4005,4.4005,4.4005,4.4005,4.4279,4.48,4.48,4.5142,4.57,4.5715,4.5742,4.58,4.58,4.58,4.58,4.58,4.58,4.5819,4.6027,4.6111,4.5923,4.4544,4.3887,4.3574,4.2695,4.2266,4.2207,4.2851,4.3789,4.4668,4.4661,4.5431,4.63,4.63,4.63,4.63,4.63,4.63,4.63,4.63,4.63,4.63,4.63,4.593,4.56,4.5599,4.473,4.375,4.2912,4.2047,4.147,4.147,4.0912,4.0431,4.0219,3.9277,3.8392,3.7738,3.6911,3.6051,3.5248,3.4945,3.4733,3.4572,3.4136,3.3947,3.4099,3.3895,3.3807,3.3807,3.3807,3.3807,3.3807,3.3807,3.3807,3.3807,3.3807,3.3807,3.1174,3.3487,3.5628,3.64,3.6704,3.6605,3.5801,3.4855,3.3405,3.0768,2.9386,2.8178,2.6591,2.7098,2.839,3.0254,3.1917,3.4133,3.7428,3.8573,3.9378,4.0158,4.0753,4.1073,4.0856,4.1812,4.2644,4.307,4.3153,4.3434,4.3968,4.4005,4.4005,4.4005,4.4005,4.4005,4.4005,4.4005,4.4279,4.48,4.4825,4.5142,4.57,4.5731,4.5761,4.58,4.58,4.58,4.58,4.58,4.58,4.5819,4.6027,4.6111,4.5943,4.472,4.4277,4.4141,4.3262,4.3223,4.3555,4.3672,4.4297,4.5,4.4996,4.5609,4.63,4.63,4.63,4.63,4.63,4.63,4.63,4.63,4.63,4.63,4.63,4.6091,4.5867,4.5796,4.4982,4.4162,4.3701,4.2604,4.1797,4.1797,4.1066,4.0489,4.0489,3.9796,3.9104,3.8623,3.7796,3.704,3.6485,3.5831,3.5439,3.5401,3.4648,3.4227,3.4197,3.4049,3.3921,3.3788,3.3807,3.3807,3.3807,3.3807,3.3807,3.3807,3.3807,3.3807,3.2208,3.4297,3.5894,3.5867,3.538,3.462,3.3427,3.2161,3.0312,2.7216,2.6698,2.6061,2.3615,2.4393,2.5767,2.7055,2.8398,3.0783,3.5234,3.6544,3.8007,4.059,4.1596,4.2074,4.2216,4.2884,4.3444,4.3771,4.3804,4.3851,4.4005,4.4005,4.4005,4.4005,4.4005,4.4005,4.4005,4.4036,4.4308,4.48,4.4915,4.5223,4.57,4.5765,4.5791,4.58,4.58,4.58,4.58,4.58,4.58,4.5819,4.6027,4.6111,4.6021,4.5266,4.5,4.4883,4.4121,4.4375,4.4883,4.4121,4.4453,4.5176,4.5172,4.5709,4.63,4.63,4.63,4.63,4.63,4.63,4.63,4.63,4.63,4.63,4.63,4.6091,4.5832,4.5651,4.4989,4.447,4.447,4.3162,4.2143,4.2143,4.1296,4.0662,4.0662,3.995,3.9411,3.9296,3.8623,3.8123,3.8007,3.6974,3.6363,3.6498,3.5323,3.4542,3.4418,3.4277,3.4074,3.3807,3.3807,3.3807,3.3807,3.3807,3.3807,3.3807,3.3807,3.3815,3.2614,3.4265,3.5484,3.5024,3.4478,3.3466,3.142,2.942,2.7428,2.5421,2.5115,2.4863,2.3794,2.5889,2.809,2.8914,3.082,3.3343,3.6696,3.7802,3.8943,4.0711,4.1041,4.1418,4.2115,4.232,4.2808,4.3719,4.3804,4.3851,4.4005,4.4005,4.4005,4.4005,4.4005,4.4005,4.4005,4.4221,4.4493,4.48,4.503,4.5342,4.57,4.5715,4.5761,4.58,4.58,4.58,4.58,4.58,4.58,4.5819,4.6027,4.6111,4.6021,4.5266,4.5,4.498,4.4824,4.4863,4.498,4.4824,4.5351,4.6074,4.6074,4.6184,4.63,4.63,4.63,4.63,4.63,4.63,4.63,4.63,4.63,4.63,4.63,4.6091,4.5832,4.5651,4.547,4.5355,4.5355,4.4528,4.3874,4.3874,4.2566,4.1566,4.1566,4.0816,4.0027,3.9373,3.9161,3.8777,3.8065,3.7009,3.6736,3.7568,3.578,3.4932,3.5496,3.467,3.4074,3.3807,3.3807,3.3807,3.3807,3.3807,3.3807,3.3807,3.3807,3.3921,3.2883,3.4272,3.534,3.4763,3.3193,3.1272,2.9533,2.7074,2.484,2.3684,2.384,2.3961,2.3264,2.533,2.7333,2.79,2.9418,3.1785,3.5439,3.6461,3.7767,4.0339,4.1173,4.1839,4.2498,4.2732,4.3124,4.3771,4.3804,4.3851,4.4005,4.4005,4.4005,4.4005,4.4005,4.4005,4.4005,4.4279,4.4519,4.48,4.5074,4.5381,4.57,4.57,4.5727,4.58,4.58,4.58,4.58,4.58,4.5838,4.593,4.6046,4.6125,4.6115,4.5785,4.5683,4.5605,4.5156,4.5293,4.5605,4.5156,4.5586,4.6308,4.6308,4.6307,4.63,4.6306,4.63,4.63,4.63,4.63,4.63,4.63,4.6245,4.6176,4.6105,4.5949,4.5802,4.5618,4.5586,4.5586,4.5586,4.4874,4.4162,4.3739,4.2604,4.1643,4.1181,4.0758,4.0335,3.9969,3.9912,3.9758,3.9335,3.8043,3.7421,3.7865,3.609,3.504,3.5112,3.4622,3.4184,3.3807,3.3807,3.3807,3.3807,3.3807,3.3807,3.3807,3.3807,3.3868,3.2709,3.4172,3.531,3.4472,3.1968,2.9337,2.7997,2.5289,2.2965,2.249,2.3039,2.342,2.2922,2.4562,2.6191,2.6691,2.7632,2.9696,3.3589,3.4853,3.6539,3.9771,4.1381,4.2378,4.2844,4.3196,4.3497,4.3771,4.3837,4.3883,4.4005,4.4005,4.4005,4.4005,4.4005,4.4036,4.4079,4.4346,4.4624,4.4872,4.518,4.5438,4.57,4.5715,4.5761,4.58,4.58,4.58,4.58,4.5819,4.5896,4.6007,4.6085,4.6143,4.621,4.628,4.6308,4.6191,4.5527,4.5723,4.6191,4.5508,4.5742,4.6308,4.6308,4.6308,4.6307,4.6293,4.6303,4.63,4.63,4.63,4.63,4.63,4.6206,4.6057,4.593,4.5847,4.5757,4.562,4.5586,4.5586,4.5586,4.5028,4.4297,4.347,4.2624,4.1758,4.0893,4.0623,4.0489,4.0489,4.0489,4.0489,4.0489,3.9123,3.8324,3.8454,3.6638,3.5446,3.5162,3.4739,3.4307,3.3895,3.3815,3.3807,3.3807,3.3807,3.3815,3.3895,3.3895,3.3947,3.1764,3.3691,3.519,3.3903,3.1276,2.8636,2.7293,2.4611,2.2393,2.2389,2.3039,2.3591,2.3607,2.4964,2.635,2.7106,2.79,2.9472,3.2614,3.4658,3.671,3.9135,4.1061,4.2378,4.2844,4.292,4.3196,4.3771,4.3897,4.3974,4.4005,4.4005,4.4005,4.4005,4.4005,4.4121,4.4374,4.4624,4.4896,4.518,4.5495,4.5671,4.57,4.5765,4.5791,4.58,4.58,4.58,4.58,4.593,4.5988,4.6007,4.6143,4.6201,4.621,4.628,4.6308,4.6289,4.6211,4.623,4.6289,4.6211,4.623,4.6308,4.6308,4.6307,4.6303,4.6301,4.6293,4.63,4.63,4.63,4.63,4.63,4.6206,4.6057,4.593,4.5847,4.5757,4.562,4.5586,4.5586,4.5586,4.5528,4.5182,4.4316,4.3508,4.2662,4.1797,4.0989,4.0489,4.0489,4.0489,4.0489,4.0489,3.9681,3.9492,4.0213,3.7878,3.6695,3.7204,3.5466,3.4375,3.4173,3.3921,3.3807,3.3807,3.3807,3.3921,3.4173,3.4173,3.439,3.0982,3.3151,3.4562,3.323,3.0528,2.7838,2.66,2.3861,2.171,2.2231,2.2615,2.3022,2.3551,2.4597,2.5725,2.6725,2.7121,2.8281,3.1017,3.1948,3.3899,3.8096,3.9508,4.0955,4.305,4.3268,4.341,4.3771,4.3929,4.4005,4.4005,4.4005,4.4005,4.4005,4.4151,4.4289,4.4383,4.4825,4.5096,4.5201,4.555,4.5706,4.57,4.5765,4.581,4.58,4.58,4.58,4.58,4.5949,4.6021,4.6075,4.6171,4.621,4.627,4.6285,4.6308,4.6308,4.6308,4.6308,4.6308,4.6308,4.6308,4.6308,4.6308,4.6305,4.629,4.629,4.6306,4.63,4.63,4.63,4.6277,4.6206,4.6084,4.5959,4.5859,4.5752,4.5651,4.5603,4.5586,4.5586,4.5586,4.5586,4.5297,4.4432,4.3624,4.2797,4.1912,4.1046,4.0489,4.0489,4.0489,4.0489,4.0489,3.9758,3.9415,3.9711,3.7763,3.6638,3.6711,3.5437,3.4792,3.4903,3.434,3.4186,3.4523,3.4186,3.4099,3.4197,3.4325,3.4483,2.931,3.155,3.3036,3.1928,2.9402,2.6881,2.5858,2.3287,2.1368,2.2163,2.2366,2.2722,2.3807,2.4499,2.5345,2.6707,2.694,2.7659,2.9781,3.0427,3.2242,3.6548,3.7837,3.9567,4.2509,4.329,4.3652,4.3837,4.3929,4.4005,4.4005,4.4005,4.4005,4.4005,4.4279,4.4438,4.4519,4.4966,4.5243,4.5322,4.5566,4.5703,4.57,4.5761,4.5805,4.58,4.58,4.5819,4.5858,4.5988,4.6072,4.6143,4.6192,4.6254,4.6308,4.6308,4.6308,4.6308,4.6308,4.6308,4.6308,4.6308,4.6308,4.6308,4.6308,4.6303,4.63,4.63,4.63,4.63,4.63,4.63,4.6269,4.6138,4.5996,4.5867,4.5822,4.57,4.5586,4.5586,4.5586,4.5586,4.5586,4.5586,4.5297,4.4432,4.3624,4.2797,4.1912,4.1258,4.0777,4.0527,4.0719,4.0777,4.0508,3.9969,3.9642,3.9592,3.7936,3.6996,3.7051,3.5894,3.5488,3.5965,3.5352,3.5213,3.5584,3.5213,3.5053,3.5165,3.5284,3.539,2.6246,2.8481,3.0387,2.9759,2.774,2.5741,2.5067,2.3058,2.1524,2.2248,2.2405,2.292,2.4567,2.4888,2.5518,2.7379,2.7683,2.8082,2.9169,3.098,3.277,3.4335,3.6291,3.8469,4.091,4.2765,4.3837,4.3897,4.3942,4.4005,4.4005,4.4005,4.4005,4.4005,4.4279,4.4519,4.4776,4.5074,4.5342,4.5586,4.5668,4.57,4.5715,4.5771,4.58,4.58,4.58,4.5877,4.6007,4.6065,4.6143,4.6197,4.6277,4.6308,4.6308,4.6308,4.6308,4.6308,4.6308,4.6308,4.6308,4.6308,4.6308,4.6308,4.6308,4.6303,4.63,4.63,4.63,4.63,4.63,4.63,4.6269,4.6138,4.5996,4.5867,4.5822,4.57,4.5586,4.5586,4.5586,4.5586,4.5586,4.5586,4.5297,4.4432,4.3624,4.2797,4.1912,4.1797,4.147,4.0585,4.1277,4.145,4.0566,4.0489,4.0489,4.0489,3.885,3.823,3.9035,3.7147,3.6481,3.7354,3.7106,3.6957,3.6975,3.6957,3.7106,3.7373,3.7373,3.749,2.4273,2.6234,2.7679,2.7036,2.5648,2.4298,2.3737,2.2335,2.1385,2.2163,2.2366,2.2739,2.3824,2.4666,2.5551,2.6753,2.7717,2.8345,2.8441,3.062,3.2998,3.5121,3.9127,4.1948,4.272,4.3439,4.3883,4.3915,4.3942,4.4005,4.4005,4.4162,4.426,4.426,4.4519,4.48,4.5074,4.5342,4.5513,4.5586,4.5668,4.57,4.5715,4.5771,4.58,4.58,4.58,4.5877,4.6021,4.6074,4.615,4.6216,4.6277,4.6308,4.6308,4.6308,4.6308,4.6308,4.6308,4.6308,4.6308,4.6308,4.6308,4.6308,4.6308,4.6306,4.6295,4.6303,4.63,4.63,4.63,4.624,4.6138,4.5996,4.5906,4.5789,4.57,4.5637,4.5586,4.5586,4.5586,4.5586,4.5586,4.5586,4.5509,4.522,4.3989,4.3201,4.347,4.2508,4.17,4.1412,4.2162,4.2085,4.0604,4.0489,4.0489,4.0489,3.9423,3.8876,3.9092,3.7919,3.7547,3.8205,3.7595,3.7489,3.7873,3.747,3.7393,3.7622,3.7622,3.764,2.2342,2.3912,2.5016,2.4642,2.39,2.3176,2.2742,2.2004,2.1538,2.218,2.2542,2.3022,2.3886,2.4936,2.5995,2.701,2.7976,2.8685,2.8861,3.0902,3.3377,3.6133,4.0157,4.2713,4.2811,4.3463,4.3897,4.3929,4.3974,4.4048,4.4151,4.4318,4.4493,4.4701,4.4872,4.503,4.5201,4.5476,4.5586,4.5586,4.5668,4.57,4.5715,4.5771,4.58,4.58,4.5838,4.5949,0.0,4.6102,4.6173,4.6236,4.6278,4.6308,4.6308,4.6308,4.6308,4.6308,4.6308,4.6308,4.6308,4.6308,4.6308,4.6308,4.6308,4.6307,4.63,4.6306,4.63,4.63,4.63,4.6206,4.6064,4.593,4.5847,4.5757,4.5637,4.5586,4.5586,4.5586,4.5586,4.5586,4.5586,4.5586,4.5586,4.5586,4.4432,4.372,4.4239,4.3393,4.2624,4.2316,4.3047,4.2989,4.1604,4.1181,4.0854,4.0508,3.9653,3.9298,3.9591,3.8718,3.8555,3.9239,3.8745,3.8686,3.905,3.8686,3.8556,3.8686,3.8686,3.8686,0.0,2.1639,2.2499,2.255,2.2462,2.2316,2.2075,2.1921,0.0,2.2225,2.2852,2.3587,2.4509,2.5524,2.6602,2.779,2.8288,2.8923,3.0009,3.1763,3.4137,3.7456,3.9933,4.1396,4.1489,4.2952,4.3929,4.4005,4.4036,4.4151,4.4402,4.4438,4.4701,4.518,4.5222,4.5222,4.5222,4.5476,4.5586,4.5622,4.5668,4.57,4.5715,4.5771,4.58,4.5819,4.5949,4.6046,4.6104,4.6181,4.6247,4.6308,4.6308,4.6308,4.6308,4.6308,4.6308,4.6308,4.6308,4.6308,4.6308,4.6308,4.6308,4.6308,4.6308,4.6307,4.63,4.6306,4.63,4.63,4.6296,4.6181,4.6049,4.592,4.5835,4.5742,4.5637,4.5586,4.5586,4.5586,4.5586,4.5586,4.5586,4.5586,4.5586,4.5586,4.4855,4.4316,4.4374,4.4335,4.4008,4.3278,4.3912,4.4047,4.3162,4.2297,4.145,4.0642,3.9733,3.9553,4.0377,3.9562,3.947,4.0291,4.031,4.031,4.031,4.031,4.031,4.031,4.031,4.031,1.9879,0.0,2.0504,2.0504,2.0788,2.1104,0.0,2.1577,2.1886,2.2225,2.2474,2.2767,2.3275,2.4547,2.5791,2.6525,2.7543,2.8604,2.974,3.3393,3.7046,3.9937,4.1995,4.2733,4.1527,4.2965,4.3974,4.4005,4.4192,4.4346,4.4402,4.48,4.5074,4.5201,4.54,4.5513,4.5513,4.5568,4.5622,4.5693,4.5684,4.5715,4.5781,4.5786,4.5858,4.5949,4.5988,4.6065,4.6181,4.6201,4.6247,4.6308,4.6308,4.6308,4.6308,4.6308,4.6308,4.6308,4.6308,4.6308,4.6308,4.6308,4.6308,4.6308,4.6297,4.6297,4.63,4.6306,4.63,4.6273,4.6176,4.6049,4.5929,4.5854,4.5723,4.5637,4.5603,4.5586,4.5586,4.5586,4.5586,4.5586,4.5586,4.5586,4.5586,4.5586,4.4855,4.4528,4.5201,4.4701,4.422,4.4047,4.4778,4.4701,4.322,4.2297,4.172,4.1508,4.0665,4.0233,4.0396,4.0189,4.0135,4.031,4.031,4.031,4.031,4.031,4.031,4.031,4.031,4.031,1.9812,1.9848,1.9869,2.01,2.0514,2.0926,2.1323,2.1751,2.2077,2.2254,0.0,2.3102,2.3677,2.4607,2.5685,2.6882,2.7479,2.8546,3.0763,3.3952,3.7229,4.0289,4.1507,4.2229,4.2563,4.3441,4.4005,4.4005,4.425,4.4438,4.4572,4.4985,4.5243,4.5381,4.5513,4.5586,4.5586,4.564,4.5657,4.5709,4.5719,4.5765,4.5815,4.5863,4.593,4.6007,4.6065,4.591,4.5653,4.6075,4.6026,4.5742,4.6133,4.6308,4.6308,4.6308,4.6308,4.6308,4.6308,4.6308,4.6308,4.6308,4.6308,4.6308,4.629,4.6306,4.6287,4.6231,4.6201,4.6176,4.6049,4.5929,4.5835,4.5808,4.57,4.5586,4.5586,4.5586,4.5586,4.5586,4.5586,4.5586,4.5586,4.5586,4.5586,4.5586,4.5201,4.5066,4.5528,4.5182,4.4893,4.4893,4.5316,4.5066,4.3758,4.2874,4.2239,4.1835,4.1338,4.0847,4.0435,4.0362,4.0345,4.031,4.031,4.031,4.031,4.031,4.031,4.031,4.031,4.031,2.0005,1.9919,1.9975,2.0462,2.0862,2.1244,2.1691,0.0,0.0,0.0,0.0,0.0,0.0,2.5027,2.6001,2.7736,2.8345,2.974,3.3038,3.4926,3.7051,3.9963,4.0498,4.1459,4.3435,4.3856,4.4036,4.4048,4.4318,4.4572,4.4849,4.5137,4.5381,4.5586,4.5586,4.5528,4.5393,4.5599,4.5709,4.569,4.577,4.5815,4.5795,4.5786,4.5808,4.5829,4.5944,4.5506,4.4788,4.5718,4.5586,4.4883,4.5762,4.6094,4.6113,4.625,4.6308,4.6289,4.6152,4.6094,4.6094,4.6094,4.6191,4.6307,4.6293,4.6296,4.6236,4.6115,4.6068,4.6076,4.5929,4.5835,4.58,4.5771,4.5684,4.5586,4.5586,4.5586,4.5586,4.5586,4.5586,4.5586,4.5586,4.5586,4.5586,4.5586,4.5586,4.5586,4.5586,4.5586,4.5586,4.5586,4.5586,4.524,4.4374,4.3682,4.2912,4.2047,4.1706,4.1176,4.0435,4.0344,4.0308,4.031,4.031,4.031,4.031,4.031,4.031,4.031,4.031,4.031,2.008,2.008,2.0135,2.0496,2.0942,2.1354,2.1721,2.2106,0.0,0.0,0.0,0.0,0.0,2.4898,2.6523,2.7373,3.1166,3.4816,3.7168,3.9209,4.0628,4.1126,4.2445,4.2952,4.1964,4.3175,4.4091,4.4318,4.4599,4.4868,4.5118,4.54,4.5568,4.5586,4.5586,4.524,4.4509,4.5291,4.5706,4.57,4.5765,4.581,4.578,4.5167,4.4928,4.4993,4.5059,4.4637,4.3954,4.4843,4.4687,4.3984,4.4863,4.5195,4.5293,4.6035,4.6308,4.6191,4.5469,4.5195,4.5195,4.5195,4.5699,4.629,4.6297,4.6221,4.6107,4.5979,4.6005,4.6068,4.5866,4.5808,4.5771,4.5651,4.562,4.5586,4.5586,4.5586,4.5586,4.5586,4.5586,4.5586,4.5586,4.5586,4.5586,4.5586,4.5586,4.5586,4.5586,4.5586,4.5586,4.5586,4.5586,4.524,4.4374,4.4182,4.3778,4.2951,4.1508,4.0595,4.0415,4.0344,4.0308,4.031,4.031,4.031,4.031,4.031,4.031,4.031,4.031,4.031,2.0426,2.0512,2.0597,2.091,2.1182,2.1509,2.2003,2.2304,2.246,0.0,0.0,0.0,2.3537,2.4883,2.6819,2.965,3.3366,3.6251,3.7224,3.8538,3.9734,4.07,4.1489,4.2187,4.2773,4.3692,4.4279,4.4402,4.4776,4.5074,4.5201,4.4997,4.4893,4.4893,4.447,4.4064,4.3657,4.411,4.4585,4.5044,4.5641,4.565,4.52,4.4935,4.4576,4.4169,4.4219,4.3771,4.3066,4.3945,4.3789,4.3125,4.4473,4.4707,4.4355,4.4746,4.5195,4.5469,4.4609,4.4902,4.5625,4.5151,4.559,4.6296,4.6216,4.6151,4.6054,4.5883,4.5883,4.5902,4.5742,4.57,4.5668,4.562,4.5586,4.5586,4.5586,4.5586,4.5586,4.5586,4.5586,4.5586,4.5586,4.5586,4.5586,4.5586,4.5586,4.5586,4.5586,4.5586,4.5586,4.5586,4.5586,4.5066,4.3758,4.4047,4.3951,4.3143,4.2319,4.1843,4.181,4.1299,4.0996,4.0997,4.0539,4.031,4.031,4.031,4.031,4.031,4.031,4.031,2.0595,2.0778,2.0958,2.1245,2.1432,2.1741,2.2394,2.2824,2.3072,2.3072,2.3402,2.3798,2.4069,2.5455,2.7994,3.2391,3.5505,3.747,3.7637,3.8386,3.9312,4.0463,4.0603,4.1356,4.3316,4.368,4.3874,4.3988,4.4372,4.4648,4.4709,4.4267,4.4028,4.4028,4.3412,4.3006,4.2822,4.3061,4.3535,4.421,4.5017,4.5045,4.4394,4.4322,4.3935,4.3291,4.3377,4.291,4.2187,4.3047,4.2891,4.2266,4.3808,4.4101,4.3691,4.3691,4.3984,4.4297,4.3633,4.4277,4.5271,4.4611,4.4972,4.5707,4.5806,4.5796,4.5755,4.5808,4.578,4.5727,4.5637,4.5451,4.5336,4.5547,4.5432,4.5336,4.5547,4.5586,4.5586,4.5586,4.5586,4.5586,4.5586,4.5586,4.5586,4.5586,4.5586,4.5586,4.5586,4.5586,4.5586,4.5586,4.5586,4.4989,4.3508,4.3951,4.4047,4.3412,4.3148,4.3015,4.2996,4.2294,4.1799,4.1608,4.0921,4.0501,4.031,4.031,4.031,4.031,4.031,4.031,2.0339,2.0613,2.0991,2.1324,2.1675,2.2137,2.2792,2.3892,2.4734,2.4734,2.5911,2.6407,2.4523,2.7205,3.0848,3.45,3.7887,4.0285,4.1045,4.1883,4.2203,4.159,4.1516,4.1669,4.2013,4.2085,4.2272,4.2787,4.2868,4.3006,4.3244,4.322,4.3181,4.3181,4.3124,4.2736,4.1994,4.2791,4.3226,4.3294,4.349,4.3543,4.3465,4.28,4.2444,4.2408,4.2459,4.2031,4.1348,4.2168,4.2012,4.1367,4.2246,4.3047,4.3691,4.3691,4.3223,4.2578,4.2519,4.2574,4.2675,4.2614,4.318,4.4036,4.4832,4.491,4.487,4.5675,4.5756,4.5603,4.5603,4.4989,4.4605,4.5413,4.497,4.4624,4.5432,4.5586,4.5586,4.5586,4.5586,4.5586,4.5586,4.5586,4.5586,4.5586,4.5586,4.5586,4.5586,4.5586,4.5586,4.5586,4.5586,4.522,4.4297,4.4259,4.4278,4.422,4.3508,4.3069,4.2996,4.2886,4.243,4.1627,4.1495,4.1055,4.031,4.031,4.031,4.031,4.031,4.031,2.0663,2.1087,2.1462,2.1507,2.1998,0.0,0.0,2.4218,2.4838,2.431,2.6069,2.7706,2.7777,2.9594,3.2164,3.5573,3.8035,4.002,4.1393,4.1839,4.1943,4.1627,4.1726,4.1827,4.1897,4.22,4.2471,4.2677,4.2833,4.2981,4.3085,4.2585,4.2297,4.2297,4.1793,4.1166,4.0347,4.0679,4.061,4.0172,4.2402,4.3214,4.2717,4.2463,4.21,4.1613,4.1634,4.1484,4.1211,4.1523,4.1465,4.123,4.1523,4.2168,4.2832,4.2324,4.2246,4.2324,4.1836,4.2339,4.3121,4.2575,4.2985,4.3736,4.3936,4.3936,4.3906,4.4098,4.4103,4.4162,4.4662,4.4547,4.4374,4.4701,4.4528,4.4528,4.5413,4.5586,4.5586,4.5586,4.5586,4.5586,4.5586,4.5586,4.5586,4.5586,4.5586,4.5586,4.5586,4.5586,4.5586,4.5586,4.5124,4.4874,4.5086,4.4605,4.4528,4.5066,4.4816,4.4393,4.3838,4.323,4.2505,4.1682,4.1055,4.0597,4.031,4.031,4.031,4.031,4.031,4.031,2.0926,2.1415,2.1781,2.1777,0.0,0.0,2.423,2.5131,2.5712,2.5685,2.7162,2.8909,3.0487,3.1513,3.311,3.6152,3.8238,3.99,4.1051,4.1219,4.1107,4.0828,4.1006,4.118,4.1237,4.1651,4.1839,4.1647,4.1807,4.1777,4.1508,4.0927,4.06,4.06,4.0092,3.9557,3.9039,3.9013,3.8788,3.8361,4.0778,4.177,4.1519,4.1577,4.1465,4.1191,4.1191,4.1191,4.1191,4.1191,4.1191,4.1191,4.1191,4.1543,4.1953,4.1406,4.1542,4.1911,4.1365,4.1925,4.2789,4.2184,4.2399,4.2893,4.3045,4.3033,4.3022,4.3162,4.3146,4.3162,4.3431,4.3701,4.3989,4.4239,4.4297,4.4528,4.5413,4.5586,4.5586,4.5586,4.5586,4.5586,4.5586,4.5586,4.5586,4.5586,4.5586,4.5586,4.5586,4.5586,4.5586,4.5586,4.5066,4.4951,4.5547,4.5047,4.4951,4.5547,4.5586,4.5184,4.4338,4.3672,4.2793,4.1682,4.1017,4.0559,4.031,4.031,4.031,4.031,4.031,4.031,2.1023,2.1446,2.184,2.2039,0.0,0.0,2.5764,2.6713,2.7777,2.9462,2.9722,3.0215,3.2161,3.2791,3.3814,3.6296,3.8748,4.0364,4.0383,4.0383,4.0067,3.9194,3.9331,3.9585,3.9757,4.0023,3.9923,3.9335,3.9277,3.8911,3.8046,3.7998,3.8007,3.8007,3.8073,3.8132,3.8189,3.8183,3.8254,3.8373,3.8446,3.8948,3.9797,3.9864,4.0351,4.1191,4.1191,4.1191,4.1191,4.1191,4.1191,4.1191,4.1191,4.1191,4.1191,4.1191,4.1167,4.1108,4.1108,4.1108,4.1108,4.1108,4.1108,4.1264,4.2123,4.2241,4.2277,4.3131,4.3227,4.2874,4.2008,4.245,4.3297,4.4105,4.4297,4.4528,4.5413,4.5586,4.5586,4.5586,4.5586,4.5586,4.5586,4.5586,4.5586,4.5586,4.5586,4.5586,4.5586,4.5586,4.5586,4.5586,4.5586,4.5586,4.5586,4.5586,4.5586,4.5586,4.5531,4.513,4.4323,4.4211,4.3369,4.1627,4.1533,4.1094,4.031,4.031,4.031,4.031,4.031,4.031,2.1554,2.1899,2.222,2.2304,2.3072,2.4184,2.5764,2.6281,2.7378,3.0665,3.0494,3.0545,3.3204,3.3771,3.429,3.5627,3.7411,3.8841,3.9398,3.9491,3.9239,3.8539,3.8696,3.8715,3.829,3.8506,3.8577,3.8411,3.8392,3.8272,3.7998,3.7998,3.8031,3.8073,3.8086,3.7861,3.7365,3.7358,3.7112,3.6632,3.6671,3.7469,3.897,3.8981,3.9453,4.0293,4.0293,4.0625,4.1191,4.1191,4.084,4.0351,4.0957,4.1191,4.1191,4.1191,4.1167,4.1108,4.1108,4.1108,4.1108,4.1108,4.1108,4.1121,4.1234,4.1224,4.1208,4.1326,4.1316,4.12,4.095,4.1989,4.3162,4.3393,4.3893,4.4528,4.5413,4.5586,4.5586,4.5586,4.5586,4.5586,4.5586,4.5586,4.5586,4.5586,4.5586,4.5586,4.5586,4.5586,4.5586,4.5586,4.5586,4.5586,4.5586,4.5586,4.5336,4.472,4.5204,4.4861,4.3457,4.3291,4.2412,4.0709,4.0673,4.054,4.031,4.031,4.031,4.031,4.031,4.031,2.2003,2.2237,2.2473,2.2873,2.3618,2.4678,2.6286,2.7678,2.9457,3.2403,3.2073,3.1989,3.429,3.442,3.4494,3.5349,3.6575,3.7578,3.8079,3.8215,3.814,3.7764,3.8007,3.8061,3.7677,3.7862,3.7719,3.706,3.7002,3.6862,3.6556,3.6234,3.6228,3.6633,3.6658,3.6458,3.6014,3.6377,3.6342,3.5908,3.5927,3.6514,3.7578,3.793,3.8555,3.9375,3.9375,3.9687,4.0176,4.0176,3.9863,3.9434,3.9959,4.0387,4.068,4.0682,4.0853,4.1108,4.1108,4.1108,4.1108,4.1108,4.1108,4.1078,4.0921,4.0837,4.0771,4.061,4.0549,4.0489,4.0489,4.1546,4.2662,4.3028,4.397,4.4951,4.549,4.5586,4.5586,4.5568,4.5568,4.5568,4.5568,4.5568,4.5568,4.5605,4.5586,4.5586,4.5586,4.5586,4.5586,4.5586,4.5586,4.5586,4.5568,4.5586,4.5222,4.4322,4.4708,4.421,4.2522,4.266,4.201,4.0328,4.031,4.031,4.031,4.031,4.031,4.031,4.031,4.031,2.2349,2.2432,2.2658,2.3588,2.4574,2.5749,2.7313,3.0106,3.2727,3.4039,3.3884,3.3945,3.5254,3.4847,3.4569,3.5367,3.6166,3.6686,3.6686,3.6876,3.6963,3.6911,3.726,3.7465,3.7405,3.7552,3.6983,3.5393,3.5271,3.4956,3.4229,3.3492,3.3454,3.4272,3.4348,3.4378,3.4406,3.5248,3.5667,3.5669,3.5728,3.5756,3.5801,3.6758,3.7656,3.8496,3.8574,3.8555,3.8496,3.8574,3.8555,3.8496,3.8563,3.9078,3.9783,3.9871,4.0318,4.0893,4.1049,4.1049,4.0971,4.0971,4.103,4.1062,4.0908,4.0832,4.0781,4.0699,4.0588,4.0489,4.0489,4.1143,4.2027,4.2893,4.4316,4.549,4.5566,4.5605,4.5568,4.5513,4.5495,4.5495,4.5495,4.5513,4.5531,4.5586,4.5586,4.5586,4.5586,4.5586,4.5586,4.5586,4.5586,4.5568,4.5495,4.555,4.5186,4.425,4.4269,4.3541,4.178,4.2336,4.1915,4.0329,4.031,4.031,4.031,4.031,4.031,4.031,4.031,4.031,2.2605,2.2632,2.2804,2.3598,2.5883,2.8106,2.8834,3.0451,3.2013,3.2571,3.3287,3.4152,3.5305,3.533,3.5274,3.546,3.6166,3.6686,3.6686,3.6876,3.6825,3.634,3.6502,3.6198,3.5062,3.5001,3.4604,3.3619,3.3542,3.3477,3.3357,3.3134,3.3153,3.3448,3.3426,3.3484,3.363,3.3834,3.3946,3.3947,3.3947,3.3958,3.4004,3.5566,3.6758,3.7617,3.8301,3.8203,3.7637,3.832,3.8203,3.7656,3.8329,3.871,3.8963,3.9647,3.9588,3.9334,4.0639,4.0659,4.0073,4.0073,4.0542,4.0941,4.0089,4.0284,4.0752,4.0582,4.0519,4.0489,4.0489,4.1143,4.2027,4.2893,4.3855,4.4759,4.5451,4.5568,4.5513,4.5495,4.5495,4.5495,4.5495,4.5531,4.5586,4.5586,4.5586,4.5586,4.5586,4.5586,4.5586,4.5513,4.5513,4.5495,4.5419,4.5438,4.5074,4.425,4.4787,4.4365,4.2604,4.2049,4.1323,4.0329,4.031,4.031,4.031,4.031,4.031,4.031,4.031,4.031,2.2825,2.2884,2.3168,2.3937,2.6352,2.8581,2.891,3.0351,3.1656,3.1816,3.2632,3.3633,3.4693,3.455,3.442,3.481,3.4569,3.4524,3.4992,3.4921,3.4735,3.4505,3.4652,3.4457,3.3692,3.3627,3.3292,3.2497,3.2439,3.2431,3.2482,3.2085,3.2085,3.2608,3.2627,3.2695,3.2822,3.3218,3.3392,3.3398,3.3398,3.3398,3.3437,3.4766,3.5859,3.6699,3.7168,3.7109,3.6719,3.7165,3.7084,3.6713,3.717,3.7614,3.8024,3.8492,3.8629,3.8729,3.9605,3.9605,3.9234,3.9234,3.977,4.0301,3.9688,4.0092,4.0715,4.0545,4.0489,4.0489,4.0489,4.0835,4.1508,4.2797,4.3701,4.4528,4.5413,4.5568,4.555,4.5513,4.5495,4.5495,4.5495,4.5531,4.555,4.555,4.5513,4.5495,4.5495,4.5495,4.5495,4.5476,4.5438,4.5438,4.54,4.54,4.5036,4.4154,4.4537,4.4172,4.2852,4.2355,4.1724,4.0883,4.0864,4.0692,4.031,4.031,4.031,4.031,4.031,4.031,2.3067,2.33,2.3702,2.4421,2.6483,2.8352,2.837,2.9887,3.1299,3.1341,3.1992,3.2798,3.3634,3.3231,3.3008,3.3677,3.2701,3.2139,3.2983,3.2732,3.2507,3.2679,3.2872,3.2964,3.2814,3.2794,3.2458,3.166,3.1583,3.1535,3.1391,3.0752,3.0694,3.1313,3.1545,3.1683,3.1758,3.2559,3.2969,3.2969,3.2969,3.3047,3.3223,3.3945,3.4746,3.5547,3.5547,3.5644,3.578,3.5786,3.5854,3.5991,3.5991,3.6443,3.7087,3.7243,3.7653,3.818,3.8495,3.8495,3.8375,3.8349,3.8965,3.963,3.9353,3.9943,4.0668,4.0534,4.0489,4.0489,4.0489,4.0489,4.0893,4.2508,4.3374,4.4182,4.5336,4.5586,4.5568,4.5513,4.5495,4.5495,4.5495,4.5495,4.5495,4.5495,4.5438,4.54,4.54,4.54,4.54,4.54,4.54,4.54,4.5379,4.538,4.5054,4.4265,4.4286,4.398,4.3252,4.3233,4.2756,4.1743,4.1571,4.1094,4.031,4.031,4.031,4.031,4.031,4.031,2.3518,2.3983,2.4567,2.4865,2.673,2.8377,2.7976,2.9191,3.0438,3.0676,3.137,3.1964,3.2098,3.2024,3.1987,3.2098,3.2091,3.2125,3.2238,3.2492,3.267,3.2704,3.2891,3.2736,3.2025,3.1959,3.1621,3.082,3.0762,3.0443,2.9669,2.9602,2.9295,2.8718,2.9439,2.9875,2.9941,3.0801,3.123,3.123,3.123,3.1621,3.2363,3.248,3.2988,3.375,3.375,3.4177,3.4864,3.4861,3.5327,3.5991,3.5991,3.6069,3.6267,3.7028,3.6891,3.656,3.8082,3.8102,3.7455,3.7337,3.8389,3.9526,3.8567,3.9417,4.0668,4.0534,4.0489,4.0489,4.0489,4.0489,4.0739,4.1739,4.2066,4.2777,4.5086,4.5549,4.5513,4.5495,4.5438,4.5438,4.5495,4.5438,4.5419,4.5419,4.54,4.54,4.54,4.54,4.54,4.5399,4.5399,4.5379,4.5317,4.5298,4.526,4.5125,4.5145,4.5107,4.4972,4.4972,4.4227,4.266,4.1877,4.1094,4.031,4.031,4.031,4.031,4.031,4.031,2.3941,2.4073,2.4241,2.4488,2.5661,2.6728,2.6648,2.7871,2.9058,2.9182,2.9872,3.0745,3.1615,3.1429,3.1309,3.1888,3.1297,3.0977,3.1621,3.1484,3.1354,3.146,3.1557,3.1476,3.1158,3.1139,3.0985,3.0636,3.0153,2.9727,2.937,2.8964,2.8573,2.8202,2.8612,2.884,2.8867,2.9258,2.9434,2.9453,3.043,3.084,3.0762,3.125,3.2187,3.3398,3.3398,3.361,3.4003,3.4507,3.4937,3.533,3.5818,3.5991,3.6049,3.6423,3.6325,3.6111,3.6872,3.6891,3.6554,3.645,3.7229,3.8175,3.8117,3.8949,4.0,4.0385,4.0489,4.0489,4.0489,4.0489,4.0719,4.1585,4.1797,4.2239,4.3855,4.4184,4.4301,4.4726,4.5169,4.5438,4.5457,4.5419,4.54,4.54,4.538,4.5341,4.5341,4.5341,4.5339,4.5338,4.5338,4.5338,4.5297,4.5297,4.5297,4.5297,4.5297,4.5297,4.5297,4.5297,4.4723,4.3501,4.266,4.159,4.031,4.031,4.031,4.031,4.031,4.031,2.4284,2.4135,2.4037,2.4229,2.4875,2.5522,2.5671,2.6804,2.7808,2.7808,2.8497,2.9429,3.0437,3.0495,3.0615,3.1412,3.0596,3.014,3.1,3.0657,3.0364,3.051,3.0337,3.0308,3.0578,3.0192,3.0037,3.025,2.9457,2.8896,2.8742,2.8194,2.7788,2.7565,2.7833,2.7969,2.7969,2.8184,2.8301,2.832,2.9629,3.0019,2.9628,3.0272,3.1366,3.2754,3.2753,3.2886,3.3127,3.3768,3.4295,3.4764,3.5428,3.5798,3.5991,3.5991,3.5991,3.5991,3.5991,3.5988,3.5955,3.5883,3.6355,3.7075,3.7595,3.8477,3.9431,4.0027,4.0335,4.0489,4.0489,4.0489,4.0662,4.1316,4.147,4.1835,4.3126,4.3395,4.3628,4.4438,4.5073,4.5457,4.5419,4.538,4.5359,4.5359,4.5338,4.5297,4.5297,4.5297,4.5297,4.5297,4.5297,4.5297,4.5297,4.5297,4.5297,4.5297,4.5297,4.5297,4.5297,4.5297,4.4895,4.4036,4.3424,4.2278,4.0597,4.0406,4.031,4.031,4.031,4.031,2.4482,2.4482,2.4482,2.4482,2.5077,2.569,2.5708,2.6358,2.6972,2.6972,2.7718,2.8166,2.7544,2.8704,2.9809,2.9997,3.0166,3.0292,3.0362,3.0488,3.0588,3.0598,2.9863,2.9689,3.052,2.9108,2.847,2.9302,2.8548,2.7735,2.6973,2.6967,2.6629,2.584,2.6629,2.707,2.707,2.7891,2.8301,2.8301,2.8398,2.8845,2.9591,2.965,3.0164,3.1031,3.1023,3.1465,3.2168,3.2226,3.3202,3.4705,3.4744,3.5271,3.5991,3.5991,3.5991,3.5991,3.5991,3.5951,3.5883,3.5753,3.6241,3.6891,3.6812,3.795,3.9296,3.9354,3.9912,4.0489,4.0489,4.0489,4.0508,4.0546,4.0566,4.1239,4.3707,4.4227,4.4477,4.5208,4.538,4.5399,4.5399,4.5338,4.5317,4.5317,4.5297,4.5297,4.5297,4.5297,4.5297,4.5297,4.5297,4.5297,4.5297,4.5297,4.5297,4.5297,4.5297,4.5297,4.5297,4.5297,4.4895,4.4036,4.3978,4.3119,4.1437,4.0673,4.031,4.031,4.031,4.031,2.45,2.4566,2.4631,2.4631,2.4837,2.5061,2.5061,2.5611,2.6154,2.6189,2.6932,2.7539,2.7426,2.8231,2.8831,2.8529,2.8574,2.8687,2.882,2.8888,2.8934,2.8934,2.8664,2.8586,2.8896,2.8373,2.8141,2.85,2.7707,2.7119,2.6871,2.6393,2.5993,2.5707,2.5992,2.6172,2.6172,2.7031,2.7187,2.6641,2.832,2.9001,2.8808,2.9921,3.0609,3.0905,3.0901,3.1055,3.1368,3.1895,3.2792,3.3925,3.4471,3.5232,3.5991,3.5991,3.5991,3.5991,3.5991,3.5985,3.5923,3.576,3.589,3.6193,3.6575,3.7526,3.8584,3.9142,3.9873,4.0489,4.0489,4.0489,4.0489,4.0489,4.0492,4.0883,4.2311,4.304,4.3463,4.3695,4.4193,4.4727,4.5243,4.5317,4.5297,4.5297,4.5297,4.5297,4.5297,4.5297,4.5297,4.5297,4.5297,4.5067,4.4513,4.4475,4.4475,4.4475,4.4475,4.4723,4.5277,4.5297,4.5144,4.4838,4.4303,4.3176,4.1495,4.1208,4.0807,4.031,4.031,4.031,2.466,2.4734,2.4808,2.4808,2.4808,2.4808,2.4808,2.5152,2.5483,2.5512,2.6264,2.6858,2.6747,2.735,2.784,2.7811,2.7796,2.7856,2.7978,2.7995,2.7995,2.7995,2.7735,2.7677,2.7976,2.7484,2.731,2.7641,2.6885,2.642,2.6494,2.5998,2.5701,2.5703,2.5703,2.5703,2.5703,2.6269,2.6269,2.5723,2.7753,2.8588,2.8344,2.9806,3.0606,3.088,3.088,3.088,3.0919,3.1446,3.2187,3.3046,3.3925,3.4803,3.5603,3.5896,3.5991,3.5991,3.5991,3.5958,3.588,3.5733,3.5678,3.5725,3.6157,3.6892,3.768,3.8257,3.9219,4.0085,4.0085,4.0296,4.0489,4.0492,4.071,4.0967,4.1184,4.1893,4.2603,4.3101,4.3655,4.4325,4.5165,4.5297,4.5297,4.5297,4.5297,4.5297,4.5297,4.5297,4.5297,4.5297,4.5297,4.4953,4.4074,4.4284,4.4322,4.4036,4.4284,4.4704,4.5277,4.5297,4.5297,4.5297,4.4723,4.3749,4.2335,4.2068,4.1514,4.0711,4.0711,4.0711,0.0,0.0,0.0,2.5006,2.5006,2.5006,2.5006,2.5006,2.5006,2.5006,2.5685,2.6044,2.5329,2.5956,2.6872,2.7788,2.7931,2.7937,2.7937,2.7937,2.7937,2.7937,2.7174,2.7,2.7832,2.6459,2.5859,2.6691,2.6046,2.5634,2.5708,2.5701,2.5707,2.5703,2.5703,2.5703,2.5703,2.5703,2.5703,2.5703,2.6571,2.7466,2.8334,2.9205,3.0038,3.0801,3.0801,3.0801,3.0801,3.0801,3.1309,3.2187,3.3027,3.3905,3.4803,3.5642,3.5971,3.5991,3.5991,3.588,3.5702,3.5693,3.5618,3.5507,3.5507,3.6065,3.6719,3.6738,3.7988,3.9296,3.9315,3.9912,4.0508,4.0499,4.1082,4.1414,4.0535,4.0977,4.203,4.3615,4.3978,4.4284,4.5125,4.5277,4.5297,4.5297,4.5297,4.5297,4.5297,4.5297,4.5297,4.5297,4.5297,4.4953,4.4074,4.4781,4.4895,4.4055,4.4781,4.5258,4.5297,4.5297,4.5297,4.5297,4.5297,4.4876,4.4055,4.3233,4.2393,4.1533,4.1533,4.1533,2.4981,0.0,0.0,0.0,0.0,0.0,2.5138,2.5068,2.5019,2.5049,2.5291,2.5463,2.5303,2.5551,2.5884,2.6152,2.618,2.6188,2.6188,2.6188,2.6188,2.6188,2.5975,2.5936,2.6169,2.5762,2.5614,2.5901,2.5764,2.5682,2.5701,2.5703,2.5694,2.5703,2.5703,2.5703,2.5703,2.5703,2.5702,2.5714,2.6587,2.7466,2.8327,2.9203,3.004,3.0801,3.0801,3.0801,3.0801,3.0801,3.1309,3.2129,3.2363,3.3378,3.4725,3.4979,3.5467,3.5991,3.5991,3.5923,3.5833,3.5737,3.5631,3.5558,3.5515,3.6065,3.6834,3.7469,3.843,3.9431,4.0008,4.0338,4.0499,4.0502,4.0605,4.0784,4.1168,4.0921,4.096,4.1991,4.3176,4.4093,4.4322,4.4876,4.5297,4.5297,4.5297,4.5297,4.5297,4.5297,4.5297,4.5297,4.5297,4.4953,4.4074,4.4227,4.4265,4.4036,4.4246,4.4647,4.5258,4.5297,4.5297,4.5297,4.5297,4.5182,4.4934,4.4093,4.3252,4.2431,4.2431,4.2431,0.0,0.0,0.0,2.5332,0.0,0.0,2.5332,2.5264,2.5222,2.5264,2.5303,2.534,2.5376,2.5448,2.5511,2.5511,2.5511,2.5511,2.5511,2.5511,2.5511,2.5511,2.5511,2.5511,2.5511,2.555,2.5607,2.5651,2.5683,2.5701,2.5703,2.5703,2.5703,2.5703,2.5703,2.5703,2.5703,2.5703,2.5702,2.5707,2.6585,2.7464,2.8323,2.9201,3.004,3.0801,3.0801,3.0801,3.0801,3.0801,3.1094,3.1582,3.1953,3.2714,3.369,3.4432,3.5009,3.5463,3.5834,3.5883,3.5757,3.5678,3.5609,3.5553,3.5501,3.5834,3.6315,3.6815,3.7834,3.9027,4.0204,4.0499,4.0502,4.0432,4.063,4.0863,4.1017,4.1208,4.1476,4.1953,4.2832,4.3615,4.394,4.4723,4.5297,4.5297,4.5297,4.5297,4.5297,4.5297,4.5163,4.48,4.5086,4.48,4.3596,4.415,4.4399,4.4036,4.4341,4.4762,4.5277,4.5297,4.5297,4.5297,4.5297,4.5297,4.5297,4.4781,4.4112,4.331,4.331,4.331,0.0,0.0,0.0,2.5511,2.5511,0.0,2.5511,2.5511,2.5511,2.5511,2.5511,2.5511,2.5511,2.5511,2.5511,2.5511,2.5511,2.5511,2.5511,2.5511,2.5511,2.5511,2.5511,2.5511,2.5511,2.5627,2.5704,2.5704,2.5707,2.5703,2.5703,2.5703,2.5703,2.5703,2.5703,2.5703,2.5703,2.5703,2.5701,2.5709,2.649,2.7366,2.8323,2.9103,2.9943,3.0801,3.0801,3.0801,3.0801,3.0801,3.0801,3.088,3.1641,3.2012,3.2285,3.3824,3.4425,3.4578,3.5435,3.5613,3.5472,3.5568,3.5565,3.5493,3.5493,3.5565,3.5661,3.5757,3.6988,3.8589,3.9999,4.0425,4.0449,4.0325,4.09,4.1284,4.0578,4.1533,4.2545,4.2641,4.2813,4.3138,4.3768,4.4666,4.5297,4.5297,4.5297,4.5297,4.5297,4.522,4.4895,4.4227,4.4743,4.459,4.3195,4.4437,4.4972,4.4188,4.4876,4.5297,4.5297,4.5297,4.5297,4.5297,4.5297,4.5297,4.5297,4.5297,4.4895,4.415,4.415,4.415,2.5484,2.5511,2.5511,2.5511,2.555,0.0,2.5588,2.5588,2.5588,2.5588,2.5588,2.5588,2.5588,2.5588,2.5588,2.5588,2.555,2.5511,2.5511,2.5511,2.5511,2.5511,2.5511,2.5511,2.5511,2.5627,2.5704,2.5704,2.5707,2.5703,2.5703,2.5703,2.5703,2.5703,2.5703,2.5703,2.5703,2.5698,2.5694,2.5698,2.5867,2.678,2.8303,2.8479,2.9377,3.0801,3.0801,3.0801,3.0801,3.0801,3.0801,3.0821,3.0997,3.1485,3.2126,3.2413,3.2961,3.3668,3.449,3.4678,3.4659,3.5375,3.5565,3.5493,3.5493,3.5949,3.6622,3.7315,3.8719,3.9931,3.9557,3.9931,4.0415,4.0325,4.0424,4.0673,4.1151,4.1017,4.0979,4.1628,4.2851,4.3615,4.3119,4.4284,4.5297,4.5297,4.5297,4.5297,4.5297,4.4685,4.4456,4.4991,4.4571,4.4418,4.4781,4.5105,4.522,4.5048,4.5201,4.5297,4.5297,4.5297,4.5297,4.5297,4.5297,4.5297,4.5297,4.5297,4.5201,4.5048,4.5048,4.5048,2.5511,2.553,2.5546,2.5544,2.5582,0.0,0.0,2.5601,2.5601,2.5601,2.5601,2.5601,2.5601,2.5601,2.5601,2.5601,2.5562,2.5557,2.5538,2.553,2.5511,2.555,2.5588,2.5608,2.5608,2.5657,2.5699,2.5699,2.5694,2.5703,2.5703,2.5703,2.5703,2.5703,2.5703,2.5703,2.5703,2.6131,2.6128,2.5714,2.614,2.68,2.7678,2.8108,2.9006,3.0216,3.0626,3.0801,3.0801,3.0801,3.0801,3.0801,3.0801,3.1047,3.1441,3.185,3.2233,3.273,3.3971,3.4332,3.4395,3.5263,3.5522,3.5493,3.5493,3.5795,3.6372,3.7642,3.8296,3.8685,3.9065,3.9454,3.9842,4.0212,4.031,4.0425,4.0807,4.0578,4.0425,4.0826,4.1896,4.2756,4.2794,4.3825,4.48,4.522,4.4934,4.4819,4.5239,4.4551,4.4169,4.4609,4.4647,4.4647,4.4647,4.5048,4.5297,4.5297,4.5297,4.5297,4.5297,4.5297,4.5297,4.5297,4.5297,4.5297,4.5297,4.5297,4.5297,4.5297,4.5297,4.5297,2.5531,2.5576,2.5622,2.5624,2.5616,2.5629,0.0,0.0,0.0,2.5626,2.5609,2.5612,2.5629,2.5626,2.5619,2.5625,2.5621,2.5624,2.5626,2.557,2.555,2.5596,2.5657,2.5701,2.5691,2.5696,2.5703,2.5703,2.5703,2.5703,2.5703,2.5703,2.5703,2.5703,2.5703,2.5703,2.5703,2.6406,2.6482,2.5963,2.649,2.7017,2.7524,2.8069,2.8869,2.9865,3.0528,3.0801,3.0801,3.0801,3.0799,3.0774,3.0774,3.0758,3.0784,3.1465,3.1635,3.1787,3.3459,3.399,3.4122,3.5161,3.5493,3.5565,3.5892,3.5872,3.6065,3.7565,3.7589,3.744,3.8572,3.9112,3.95,4.0157,4.031,4.031,4.031,4.031,4.031,4.031,4.0826,4.159,4.2622,4.3482,4.4303,4.5163,4.4571,4.4322,4.5182,4.4399,4.3902,4.4227,4.4723,4.4838,4.4303,4.4895,4.5297,4.5297,4.5297,4.5297,4.5297,4.5297,4.5297,4.5297,4.5297,4.5297,4.5297,4.5297,4.5297,4.5297,4.5297,4.5297,2.5587,2.5634,2.569,2.5687,2.5689,2.5683,2.5698,0.0,2.5683,2.5683,0.0,2.5698,2.5683,0.0,0.0,2.5691,2.5699,2.569,2.5683,2.5673,2.5662,2.5615,2.5665,2.5705,2.5693,2.5702,2.5697,2.5703,2.5703,2.5703,2.5703,2.5703,2.5703,2.5703,2.5703,2.5703,2.5703,2.58,2.6188,2.6831,2.6179,2.7054,2.9281,2.8615,2.9162,3.0665,3.0762,3.0801,3.0801,3.0801,3.0765,3.0715,3.0715,3.0715,3.0697,3.0673,3.0655,3.0869,3.2509,3.3057,3.3314,3.4968,3.5493,3.5795,3.7276,3.718,3.6757,3.7738,3.8439,3.8777,3.8191,3.9097,4.0192,4.0272,4.031,4.031,4.031,4.031,4.031,4.031,4.0368,4.0941,4.2526,4.3482,4.4303,4.5163,4.4571,4.4322,4.5182,4.3921,4.3501,4.4991,4.4551,4.4418,4.5105,4.5239,4.5297,4.5297,4.5297,4.5297,4.5297,4.5297,4.5297,4.5297,4.5297,4.5297,4.5297,4.5297,4.5297,4.5297,4.5297,4.5297,2.5654,2.5682,2.5703,2.5703,2.5703,2.5698,2.5709,2.5693,2.5698,2.57,0.0,0.0,0.0,0.0,0.0,0.0,2.5698,2.5702,2.5698,2.5702,2.5683,2.5664,2.5675,2.5705,2.5691,2.5702,2.5691,2.5697,2.5702,2.5703,2.5703,2.5703,2.5703,2.5703,2.5703,2.5703,2.5698,2.6203,2.6631,2.7001,2.6626,2.7034,2.811,2.8244,2.8674,2.9396,3.0372,3.0801,3.0801,3.0801,3.0765,3.0706,3.0656,3.0614,3.0583,3.0509,3.0482,3.0689,3.2326,3.2891,3.3199,3.493,3.5493,3.5718,3.6892,3.6661,3.6276,3.7623,3.7882,3.7874,3.8457,3.9097,3.9715,4.0177,4.031,4.031,4.031,4.031,4.031,4.031,4.031,4.0826,4.2507,4.308,4.3596,4.4418,4.4246,4.4322,4.5182,4.4246,4.3959,4.5163,4.4972,4.4895,4.5258,4.5297,4.5297,4.5297,4.5297,4.5297,4.5297,4.5297,4.5297,4.5297,4.5297,4.5297,4.5297,4.5297,4.5297,4.5297,4.5297,4.5297,2.5703,2.5701,2.5707,2.5707,2.5693,2.5696,2.5709,2.5707,2.5709,2.5697,2.5693,0.0,0.0,0.0,2.5709,2.5697,0.0,2.5697,2.5697,2.5693,2.5691,2.5697,2.5693,2.5696,2.5703,2.5697,2.5707,2.5707,2.5698,2.5703,2.5703,2.5703,2.5703,2.5703,2.5703,2.5702,2.5707,2.6332,2.6878,2.7344,2.6878,2.7132,2.8049,2.8225,2.8557,2.9045,3.0274,3.0796,3.0771,3.0771,3.0724,3.0639,3.0586,3.0527,3.0472,3.0472,3.0439,3.0629,3.2314,3.3218,3.3814,3.5103,3.5493,3.5699,3.6738,3.6488,3.618,3.7873,3.7882,3.7629,3.8786,3.9252,3.9582,4.0157,4.031,4.031,4.031,4.031,4.031,4.031,4.031,4.0769,4.2202,4.2641,4.3157,4.4208,4.415,4.4322,4.5182,4.4551,4.4341,4.5201,4.5297,4.5297,4.5297,4.5297,4.5297,4.5297,4.5297,4.5297,4.5297,4.5297,4.5297,4.5297,4.5297,4.5256,4.5173,4.5173,4.5129,4.5065,4.5129,4.5194,2.5709,2.5707,2.5707,2.5707,2.5707,2.5707,2.5707,2.5707,2.5707,2.5707,2.5707,2.5707,2.5707,2.5707,0.0,0.0,0.0,0.0,0.0,2.5707,2.5707,2.5707,2.5693,2.5699,2.5703,2.5697,2.5707,2.5707,2.5707,2.5696,2.5703,2.5703,2.5703,2.5703,2.5703,2.5702,2.5707,2.5726,2.6585,2.8244,2.6546,2.7483,3.0626,2.9025,2.9181,3.0723,3.0782,3.0765,3.0691,3.0691,3.062,3.051,3.0501,3.0462,3.041,3.041,3.041,3.0629,3.2314,3.4007,3.543,3.5474,3.5493,3.5815,3.7469,3.7353,3.7026,3.8757,3.9138,3.9035,3.9092,3.9675,4.0272,4.0291,4.031,4.031,4.031,4.031,4.031,4.031,4.031,4.0559,4.1399,4.224,4.3367,4.501,4.4551,4.4322,4.5182,4.4551,4.4341,4.5201,4.5297,4.5297,4.5297,4.5297,4.5297,4.5297,4.5297,4.5297,4.5297,4.5297,4.5297,4.5297,4.5297,4.5132,4.4819,4.4819,4.4676,4.4457,4.4701,4.4981,2.5707,2.5707,2.5707,2.5707,2.5707,2.5707,2.5707,2.5707,2.5707,2.5707,2.5707,2.5707,2.5707,2.5707,0.0,0.0,0.0,0.0,0.0,2.5707,2.5707,2.5707,2.5709,2.5693,2.5696,2.5691,2.5693,2.5701,2.5694,2.5696,2.5703,2.5703,2.5703,2.5703,2.5703,2.5703,2.5697,2.5691,2.6293,2.7425,2.6839,2.7464,2.9142,2.9162,2.9474,3.0021,3.0528,3.0724,3.0706,3.065,3.0571,3.0501,3.0501,3.0451,3.0398,3.0398,3.0398,3.0629,3.2314,3.4045,3.5493,3.5493,3.5872,3.6411,3.6969,3.7334,3.7781,3.8919,3.918,3.9227,3.9768,4.0099,4.031,4.031,4.031,4.031,4.031,4.031,4.031,4.031,4.031,4.075,4.2125,4.2603,4.3176,4.4265,4.4685,4.4972,4.5258,4.5029,4.4972,4.5258,4.5297,4.5297,4.5297,4.5297,4.5297,4.5297,4.5297,4.5297,4.5297,4.5297,4.5297,4.5297,4.5087,4.4891,4.48,4.4624,4.4493,4.4402,4.4289,4.4448,2.5707,2.5707,2.5707,2.5707,2.5681,2.5676,2.5685,2.5681,2.5654,2.5654,2.5681,2.5683,2.5642,2.5676,2.5685,0.0,0.0,0.0,0.0,2.5707,2.5707,2.5707,2.5707,2.5707,2.5707,2.5707,2.5694,2.5703,2.5699,2.5696,2.5701,2.5703,2.5703,2.5703,2.5702,2.5701,2.57,2.5693,2.6136,2.6997,2.6997,2.762,2.8771,2.9338,2.9767,3.006,3.0494,3.0697,3.0656,3.0586,3.0518,3.0462,3.0462,3.0439,3.0398,3.0398,3.0794,3.1487,3.2872,3.4295,3.5493,3.5493,3.6045,3.6757,3.7065,3.7777,3.8627,3.9442,3.9605,3.967,4.0172,4.0309,4.031,4.031,4.031,4.031,4.031,4.031,4.031,4.031,4.031,4.0731,4.2106,4.2335,4.2813,4.4246,4.4934,4.5297,4.5297,4.5297,4.5297,4.5297,4.5297,4.5297,4.5297,4.5297,4.5297,4.5297,4.5297,4.5297,4.5297,4.5297,4.5388,4.5586,4.5062,4.4852,4.4944,4.4496,4.4202,4.4084,4.3905,4.3905]},{"header":{"parameterUnit":"m.s-1","parameterCategory":1,"la1":30.6,"la2":29.2853,"lo1":-89.7004,"lo2":-87.6739,"dy":0.0162,"dx":0.0183,"nx":112,"ny":82,"refTime":"2023-10-06T06:00:00:Z","depth":0,"parameterNumber":3,"parameterNumberName":"V-component_of_WINDS"},"data":[0.0,0.0,0.0,0.0,0.0,0.0,0.0,0.0,0.0,0.0,0.0,0.0,0.0,0.0,0.0,0.0,0.0,0.0,0.0,0.0,0.0,0.0,0.0,0.0,0.0,0.0,0.0,0.0,0.0,0.0,0.0,0.0,0.0,0.0,0.0,0.0,0.0,0.0,0.0,0.0,0.0,0.0,0.0,0.0,0.0,0.0,0.0,0.0,0.0,0.0,0.0,0.0,0.0,0.0,0.0,0.0,0.0,0.0,0.0,0.0,0.0,0.0,0.0,0.0,0.0,0.0,0.0,0.0,0.0,0.0,0.0,0.0,0.0,0.0,0.0,0.0,0.0,0.0,0.0,0.0,0.0,0.0,0.0,0.0,0.0,0.0,0.0,0.0,0.0,0.0,0.0799,0.101,0.2344,0.3295,0.358,0.5231,0.6615,0.7467,0.0,0.0,0.0,0.0,0.0,0.0,0.0,0.0,0.0,0.0,0.0,0.0,0.0,0.0,0.0,0.0,0.0,0.0,0.0,0.0,0.0,0.0,0.0,0.0,0.0,0.0,0.0,0.0,0.0,0.0,0.0,0.0,0.0,0.0,0.0,0.0,0.0,0.0,0.0,0.0,0.0,0.0,0.0,0.0,0.0,0.0,0.0,0.0,0.0,0.0,0.0,0.0,0.0,0.0,0.0,0.0,0.0,0.0,0.0,0.0,0.0,0.0,0.0,0.0,0.0,0.0,0.0,0.0,0.0,0.0,0.0,0.0,0.0,0.0,0.0,0.0,0.0,0.0,0.0,0.0,0.0,0.0,0.0,0.0,0.0,0.0,0.0,0.0,0.0,0.0,0.0,0.0,0.0,0.0,0.0,0.0,0.0,0.0,0.0,0.0,0.0,0.0,0.0,0.0,0.0919,0.1197,0.2303,0.3184,0.358,0.4498,0.577,0.7402,0.0,0.0,0.0,0.0,0.0,0.0,0.0,0.0,0.0,0.0,0.0,0.0,0.0,0.0,0.0,0.0,0.0,0.0,0.0,0.0,0.0,0.0,0.0,0.0,0.0,0.0,0.0,0.0,0.0,0.0,0.0,0.0,0.0,0.0,0.0,0.0,0.0,0.0,0.0,0.0,0.0,0.0,0.0,0.0,0.0,0.0,0.0,0.0,0.0,0.0,0.0,0.0,0.0,0.0,0.0,0.0,0.0,0.0,0.0,0.0,0.0,0.0,0.0,0.0,0.0,0.0,0.0,0.0,0.0,0.0,0.0,0.0,0.0,0.0,0.0,0.0,0.0,0.0,0.0,0.0,0.0,0.0,0.0,0.0,0.0,0.0,0.0,0.0,0.0,0.0,0.0,0.0,0.0,0.0,0.0,0.0,0.0,0.0,0.0,0.0,0.0,0.0,0.0,0.1167,0.1418,0.1898,0.2853,0.3647,0.4141,0.5106,0.6253,0.7402,0.8911,0.0,0.0,0.0,0.0,0.0,0.0,0.0,0.0,0.0,0.0,0.0,0.0,0.0,0.0,0.0,0.0,0.0,0.0,0.0,0.0,0.0,0.0,0.0,0.0,0.0,0.0,0.0,0.0,0.0,0.0,0.0,0.0,0.0,0.0,0.0,0.0,0.0,0.0,0.0,0.0,0.0,0.0,0.0,0.0,0.0,0.0,0.0,0.0,0.0,0.0,0.0,0.0,0.0,0.0,0.0,0.0,0.0,0.0,0.0,0.0,0.0,0.0,0.0,0.0,0.0,0.0,0.0,0.0,0.0,0.0,0.0,0.0,0.0,0.0,0.0,0.0,0.0,0.0,0.0,0.0,0.0,0.0,0.0,0.0,0.0,0.0,0.0,0.0,0.0,0.0,0.0,0.0,0.0,0.0,0.0,0.0,0.0,0.0,0.0,0.0,0.0,0.0,0.1422,0.1936,0.2441,0.3367,0.4188,0.4643,0.5802,0.6819,0.7652,0.9103,0.0,0.0,0.0,0.0,0.0,0.0,0.0,0.0,0.0,0.0,0.0,0.0,0.0,0.0,0.0,0.0,0.0,0.0,0.0,0.0,0.0,0.0,0.0,0.0,0.0,0.0,0.0,0.0,0.0,0.0,0.0,0.0,0.0,0.0,0.0,0.0,0.0,0.0,0.0,0.0,0.0,0.0,0.0,0.0,0.0,0.0,0.0,0.0,0.0,0.0,0.0,0.0,0.0,0.0,0.0,0.0,0.0,0.0,0.0,0.0,0.0,0.0,0.0,0.0,0.0,0.0,0.0,0.0,0.0,0.0,0.0,0.0,0.0,0.0,0.0,0.0,0.0,0.0,0.0,0.0,0.0,0.0,0.0,0.0,0.0,0.0,0.0,0.0,0.0,0.0,0.0,0.0,0.0,0.0,0.0,0.0,0.0,0.0,0.0,0.0,0.0,0.0,0.1918,0.2255,0.2502,0.3688,0.4529,0.4691,0.5727,0.6961,0.8146,0.9096,0.0,0.0,0.0,0.0,0.0,0.0,0.0,0.0,0.0,0.0,0.0,0.0,0.0,0.0,0.0,0.0,0.0,0.0,0.0,0.0,0.0,0.0,0.0,0.0,0.0,0.0,0.0,0.0,0.0,0.0,0.0,0.0,0.0,0.0,0.0,0.0,0.0,0.0,0.0,0.0,0.0,0.0,0.0,0.0,0.0,0.0,0.0,0.0,0.0,0.0,0.0,0.0,0.0,0.0,0.0,0.0,0.0,0.0,0.0,0.0,0.0,0.0,0.0,0.0,0.0,0.0,0.0,0.0,0.0,0.0,0.0,0.0,0.0,0.0,0.0,0.0,0.0,0.0,0.0,0.0,0.0,0.0,0.0,0.0,0.0,0.0,0.0,0.0,0.0,0.0,0.0,0.0,0.0,0.0,0.0,0.0,0.0,0.0,0.0,0.0,0.0,0.0,0.2214,0.2585,0.2834,0.3846,0.4629,0.5022,0.5882,0.6784,0.7741,0.0,0.0,0.0,0.0,0.0,0.0,0.0,0.0,0.0,0.0,0.0,0.0,0.0,0.0,0.0,0.0,0.0,0.0,0.0,0.0,0.0,0.0,0.0,0.0,0.0,0.0,0.0,0.0,0.0,0.0,0.0,0.0,0.0,0.0,0.0,0.0,0.0,0.0,0.0,0.0,0.0,0.0,0.0,0.0,0.0,0.0,0.0,0.0,0.0,0.0,0.0,0.0,0.0,0.0,0.0,0.0,0.0,0.0,0.0,0.0,0.0,0.0,0.0,0.0,0.0,0.0,0.0,0.0,0.0,0.0,0.0,0.0,0.0,0.0,0.0,0.0,0.0,0.0,0.0,0.0,0.0,0.0,0.0,0.0,0.0,0.0,0.0,0.0,0.0,0.0,0.0,0.0,0.0,0.0,0.0,0.0,0.0,0.0,0.0,0.0,0.0,0.0,0.2223,0.2468,0.2778,0.3056,0.4067,0.4849,0.5242,0.6154,0.7052,0.7947,0.0,0.0,0.0,0.0,0.0,0.0,0.0,0.0,0.0,0.0,0.0,0.0,0.0,0.0,0.0,0.0,0.0,0.0,0.0,0.0,0.0,0.0,0.0,0.0,0.0,0.0,0.0,0.0,0.0,0.0,0.0,0.0,0.0,0.0,0.0,0.0,0.0,0.0,0.0,0.0,0.0,0.0,0.0,0.0,0.0,0.0,0.0,0.0,0.0,0.0,0.0,0.0,0.0,0.0,0.0,0.0,0.0,0.0,0.0,0.0,0.0,0.0,0.0,0.0,0.0,0.0,0.0,0.0,0.0,0.0,0.0,0.0,0.0,0.0,0.0,0.0,0.0,0.0,0.0,0.0,0.0,0.0,0.0,0.0,0.0,0.0,0.0,0.0,0.0,0.0,0.0,0.0,0.0,0.0,0.0,0.0,0.0,0.0,0.0,0.0,0.0,0.0,0.2599,0.2789,0.2959,0.3121,0.4288,0.5128,0.5297,0.6539,0.7794,0.0,0.0,0.0,0.0,0.0,0.0,0.0,0.0,0.0,0.0,0.0,0.0,0.0,0.0,0.0,0.0,0.0,0.0,0.0,0.0,0.0,0.0,0.0,0.0,0.0,0.0,0.0,0.0,0.0,0.0,0.0,0.0,0.0,0.0,0.0,0.0,0.0,0.0,0.0,0.0,0.0,0.0,0.0,0.0,0.0,0.0,0.0,0.0,0.0,0.0,0.0,0.0,0.0,0.0,0.0,0.0,0.0,0.0,0.0,0.0,0.0,0.0,0.0,0.0,0.0,0.0,0.0,0.0,0.0,0.0,0.0,0.0,0.0,0.0,0.0,0.0,0.0,0.0,0.0,0.0,0.0,0.0,0.0,0.0,0.0,0.0,0.0,0.0,0.0,0.0,0.0,0.0,0.0,0.0,0.0,0.0,0.0,0.0,0.0,0.0,0.0,0.0,0.0,0.3512,0.3161,0.3125,0.3674,0.4567,0.5128,0.5297,0.6642,0.7741,0.8502,0.0,0.0,0.0,0.0,0.0,0.0,0.0,0.0,0.0,0.0,0.0,0.0,0.0,0.0,0.0,0.0,0.0,0.0,0.0,0.0,0.0,0.0,0.0,0.0,0.0,0.0,0.0,0.0,0.0,0.0,0.0,0.0,0.0,0.0,0.0,0.0,0.0,0.0,0.0,0.0,0.0,0.0,0.0,0.0,0.0,0.0,0.0,0.0,0.0,0.0,0.0,0.0,0.0,0.0,0.0,0.0,0.0,0.0,0.0,0.0,0.0,0.0,0.0,0.0,0.0,0.0,0.0,0.0,0.0,0.0,0.0,0.0,0.0,0.0,0.0,0.0,0.0,0.0,0.0,0.0,0.0,0.0,0.0,0.0,0.0,0.0,0.0,0.0,0.0,0.0,0.0,0.0,0.0,0.0,0.0,0.0,0.0,0.0,0.0,0.0,0.0,0.0,0.3953,0.3622,0.3511,0.4009,0.4736,0.5293,0.5622,0.6745,0.7753,0.8626,0.0,0.0,0.0,0.0,0.0,0.0,0.0,0.0,0.0,0.0,0.0,0.0,0.0,0.0,0.0,0.0,0.0,0.0,0.0,0.0,0.0,0.0,0.0,0.0,0.0,0.0,0.0,0.0,0.0,0.0,0.0,0.0,0.0,0.0,0.0,0.0,0.0,0.0,0.0,0.0,0.0,0.0,0.0,0.0,0.0,0.0,0.0,0.0,0.0,0.0,0.0,0.0,0.0,0.0,0.0,0.0,0.0,0.0,0.0,0.0,0.0,0.0,0.0,0.0,0.0,0.0,0.0,0.0,0.0,0.0,0.0,0.0,0.0,0.0,0.0,0.0,0.0,0.0,0.0,0.0,0.0,0.0,0.0,0.0,0.0,0.0,0.0,0.0,0.0,0.0,0.0,0.0,0.0,0.0,0.0,0.0,0.0,0.0,0.0,0.0,0.0,0.0,0.4064,0.4009,0.4064,0.4233,0.4904,0.5513,0.6046,0.6853,0.7812,0.902,0.0,0.0,0.0,0.0,0.0,0.0,0.0,0.0,0.0,0.0,0.0,0.0,0.0,0.0,0.0,0.0,0.0,0.0,0.0,0.0,0.0,0.0,0.0,0.0,0.0,0.0,0.0,0.0,0.0,0.0,0.0,0.0,0.0,0.0,0.0,0.0,0.0,0.0,0.0,0.0,0.0,0.0,0.0,0.0,0.0,0.0,0.0,0.0,0.0,0.0,0.0,0.0,0.0,0.0,0.0,0.0,0.0,0.0,0.0,0.0,-0.2485,-0.1946,0.0,0.0,0.0,0.0,0.0,0.0,0.0,0.0,0.0,0.0,0.0,0.0,0.0,0.0,0.0,0.0,0.0,0.0,0.0,0.0,0.0,0.0,0.0,0.0,0.0,0.0,0.0,0.0,0.0,0.0,0.0,0.0,0.0,0.0,0.0,0.0,0.0,0.0,0.0,0.0,0.4622,0.4284,0.4174,0.4677,0.5073,0.5352,0.5458,0.6691,0.7747,0.8469,0.9791,0.0,0.0,0.0,0.0,0.0,0.0,0.0,0.0,0.0,0.0,0.0,0.0,0.0,0.0,0.0,0.0,0.0,0.0,0.0,0.0,0.0,0.0,0.0,0.0,0.0,0.0,0.0,0.0,0.0,0.0,0.0,0.0,0.0,0.0,0.0,0.0,0.0,0.0,0.0,0.0,0.0,0.0,0.0,0.0,0.0,0.0,0.0,0.0,0.0,0.0,0.0,0.0,0.0,0.0,0.0,0.0,0.0,0.0,0.0,-0.2905,-0.2348,0.0,0.0,0.0,0.0,0.0,0.0,0.0,0.0,0.0,0.0,0.0,0.0,0.0,0.0,0.0,0.0,0.0,0.0,0.0,0.0,0.0,0.0,0.0,0.0,0.0,0.0,0.0,0.0,0.0,0.0,0.0,0.0,0.0,0.0,0.0,0.0,0.0,0.0,0.0,0.0,0.4956,0.4677,0.4622,0.5069,0.5242,0.5407,0.5727,0.6794,0.7753,0.8336,0.9658,0.0,0.0,0.0,0.0,0.0,0.0,0.0,0.0,0.0,0.0,0.0,0.0,0.0,0.0,0.0,0.0,0.0,0.0,0.0,0.0,0.0,0.0,0.0,0.0,0.0,0.0,0.0,0.0,0.0,0.0,0.0,0.0,0.0,0.0,0.0,0.0,0.0,0.0,0.0,0.0,0.0,0.0,0.0,0.0,0.0,0.0,0.0,0.0,0.0,0.0,0.0,0.0,0.0,-0.3262,-0.3592,-0.3797,-0.3668,-0.3872,-0.4297,-0.3575,-0.3043,-0.2741,-0.1719,0.0,0.0,0.0,0.0,0.0,0.0,0.0,0.0,0.0,0.0,0.0,0.0,0.0,0.0,0.0,0.0,0.0,0.0,0.0,0.0,0.0,0.0,0.0893,0.0898,0.0982,0.0988,0.0933,0.0,0.0,0.0,0.0,0.0,0.0,0.0,0.0,0.0,0.0,0.0,0.5069,0.4956,0.5011,0.5242,0.5297,0.5567,0.6154,0.6956,0.7711,0.8368,0.9569,1.03,0.0,0.0,0.0,0.0,0.0,0.0,0.0,0.0,0.0,0.0,0.0,0.0,0.0,0.0,0.0,0.0,0.0,0.0,0.0,0.0,0.0,0.0,0.0,0.0,0.0,0.0,0.0,0.0,0.0,0.0,0.0,0.0,-0.223,-0.3086,0.0,0.0,0.0,0.0,0.0,0.0,0.0,0.0,0.0,0.0,0.0,0.0,0.0,-0.4725,-0.484,-0.4719,-0.4651,-0.4671,-0.4629,-0.4554,-0.456,-0.4575,-0.4633,-0.4731,-0.4578,0.0,-0.3486,-0.2593,0.0,0.0,0.0,0.0,0.0,0.0,0.0,0.0,0.0,0.0,0.0,0.0,0.0,0.0,0.0,0.0,0.0,0.0,0.0,0.0,0.0,0.0,0.0989,0.1016,0.1044,0.1055,0.1023,0.1398,0.1795,0.1912,0.2514,0.3239,0.0,0.0,0.0,0.0,0.0,0.0,0.4901,0.4901,0.4956,0.5124,0.5242,0.5567,0.6154,0.6907,0.761,0.8368,0.9099,0.9777,1.0403,1.0454,0.0,0.0,0.0,0.0,0.0,0.0,0.0,0.0,0.0,0.0,0.0,0.0,0.0,0.0,0.0,0.0,0.0,0.0,0.0,0.0,0.0,0.0,0.0,0.0,0.0,0.0,0.0,0.0,0.0,-0.2754,-0.3086,-0.3535,-0.3135,-0.3023,0.0,0.0,0.0,0.0,0.0,0.0,0.0,0.0,0.0,-0.454,-0.4737,-0.4904,-0.5027,-0.4941,-0.4961,-0.5101,-0.5129,-0.5214,-0.5355,-0.5344,-0.5412,-0.5529,-0.5398,-0.506,-0.4564,-0.3434,-0.2495,-0.1693,0.0,0.0,0.0,0.0,0.0479,0.0547,0.0852,0.0974,0.0973,0.097,0.0,0.0,0.0,0.0,0.0,0.0,0.0,0.2142,0.1599,0.1269,0.1045,0.1076,0.1105,0.1119,0.1089,0.126,0.1463,0.1756,0.2129,0.263,0.3193,0.34,0.0,0.0,0.0,0.4239,0.4398,0.4673,0.4956,0.5183,0.5242,0.5567,0.6154,0.6858,0.761,0.8368,0.9047,0.9569,0.9932,1.0241,1.0651,0.0,0.0,0.0,0.0,0.0,0.0,0.0,0.0,0.0,0.0,0.0,0.0,0.0,0.0,0.0,0.0,0.0,0.0,0.0,0.0,0.0,0.0,0.0,0.0,0.0,0.0,0.0,0.0,-0.3475,-0.3718,-0.3593,-0.386,-0.3984,0.0,0.0,0.0,0.0,0.0,0.0,-0.4634,-0.4998,-0.507,-0.4816,-0.5091,-0.5265,-0.533,-0.5341,-0.5436,-0.5618,-0.5612,-0.5722,-0.5947,-0.5893,-0.595,-0.6075,-0.5899,-0.5703,-0.5461,-0.4201,-0.3373,-0.265,-0.1804,-0.1216,-0.0772,-0.0064,0.0195,0.0266,0.0867,0.1063,0.1054,0.1039,0.1139,0.1289,0.1723,0.0,0.0,0.0,0.0,0.1906,0.1765,0.1412,0.1106,0.1137,0.1168,0.1181,0.1151,0.1144,0.1247,0.1543,0.1687,0.1963,0.251,0.2713,0.0,0.2852,0.3429,0.3884,0.4012,0.4601,0.5119,0.5301,0.5297,0.5622,0.6372,0.6912,0.7616,0.8474,0.9054,0.9413,0.9562,0.9984,1.0241,1.0403,0.0,0.0,0.0,0.0,0.0,0.0,0.0,0.0,0.0,0.0,0.0,0.0,0.0,0.0,0.0,0.0,0.0,0.0,0.0,0.0,0.0,0.0,0.0,0.0,0.0,0.0,0.0,0.0,0.0,-0.3669,-0.4536,0.0,0.0,0.0,0.0,-0.4867,-0.4519,-0.4459,-0.4786,-0.5133,-0.5402,-0.5742,-0.6356,-0.681,-0.7186,-0.6877,-0.6663,-0.6678,-0.6392,-0.617,-0.6081,-0.6192,-0.6184,-0.6086,-0.6072,-0.5994,-0.5839,-0.4936,-0.4173,-0.3389,-0.2528,-0.1976,-0.1511,-0.0281,0.0142,0.0217,0.0942,0.1141,0.1121,0.1149,0.1561,0.1933,0.195,0.2401,0.0,0.0,0.2008,0.1887,0.1316,0.1139,0.117,0.12,0.123,0.1244,0.1214,0.1207,0.1172,0.1052,0.1029,0.1199,0.1778,0.0,0.2029,0.2637,0.3493,0.4041,0.4024,0.4812,0.5372,0.5317,0.5297,0.5786,0.6977,0.7085,0.7616,0.8903,0.9106,0.9256,0.9413,0.9562,0.988,1.0403,1.0454,0.0,0.0,0.0,0.0,0.0,0.0,0.0,0.0,0.0,0.0,0.0,0.0,0.0,0.0,0.0,0.0,0.0,0.0,0.0,0.0,0.0,0.0,0.0,0.0,0.0,0.0,0.0,0.0,-0.6026,-0.6655,0.0,-0.592,-0.6288,-0.6597,-0.6773,-0.7027,-0.7392,-0.7864,-0.8057,-0.8024,-0.7647,-0.7835,-0.7945,-0.8065,-0.7996,-0.7919,-0.7928,-0.7849,-0.7537,-0.7095,-0.7143,-0.6842,-0.6312,-0.6312,-0.6246,-0.6124,-0.586,-0.5272,-0.4313,-0.3132,-0.2402,-0.1869,-0.0304,0.0307,0.047,0.1019,0.1247,0.1233,0.1204,0.1321,0.1506,0.1493,0.165,0.1738,0.1567,0.1507,0.1463,0.1275,0.1202,0.1209,0.1258,0.1264,0.1254,0.1243,0.1241,0.1223,0.116,0.1101,0.1113,0.1259,0.1292,0.133,0.1554,0.2643,0.343,0.3505,0.4614,0.5373,0.5376,0.5466,0.5918,0.6987,0.7085,0.7622,0.8903,0.9061,0.9159,0.9413,0.9465,0.9614,0.988,0.9873,1.0082,0.0,0.0,0.0,0.0,0.0,0.0,0.0,0.0,0.0,0.0,0.0,0.0,0.0,0.0,0.0,0.0,0.0,0.0,0.0,0.0,0.0,0.0,0.0,0.0,0.0,-0.6795,-0.7497,-0.7744,-0.847,-0.8646,-0.7856,-0.8121,-0.8463,-0.8595,-0.8954,-0.928,-0.9727,-0.9789,-0.9544,-0.898,-0.885,-0.8717,-0.8589,-0.8589,-0.8645,-0.8657,-0.8657,-0.8423,-0.8028,-0.773,-0.7332,-0.6836,-0.6537,-0.6393,-0.6325,-0.6325,-0.604,-0.536,-0.4036,-0.3204,-0.2451,-0.0411,0.033,0.0588,0.1168,0.1332,0.1324,0.1274,0.1244,0.1228,0.1228,0.1242,0.1254,0.1233,0.1242,0.1262,0.1283,0.1273,0.1268,0.1308,0.1303,0.1288,0.1288,0.1288,0.1279,0.1249,0.1176,0.1109,0.107,0.1046,0.1158,0.1401,0.241,0.3283,0.3618,0.4797,0.5544,0.5494,0.5588,0.6174,0.7221,0.7316,0.7871,0.9153,0.9166,0.9212,0.9418,0.9517,0.9624,0.9676,0.9831,1.01,1.0479,0.0,0.0,0.0,0.0,0.0,0.0,0.0,0.0,0.0,0.0,0.0,0.0,0.0,0.0,0.0,0.0,0.0,0.0,0.0,0.0,0.0,0.0,0.0,-0.703,-0.784,-0.8558,-0.8631,-0.9907,-1.0476,-0.9779,-1.002,-1.0253,-1.0324,-0.9979,-0.9943,-1.0159,-1.0173,-0.9903,-0.9519,-0.9531,-0.9332,-0.892,-0.8924,-0.8825,-0.8825,-0.8825,-0.8825,-0.8726,-0.7928,-0.763,-0.7531,-0.6734,-0.6437,-0.6437,-0.6437,-0.6437,-0.6291,-0.5284,-0.4272,-0.3125,-0.0706,0.0264,0.0536,0.1139,0.1391,0.1386,0.1359,0.1267,0.1267,0.1267,0.1267,0.1266,0.1265,0.1265,0.1265,0.1265,0.1264,0.1264,0.1265,0.1264,0.1263,0.1263,0.1263,0.1339,0.1309,0.1255,0.1196,0.1134,0.1123,0.139,0.2162,0.296,0.0,0.4394,0.5339,0.5845,0.5601,0.5771,0.6426,0.7715,0.7774,0.8369,0.9621,0.9518,0.9411,0.9411,0.9735,0.99,0.99,1.0384,1.0823,1.1213,0.0,0.0,0.0,0.0,0.0,0.0,0.0,0.0,0.0,0.0,0.0,0.0,0.0,0.0,0.0,0.0,0.0,0.0,0.0,0.0,0.0,-0.765,-0.8696,-0.8873,-0.9686,-1.0688,-1.1449,-1.2266,-1.2394,-1.1538,-1.1499,-1.1639,-1.1887,-1.1747,-1.2026,-1.2836,-1.2609,-1.24,-1.2099,-1.1596,-1.1225,-1.1091,-1.0699,-1.0212,-0.9719,-0.9719,-0.9023,-0.7928,-0.773,-0.7332,-0.6736,-0.6534,-0.6437,-0.6437,-0.6437,-0.6437,-0.6216,-0.4749,-0.3518,-0.2443,0.0092,0.1085,0.1165,0.1337,0.1423,0.1422,0.1414,0.1411,0.1411,0.1411,0.1411,0.1407,0.1384,0.1378,0.1378,0.1378,0.1363,0.1353,0.1373,0.1363,0.1263,0.1263,0.1263,0.1339,0.1309,0.1289,0.1258,0.1198,0.1168,0.1222,0.1499,0.2635,0.3521,0.3632,0.5048,0.5958,0.566,0.5884,0.6568,0.7725,0.7774,0.8369,0.9621,0.9663,0.9674,0.9781,0.9838,0.9952,1.0059,1.0479,1.082,0.0,0.0,0.0,0.0,0.0,0.0,0.0,0.0,0.0,0.0,0.0,0.0,0.0,0.0,0.0,0.0,0.0,0.0,0.0,0.0,0.0,0.0,-0.9416,-1.0636,-1.1181,-1.1617,-1.2275,-1.3057,-1.3586,-1.3647,-1.3077,-1.2983,-1.3046,-1.3199,-1.321,-1.3495,-1.4069,-1.3933,-1.3657,-1.3317,-1.2876,-1.2467,-1.198,-1.1688,-1.1002,-1.0019,-1.0019,-0.9324,-0.8127,-0.773,-0.7332,-0.6933,-0.6537,-0.6437,-0.6437,-0.6437,-0.6437,-0.6323,0.0,0.0,0.0,0.0,0.1196,0.1437,0.1359,0.1355,0.1348,0.1269,0.1272,0.1275,0.1378,0.1473,0.1467,0.1436,0.1428,0.1425,0.1412,0.1397,0.1388,0.1405,0.1397,0.1384,0.1384,0.1384,0.1376,0.1345,0.1339,0.0,0.1277,0.1233,0.1505,0.2178,0.2976,0.3745,0.4336,0.5377,0.5995,0.5804,0.6108,0.6781,0.7963,0.8075,0.0,0.0,0.0,0.9919,1.0096,1.0096,0.0,0.0,0.0,1.097,1.0909,1.1279,0.0,0.0,1.1466,1.1158,0.0,0.0,0.0,0.0,0.0,0.0,0.0,0.0,0.0,0.0,0.0,0.0,0.0,0.0,0.0,0.0,-1.1427,-1.2687,-1.3489,-1.3405,-1.3429,-1.3894,-1.4159,-1.4298,-1.4298,-1.4298,-1.4298,-1.4298,-1.4298,-1.4298,-1.4298,-1.4298,0.0,0.0,0.0,-1.305,-1.2175,-1.2073,-1.1292,-0.992,-0.992,-0.9422,-0.8524,-0.7829,-0.7431,-0.7431,-0.6734,-0.6437,-0.6437,-0.6437,-0.6437,-0.6331,-0.6232,-0.5005,-0.3029,-0.0288,0.0931,0.1264,0.1291,0.0,0.0,0.1106,0.1021,0.1117,0.1419,0.1521,0.1515,0.1484,0.1476,0.147,0.1442,0.1436,0.1436,0.1436,0.1436,0.1436,0.1436,0.1436,0.1426,0.1396,0.139,0.138,0.1348,0.1298,0.1812,0.3456,0.3619,0.4086,0.5654,0.5997,0.6091,0.6073,0.6257,0.0,0.8361,0.849,0.9069,1.0498,1.0314,1.0228,1.041,1.041,1.0534,1.08,1.1052,1.1185,1.1122,1.1247,1.131,1.1303,1.124,1.1178,0.0,0.0,0.0,0.0,0.0,0.0,0.0,0.0,0.0,0.0,0.0,0.0,0.0,0.0,0.0,-1.1024,-1.2198,-1.3242,-1.4032,-1.4099,-1.4111,-1.4208,-1.4268,-1.4298,-1.4298,-1.4298,-1.4298,-1.4298,-1.4298,-1.4298,-1.4298,-1.4298,-1.4298,-1.4106,-1.3732,-1.3443,-1.3249,-1.237,-1.1189,-0.971,-0.9221,0.0,-0.6833,-0.6734,-0.6634,-0.6634,-0.6437,-0.6437,-0.6437,-0.6437,-0.645,-0.6255,-0.4843,-0.2843,-0.0587,0.0384,0.0563,0.0369,0.0659,0.1123,0.1384,0.1413,0.1423,0.1514,0.1495,0.1489,0.0,0.1453,0.1444,0.1442,0.1437,0.1436,0.1436,0.1436,0.1436,0.1436,0.1436,0.1436,0.1426,0.1396,0.139,0.1373,0.132,0.1301,0.1615,0.2658,0.3313,0.4085,0.4908,0.5719,0.6209,0.6084,0.6257,0.7003,0.8361,0.849,0.9069,1.0498,1.0571,1.0537,1.0537,1.0537,1.0564,1.0624,1.0807,1.0933,1.1122,1.1122,1.1185,1.1303,1.0989,1.087,0.0,0.0,0.0,0.0,0.0,0.0,0.0,0.0,0.0,0.0,0.0,-0.7962,-0.8929,0.0,-1.1126,-1.2342,-1.3176,-1.3845,-1.4244,-1.4298,-1.4298,-1.4298,-1.4298,-1.4298,-1.4298,-1.4298,-1.4298,-1.4298,-1.4298,-1.4298,-1.4298,-1.4298,-1.4298,-1.4298,-1.4016,-1.3727,-1.3539,-1.2953,-1.1678,-0.9608,-0.9316,-0.8223,-0.6437,-0.6437,-0.6437,-0.6437,-0.6437,-0.6437,-0.6437,-0.6437,-0.6353,-0.6168,-0.4292,-0.2075,0.0,0.0295,0.0193,0.0,0.0288,0.0478,0.0754,0.1058,0.1355,0.1549,0.1549,0.1549,0.1539,0.1493,0.1492,0.1496,0.1466,0.1458,0.1458,0.1458,0.1446,0.1436,0.1436,0.1436,0.1431,0.1416,0.1412,0.1578,0.206,0.2014,0.2212,0.3037,0.3859,0.467,0.546,0.6081,0.6364,0.6205,0.6386,0.7114,0.8371,0.9134,0.9843,1.0561,1.0624,1.0624,1.0624,1.0624,1.0624,1.0624,1.0744,1.087,1.0933,1.0933,1.1073,1.1219,1.1026,1.0962,0.0,0.0,0.0,0.0,0.0,0.0,0.0,-0.8254,-0.8609,-0.8906,-0.933,-0.9999,-1.1387,-1.223,-1.2943,-1.3853,-1.439,-1.4675,-1.4394,-1.4394,-1.4394,-1.4298,-1.4298,-1.4298,-1.4298,-1.4298,-1.4298,-1.4298,-1.4298,-1.4298,-1.4298,-1.4298,-1.4298,-1.4298,-1.4298,-1.4106,-1.3636,-1.3539,-1.236,-1.0096,-0.9899,-0.8814,-0.6833,-0.6634,-0.6537,-0.6437,-0.6437,-0.6437,-0.6437,-0.6437,-0.635,-0.6168,-0.4033,-0.1897,0.0,0.0,0.0,0.0,0.0,0.0,0.0096,0.0589,0.1185,0.1583,0.1603,0.1608,0.1596,0.1541,0.1544,0.1551,0.1502,0.1489,0.1489,0.1489,0.1471,0.1453,0.1453,0.1453,0.1451,0.1445,0.1449,0.1721,0.2781,0.2969,0.3194,0.3993,0.4638,0.5318,0.6183,0.6428,0.6485,0.6248,0.6514,0.7153,0.8382,0.9652,1.0454,1.0641,1.0705,1.0668,1.0728,1.0728,1.0728,1.0728,1.085,1.0914,1.0978,1.0914,1.1036,1.1274,1.1202,1.1196,-1.0249,-1.0332,-1.04,-1.0639,-1.1027,-1.1594,0.0,-1.276,-1.3164,-1.3128,-1.3509,-1.4037,-1.4469,-1.5297,-1.592,-1.5631,-1.5954,-1.5893,-1.4777,-1.4885,-1.479,-1.4394,-1.4298,-1.4298,-1.4298,-1.4298,-1.4298,-1.4298,-1.4298,-1.4298,-1.4298,-1.4298,-1.4298,-1.4298,-1.4298,-1.4298,-1.4202,-1.3727,-1.2942,-1.195,-1.1072,-0.9792,-0.8117,-0.7726,-0.7033,-0.6437,-0.6437,-0.6437,-0.6437,-0.6437,-0.6448,-0.616,-0.4031,-0.1912,0.0,0.0,0.0,0.0,0.0,0.0,0.0098,0.0601,0.1209,0.1607,0.1583,0.1577,0.1569,0.1536,0.1528,0.153,0.1523,0.1521,0.1521,0.1521,0.1518,0.1516,0.1516,0.1516,0.1508,0.148,0.1498,0.1779,0.2796,0.3621,0.4378,0.5032,0.5058,0.5318,0.6183,0.6349,0.6264,0.6115,0.6305,0.7009,0.8382,0.9198,1.0014,1.0929,1.0949,1.1062,1.1316,1.1329,1.1329,1.1329,1.1329,1.1397,1.1601,1.1397,1.1417,1.1655,1.172,1.163,-1.2052,-1.1994,-1.2067,-1.2388,-1.3181,-1.3996,-1.4229,-1.4584,-1.5033,-1.5465,-1.5824,-1.6227,-1.6669,-1.7079,-1.7073,-1.6324,-1.6358,-1.617,-1.507,-1.4987,-1.4867,-1.4347,-1.4359,-1.442,-1.4286,-1.4298,-1.4298,-1.4298,-1.4298,-1.4298,-1.4298,-1.4298,-1.4298,-1.4298,-1.4298,-1.4298,-1.4298,-1.4106,-1.342,-1.2339,-1.1268,-0.9993,-0.8414,-0.7531,-0.6839,-0.6437,-0.6437,-0.6437,-0.6437,-0.6437,-0.6448,-0.6263,-0.5452,-0.3024,0.0,0.0,0.0,0.0,0.0,0.0,0.0,0.0302,0.0903,0.1588,0.1575,0.1571,0.1565,0.1535,0.1551,0.1575,0.1557,0.1553,0.1553,0.1553,0.1539,0.1526,0.1526,0.1512,0.1501,0.1506,0.1503,0.2057,0.3622,0.416,0.4729,0.6121,0.6114,0.6109,0.6515,0.6461,0.6479,0.6397,0.6873,0.7563,0.8628,0.9439,1.0306,1.1168,1.1243,1.1296,1.1423,1.1423,1.1423,1.1423,1.1423,1.143,1.1498,1.143,1.1516,1.183,1.1881,1.1891,-1.3977,-1.3932,-1.4083,-1.4719,-1.5654,-1.6426,-1.6355,-1.6665,-1.709,-1.7632,-1.793,-1.8168,-1.8593,-1.8503,-1.8218,-1.7475,-1.7196,-1.6828,-1.6103,-1.594,-1.5704,-1.5003,-1.4876,-1.4767,-1.4502,-1.4383,-1.4315,-1.4388,-1.4298,-1.4298,-1.4298,-1.4298,-1.4298,-1.4298,-1.4298,-1.4298,-1.4298,-1.4298,-1.3806,-1.2829,-1.1658,-1.0382,-0.9004,-0.7534,-0.6642,-0.6437,-0.6437,-0.6437,-0.6437,-0.6437,-0.6445,-0.6358,-0.6372,-0.4137,-0.0804,-0.0198,0.0,0.0,0.0,0.0,0.0,0.0,0.0593,0.1375,0.1571,0.1577,0.1579,0.1557,0.1583,0.1611,0.159,0.1584,0.1584,0.1584,0.1567,0.1551,0.1551,0.1527,0.1604,0.1903,0.1884,0.2524,0.461,0.486,0.5359,0.7011,0.701,0.6776,0.6654,0.6534,0.6453,0.6488,0.6981,0.7721,0.8834,0.9469,1.0345,1.1474,1.155,1.1583,1.1663,1.1663,1.1663,1.1663,1.1663,1.1663,1.1663,1.1663,1.1777,1.1991,1.1991,1.2098,-1.602,-1.6249,-1.6636,-1.7955,-1.8581,-1.9016,-1.9083,-1.9689,-2.0281,-2.0245,-2.0249,-2.0175,-2.0192,-1.982,-1.9438,-1.9438,-1.9072,-1.8596,-1.8303,-1.8222,-1.7796,-1.6808,-1.5886,-1.5282,-1.4943,-1.4508,-1.4309,-1.4669,-1.449,-1.4298,-1.4298,-1.4298,-1.4298,-1.4298,-1.4298,-1.4298,-1.4298,-1.4298,-1.4298,-1.4202,-1.2732,-1.1565,-1.0685,-0.8028,-0.6642,-0.6437,-0.6437,-0.6437,-0.6437,-0.6437,-0.6437,-0.6439,-0.6366,-0.5048,-0.2814,-0.079,0.0,0.0,0.0,0.0,0.0,0.0,0.0387,0.0884,0.1473,0.1592,0.1615,0.1614,0.1615,0.1616,0.1615,0.1615,0.1615,0.1615,0.1615,0.1614,0.1614,0.159,0.1853,0.2774,0.2951,0.3591,0.5547,0.5895,0.6349,0.7396,0.7322,0.697,0.6536,0.622,0.6108,0.6321,0.6186,0.6873,0.8759,0.8899,0.978,1.1766,1.1857,1.1984,1.2265,1.2278,1.2278,1.2278,1.2278,1.2278,1.2278,1.2278,1.2278,1.2285,1.2285,1.2291,-1.7457,-1.8657,-1.976,-2.0267,-2.1003,-2.1491,-2.1161,-2.1153,-2.1139,-2.0907,-2.0017,-1.9332,-1.8996,-1.8645,-1.8296,-1.8202,-1.8663,-1.8888,-1.8716,-1.8593,-1.8221,-1.722,-1.6537,-1.5836,-1.5247,-1.43,-1.3841,-1.429,-1.4133,-1.4117,-1.4286,-1.4298,-1.4298,-1.4298,-1.4298,-1.4298,-1.4298,-1.4298,-1.4298,-1.4298,-1.2242,-1.019,-0.8421,-0.7338,-0.6642,-0.6437,-0.6437,-0.6437,-0.6437,-0.6437,-0.6437,-0.6439,-0.6366,-0.505,-0.2916,-0.079,0.0,0.0,0.0,0.0,0.0,0.0,0.0383,0.0867,0.1445,0.1563,0.1587,0.1587,0.1601,0.1617,0.1617,0.1617,0.1617,0.1617,0.1617,0.1617,0.1617,0.2188,0.2748,0.3062,0.3679,0.4476,0.5839,0.6002,0.6327,0.7273,0.7272,0.7014,0.6668,0.6447,0.6322,0.64,0.6423,0.7151,0.8852,0.9216,1.0132,1.1859,1.2085,1.2204,1.2298,1.2305,1.2305,1.2305,1.2305,1.2305,1.2305,1.2305,1.2305,1.2305,1.2305,1.2305,-1.975,-2.119,-2.2424,-2.2883,-2.3154,-2.3172,-2.2795,-2.2142,-2.1397,-2.0782,-1.9688,-1.8541,-1.7647,-1.7156,-1.6886,-1.6869,-1.7326,-1.7904,-1.8715,-1.874,-1.858,-1.8473,-1.7391,-1.6518,-1.6012,-1.4561,-1.3875,-1.4334,-1.4278,-1.4218,-1.4286,-1.4298,-1.4298,-1.4298,-1.4298,-1.4298,-1.4298,-1.4298,-1.3908,-1.3125,-1.156,-0.9501,-0.7238,-0.6942,-0.6642,-0.6437,-0.6437,-0.6437,-0.6437,-0.6437,-0.6437,-0.6439,-0.6366,-0.505,-0.2916,-0.079,0.0,0.0,0.0,0.0,0.0,0.0,0.0189,0.0668,0.1335,0.1555,0.1588,0.1588,0.1602,0.1617,0.1617,0.1617,0.1617,0.1617,0.1617,0.1617,0.1617,0.2484,0.3341,0.368,0.4467,0.5516,0.6501,0.6494,0.6563,0.7212,0.7204,0.7054,0.6814,0.66,0.6471,0.6471,0.6499,0.7022,0.847,0.9145,1.0121,1.1471,1.2003,1.2305,1.2305,1.2305,1.2305,1.2305,1.2305,1.2305,1.2305,1.2305,1.2305,1.2305,1.2305,1.2305,-2.2849,-2.3774,-2.4528,-2.5746,-2.5139,-2.4114,-2.3826,-2.2524,-2.11,-1.9865,-1.9025,-1.7968,-1.6316,-1.5632,-1.5484,-1.5723,-1.547,-1.6149,-1.8663,-1.8667,-1.8965,-2.0373,-1.8659,-1.7339,-1.7154,-1.5476,-1.4435,-1.4619,-1.4621,-1.458,-1.4292,-1.4298,-1.4298,-1.4298,-1.4298,-1.4298,-1.4298,-1.4298,-1.3221,-1.117,-1.0974,-0.9501,-0.7238,-0.6942,-0.6642,-0.6437,-0.6437,-0.6437,-0.6437,-0.6437,-0.6437,-0.6439,-0.6366,-0.505,-0.2916,-0.0789,0.0,0.0,0.0,0.0,0.0,0.0,0.0,0.0191,0.1242,0.157,0.1617,0.1617,0.1617,0.1617,0.1617,0.1617,0.1617,0.1617,0.1617,0.1617,0.1617,0.2486,0.3529,0.4409,0.5494,0.6517,0.7315,0.7255,0.7153,0.7153,0.7146,0.7092,0.6956,0.6678,0.6491,0.6485,0.6356,0.6729,0.7706,0.8694,0.9669,1.064,1.1694,1.2305,1.2224,1.2305,1.2305,1.2305,1.2305,1.2305,1.2305,1.2305,1.2305,1.2305,1.2305,1.2305,-2.4406,-2.5849,-2.7184,-2.716,-2.6206,-2.4934,-2.3453,-2.1654,-1.9907,-1.8592,-1.7024,-1.5595,-1.4802,-1.4735,-1.5163,-1.6173,-1.741,-1.8807,-2.0349,-2.0721,-2.0898,-2.097,-1.9895,-1.8754,-1.7612,-1.678,-1.5756,-1.4651,-1.4447,-1.4383,-1.4286,-1.4298,-1.4298,-1.4298,-1.4298,-1.4298,-1.4298,-1.4298,-1.3221,-1.117,-1.117,-0.9698,-0.7238,-0.7138,-0.6836,-0.6437,-0.6437,-0.6437,-0.6437,-0.6437,-0.6437,-0.6439,-0.6366,-0.505,-0.2909,-0.0778,0.0,0.0,0.0,0.0,0.0,0.0,0.0,0.0097,0.078,0.1289,0.1617,0.1617,0.1617,0.1617,0.1617,0.1617,0.1617,0.1617,0.1617,0.1617,0.1617,0.3111,0.4491,0.4692,0.6187,0.7419,0.7567,0.7414,0.7312,0.7312,0.7214,0.7129,0.7092,0.6926,0.677,0.6654,0.6508,0.6763,0.7492,0.847,0.9226,0.9669,1.1174,1.1855,1.1409,1.2003,1.2305,1.2305,1.2305,1.2305,1.2305,1.2305,1.2305,1.2305,1.2305,1.2305,-2.6625,-2.7728,-2.8594,-2.8311,-2.7035,-2.5394,-2.3584,-2.1359,-1.9093,-1.6967,-1.5625,-1.4435,-1.3113,-1.3584,-1.4232,-1.4512,-1.6,-1.7674,-1.938,-1.9973,-2.0499,-2.124,-2.0208,-1.9044,-1.8297,-1.7106,-1.5944,-1.4935,-1.4754,-1.4533,-1.4286,-1.4298,-1.4298,-1.4298,-1.4298,-1.4298,-1.4298,-1.4298,-1.3221,-1.117,-1.1072,-0.9698,-0.7238,-0.7039,-0.6839,-0.6437,-0.6437,-0.6437,-0.6437,-0.6437,-0.6437,-0.6439,-0.6366,-0.505,-0.2911,-0.0781,0.0,0.0,0.0,0.0,0.0,0.0,0.0,0.0098,0.0589,0.1194,0.1617,0.1617,0.1617,0.1617,0.1617,0.1617,0.1617,0.1617,0.1617,0.1617,0.1617,0.3324,0.5125,0.6029,0.7024,0.7787,0.7706,0.7512,0.737,0.737,0.7241,0.7139,0.7139,0.7017,0.6895,0.681,0.6664,0.6781,0.7092,0.8026,0.8672,0.8826,1.0181,1.0956,1.1111,1.1558,1.1929,1.2298,1.2305,1.2305,1.2305,1.2305,1.2305,1.2305,1.2305,1.2305,-2.9,-2.9163,-2.9197,-2.9045,-2.7394,-2.5385,-2.3734,-2.1086,-1.8304,-1.5476,-1.4723,-1.393,-1.1903,-1.2698,-1.3485,-1.2688,-1.3774,-1.5516,-1.7663,-1.832,-1.9365,-2.1469,-2.0175,-1.9063,-1.8796,-1.7217,-1.592,-1.5178,-1.5083,-1.4885,-1.4298,-1.4298,-1.4298,-1.4298,-1.4298,-1.4298,-1.4298,-1.4202,-1.3125,-1.117,-1.0783,-0.9406,-0.7238,-0.6942,-0.6639,-0.6437,-0.6437,-0.6437,-0.6437,-0.6437,-0.6437,-0.6439,-0.6366,-0.505,-0.2916,-0.079,0.0,0.0,0.0,0.0,0.0,0.0,0.0,0.0099,0.0591,0.1097,0.1617,0.1617,0.1617,0.1617,0.1617,0.1617,0.1617,0.1617,0.1617,0.1617,0.1617,0.3324,0.5425,0.7537,0.7933,0.7841,0.7841,0.7611,0.7431,0.7431,0.7282,0.717,0.717,0.7044,0.6949,0.6929,0.681,0.6722,0.6702,0.7438,0.8062,0.8175,0.9053,0.9986,1.0935,1.1055,1.1484,1.2305,1.2305,1.2305,1.2305,1.2305,1.2305,1.2305,1.2305,1.2224,-3.0148,-2.9918,-2.9512,-2.8872,-2.7059,-2.4877,-2.2411,-1.9565,-1.6808,-1.4603,-1.3993,-1.3641,-1.2785,-1.3838,-1.4857,-1.5052,-1.6129,-1.7542,-1.9307,-1.9889,-2.0489,-2.1533,-2.1365,-2.0538,-1.8972,-1.8511,-1.7404,-1.5267,-1.5083,-1.4885,-1.4298,-1.4298,-1.4298,-1.4298,-1.4298,-1.4298,-1.4298,-1.3414,-1.2339,-1.117,-1.0293,-0.8916,-0.7238,-0.7138,-0.6839,-0.6437,-0.6437,-0.6437,-0.6437,-0.6437,-0.6437,-0.6439,-0.6366,-0.505,-0.2916,-0.079,0.0,0.0,0.0,0.0,0.0,0.0,0.0,0.0,0.0101,0.0806,0.1617,0.1617,0.1617,0.1617,0.1617,0.1617,0.1617,0.1617,0.1617,0.1617,0.1617,0.3324,0.5425,0.7537,0.8018,0.7997,0.7997,0.7851,0.7736,0.7736,0.7506,0.7329,0.7329,0.7197,0.7058,0.6943,0.6905,0.6837,0.6712,0.7362,0.7725,0.7558,0.8673,0.9687,1.0346,1.0848,1.1484,1.2305,1.2305,1.2305,1.2305,1.2305,1.2305,1.2305,1.2305,1.1929,-3.1204,-3.0589,-2.9654,-2.8912,-2.676,-2.4214,-2.1555,-1.8607,-1.5825,-1.3743,-1.3351,-1.3214,-1.2697,-1.3682,-1.4533,-1.4292,-1.5396,-1.6811,-1.8252,-1.9082,-1.987,-2.0554,-2.0416,-1.9621,-1.8149,-1.7591,-1.6662,-1.5178,-1.5083,-1.4885,-1.4298,-1.4298,-1.4298,-1.4298,-1.4298,-1.4298,-1.4298,-1.3221,-1.2242,-1.117,-1.0096,-0.8718,-0.7238,-0.7238,-0.6936,-0.6437,-0.6437,-0.6437,-0.6437,-0.6437,-0.6442,-0.6353,-0.6369,-0.5766,-0.444,-0.1199,0.0,0.0,0.0,0.0,0.0,0.0,0.0,0.0,0.0,0.0404,0.0909,0.1415,0.1617,0.1617,0.1617,0.1617,0.1617,0.1617,0.2019,0.2622,0.3123,0.4526,0.6132,0.7736,0.8038,0.8038,0.8038,0.7913,0.7787,0.7712,0.7512,0.7343,0.7261,0.7187,0.7112,0.7048,0.7037,0.701,0.6936,0.7051,0.7189,0.736,0.7754,0.8655,0.9985,1.0338,1.1025,1.2305,1.2305,1.2305,1.2305,1.2305,1.2305,1.2305,1.2305,1.2077,-3.1864,-3.0904,-2.9628,-2.8925,-2.6469,-2.3545,-2.0906,-1.7956,-1.5128,-1.3116,-1.2903,-1.2982,-1.251,-1.3336,-1.3853,-1.3307,-1.4385,-1.5707,-1.7022,-1.7854,-1.8718,-1.9505,-1.9077,-1.8427,-1.7419,-1.6581,-1.5832,-1.5178,-1.4987,-1.479,-1.4298,-1.4298,-1.4298,-1.4298,-1.4298,-1.4202,-1.4004,-1.2926,-1.1853,-1.0877,-0.9706,-0.8524,-0.7238,-0.7138,-0.6839,-0.6437,-0.6437,-0.6437,-0.6437,-0.6439,-0.645,-0.6364,-0.6374,-0.6382,-0.5879,-0.1616,0.0,0.0,0.0,0.0,0.0,0.0,0.0,0.0,0.0,0.0101,0.0303,0.1212,0.1516,0.1617,0.1617,0.1617,0.1617,0.1617,0.2422,0.3524,0.4524,0.5629,0.6736,0.7839,0.8038,0.8038,0.8038,0.794,0.7811,0.7665,0.7516,0.7363,0.721,0.7163,0.7139,0.7139,0.7139,0.7139,0.7139,0.6898,0.693,0.7301,0.7122,0.7777,0.9586,0.9797,1.0571,1.2003,1.2224,1.2305,1.2305,1.2305,1.2224,1.2003,1.2003,1.1855,-3.1488,-3.0737,-2.9528,-2.8448,-2.5896,-2.2983,-2.038,-1.7393,-1.4682,-1.3057,-1.2903,-1.3077,-1.2884,-1.3414,-1.4011,-1.4337,-1.4757,-1.567,-1.725,-1.7374,-1.7806,-1.8982,-1.893,-1.8427,-1.7419,-1.7232,-1.6581,-1.5178,-1.4688,-1.4394,-1.4298,-1.4298,-1.4298,-1.4298,-1.4298,-1.3806,-1.2829,-1.1853,-1.0779,-0.9706,-0.8432,-0.754,-0.7238,-0.6942,-0.6639,-0.6437,-0.6437,-0.6437,-0.6437,-0.6353,-0.6361,-0.6364,-0.6382,-0.639,-0.5879,-0.1616,0.0,0.0,0.0,0.0,0.0,0.0,0.0,0.0,0.0,0.0303,0.0707,0.0808,0.1212,0.1617,0.1617,0.1617,0.1617,0.1617,0.2422,0.3524,0.4524,0.5629,0.6736,0.7839,0.8038,0.8038,0.8038,0.8028,0.7967,0.7814,0.7672,0.7522,0.737,0.7227,0.7139,0.7139,0.7139,0.7139,0.7139,0.6997,0.7052,0.7453,0.7191,0.7633,0.8932,0.9586,1.0346,1.1186,1.1929,1.2305,1.2305,1.2305,1.1929,1.1186,1.1186,1.0432,-3.0446,-3.0112,-2.9001,-2.7883,-2.539,-2.2542,-1.9773,-1.6863,-1.437,-1.3095,-1.286,-1.2893,-1.2987,-1.3355,-1.3606,-1.3544,-1.367,-1.4101,-1.5044,-1.5496,-1.5988,-1.6763,-1.7384,-1.7384,-1.6525,-1.6393,-1.6015,-1.5178,-1.4592,-1.4298,-1.4298,-1.4298,-1.4298,-1.4298,-1.3709,-1.3119,-1.2727,-1.1072,-0.9998,-0.9608,-0.8237,-0.7444,-0.7238,-0.6942,-0.6642,-0.6437,-0.6437,-0.6437,-0.6437,-0.6356,-0.5651,-0.464,-0.5874,-0.4857,-0.2324,-0.0606,0.0,0.0,0.0,0.0,0.0,0.0,0.0,0.0,0.0,0.0606,0.1313,0.1313,0.1415,0.1617,0.1617,0.1617,0.1717,0.2422,0.3425,0.4425,0.5529,0.6634,0.7537,0.7939,0.8038,0.8038,0.8038,0.8038,0.7987,0.7834,0.7692,0.7546,0.739,0.7238,0.7139,0.7139,0.7139,0.7139,0.7139,0.701,0.7039,0.727,0.717,0.7621,0.8644,0.9,0.9894,1.1341,1.149,1.1938,1.2565,1.1938,1.1409,1.1111,1.0576,1.0051,-2.8552,-2.8533,-2.772,-2.6791,-2.4453,-2.1768,-1.9134,-1.6458,-1.4143,-1.3055,-1.2783,-1.279,-1.3129,-1.3371,-1.3405,-1.3098,-1.3067,-1.3193,-1.3494,-1.3866,-1.4355,-1.4859,-1.5576,-1.5886,-1.5577,-1.5543,-1.5458,-1.4987,-1.4592,-1.4298,-1.4298,-1.4298,-1.4298,-1.4298,-1.3221,-1.2533,-1.2242,-1.0485,-0.941,-0.9118,-0.8035,-0.7341,-0.7238,-0.6839,-0.6539,-0.6437,-0.6437,-0.6439,-0.6445,-0.6361,-0.5555,-0.4138,-0.4448,-0.2626,0.0,0.0,0.0,0.0,0.0,0.0,0.0,0.0,0.0,0.0,0.0,0.0707,0.1617,0.1617,0.1617,0.1617,0.1617,0.1617,0.1919,0.2923,0.4024,0.5125,0.6134,0.7238,0.8038,0.8038,0.8038,0.8038,0.8038,0.8038,0.7987,0.7834,0.7692,0.7546,0.739,0.7275,0.719,0.7146,0.718,0.719,0.7143,0.7048,0.699,0.7159,0.7202,0.7527,0.8299,0.8617,0.9426,1.0824,1.0893,1.1272,1.2079,1.1272,1.0801,1.05,0.9951,0.9566,-2.5679,-2.587,-2.5498,-2.4971,-2.2969,-2.0568,-1.8464,-1.607,-1.3978,-1.291,-1.2676,-1.2836,-1.3408,-1.3513,-1.3497,-1.3502,-1.3502,-1.3395,-1.314,-1.2991,-1.3157,-1.3872,-1.375,-1.4001,-1.489,-1.5039,-1.4987,-1.4688,-1.449,-1.4298,-1.4298,-1.4298,-1.4298,-1.4298,-1.3221,-1.2242,-1.1268,-1.0096,-0.9019,-0.8038,-0.7437,-0.7238,-0.7138,-0.6637,-0.6437,-0.6437,-0.6437,-0.6448,-0.6364,-0.6372,-0.6382,-0.5979,-0.1717,-0.0,0.0,0.0,0.0,0.0,0.0,0.0,0.0,0.0,0.0,0.0,0.0,0.0707,0.1617,0.1617,0.1617,0.1617,0.1617,0.1617,0.1919,0.2923,0.4024,0.5125,0.6134,0.7238,0.8038,0.8038,0.8038,0.8038,0.8038,0.8038,0.7987,0.7834,0.7692,0.7546,0.739,0.737,0.7312,0.7156,0.7278,0.7309,0.7153,0.7139,0.7139,0.7139,0.72,0.7431,0.7588,0.8491,0.9096,0.9227,1.0029,1.0423,1.0428,1.0423,1.0029,0.9232,0.9232,0.8742,-2.3646,-2.3725,-2.3226,-2.2686,-2.1331,-1.9589,-1.7404,-1.5639,-1.4154,-1.3055,-1.2783,-1.28,-1.3138,-1.2977,-1.2879,-1.3048,-1.2559,-1.2251,-1.2663,-1.284,-1.3165,-1.4012,-1.4532,-1.5061,-1.5338,-1.5063,-1.479,-1.4694,-1.449,-1.4298,-1.4298,-1.3607,-1.3216,-1.3216,-1.2242,-1.117,-1.0096,-0.9019,-0.8333,-0.8038,-0.7437,-0.7238,-0.7138,-0.6637,-0.6437,-0.6437,-0.6437,-0.6448,-0.6263,-0.4843,-0.5054,-0.5982,-0.1717,0.0,0.0,0.0,0.0,0.0,0.0,0.0,0.0,0.0,0.0,0.0,0.0,0.0505,0.1111,0.1516,0.1617,0.1617,0.1617,0.212,0.2923,0.4024,0.5129,0.6232,0.7238,0.7739,0.8038,0.8038,0.8038,0.8038,0.8038,0.8038,0.8024,0.7974,0.7756,0.7617,0.7665,0.7495,0.7353,0.7302,0.7434,0.7421,0.716,0.7139,0.7139,0.7139,0.7218,0.7381,0.7599,0.7887,0.8582,0.9526,0.9548,0.9958,1.0771,0.9953,0.915,0.8341,0.8341,0.8258,-2.1202,-2.1342,-2.0991,-2.0586,-1.9614,-1.827,-1.6447,-1.5052,-1.392,-1.3065,-1.2949,-1.3092,-1.3309,-1.305,-1.2819,-1.2739,-1.202,-1.1589,-1.1881,-1.2251,-1.2896,-1.378,-1.4616,-1.5126,-1.4846,-1.4754,-1.4688,-1.4592,-1.4394,-1.41,-1.3709,-1.3022,-1.2339,-1.156,-1.0877,-1.0293,-0.9608,-0.8531,-0.8038,-0.8038,-0.7437,-0.7238,-0.7138,-0.6637,-0.6437,-0.6437,-0.6442,-0.6356,0.0,-0.4947,-0.4243,-0.374,-0.101,0.0,0.0,0.0,0.0,0.0,0.0,0.0,0.0,0.0,0.0,0.0,0.0,0.0404,0.0909,0.1415,0.1617,0.1617,0.1617,0.2422,0.3423,0.4524,0.5629,0.6736,0.7739,0.8038,0.8038,0.8038,0.8038,0.8038,0.8038,0.8038,0.8038,0.8038,0.7834,0.7709,0.7801,0.7651,0.7516,0.7461,0.759,0.758,0.7336,0.7261,0.7204,0.7143,0.726,0.7461,0.7696,0.7877,0.8371,0.924,0.9123,0.9288,1.0008,0.9288,0.8724,0.8223,0.8223,0.8223,0.0,-1.881,-1.8795,-1.8672,-1.7788,-1.6664,-1.5601,-1.4441,0.0,-1.3027,-1.3193,-1.3481,-1.3516,-1.3358,-1.3046,-1.2445,-1.1935,-1.1466,-1.1145,-1.1639,-1.2425,-1.3356,-1.4141,-1.4456,-1.3882,-1.4372,-1.4592,-1.4298,-1.4202,-1.3709,-1.2732,-1.2533,-1.156,-0.9706,-0.9509,-0.9509,-0.9509,-0.8531,-0.8038,-0.7942,-0.7437,-0.7238,-0.7138,-0.6637,-0.6437,-0.6439,-0.6356,-0.6369,-0.6377,-0.6388,-0.3843,0.0,0.0,0.0,0.0,0.0,0.0,0.0,0.0,0.0,0.0,0.0,0.0,0.0,0.0101,0.0404,0.0909,0.1415,0.1617,0.1617,0.1718,0.2521,0.3624,0.4624,0.5729,0.6836,0.7739,0.8038,0.8038,0.8038,0.8038,0.8038,0.8038,0.8038,0.8038,0.8038,0.7909,0.7814,0.7824,0.7818,0.776,0.7631,0.7743,0.7767,0.7611,0.7458,0.7309,0.7166,0.7364,0.7688,0.7848,0.8139,0.839,0.8564,0.8568,0.8568,0.8568,0.8568,0.8568,0.8568,0.8568,0.8568,-1.7053,0.0,-1.6978,-1.6978,-1.6315,-1.5545,0.0,-1.4146,-1.3478,-1.3027,-1.291,-1.275,-1.2181,-1.244,-1.2301,-1.1191,-1.1691,-1.2142,-1.179,-1.307,-1.4128,-1.4536,-1.4871,-1.4714,-1.4198,-1.4272,-1.4394,-1.4298,-1.3511,-1.2926,-1.2732,-1.117,-1.0096,-0.9608,-0.8825,-0.8333,-0.8333,-0.8137,-0.7942,-0.7646,-0.7338,-0.7138,-0.6842,-0.6537,-0.6445,-0.6356,-0.6361,-0.6372,-0.6388,-0.639,-0.3843,0.0,0.0,0.0,0.0,0.0,0.0,0.0,0.0,0.0,0.0,0.0,0.0,0.0202,0.101,0.101,0.0909,0.1415,0.1617,0.1818,0.2622,0.3624,0.4726,0.5732,0.6833,0.7739,0.7939,0.8038,0.8038,0.8038,0.8038,0.8038,0.8038,0.8038,0.8038,0.8038,0.7909,0.7851,0.797,0.7882,0.7797,0.7767,0.7896,0.7882,0.7621,0.7458,0.7356,0.7319,0.7262,0.7457,0.7852,0.7994,0.8165,0.8568,0.8568,0.8568,0.8568,0.8568,0.8568,0.8568,0.8568,0.8568,-1.6405,-1.6362,-1.6306,-1.5988,-1.5389,-1.4789,-1.4247,-1.3658,-1.32,-1.2978,0.0,-1.2871,-1.259,-1.2538,-1.2251,-1.1549,-1.1593,-1.1824,-1.1963,-1.3033,-1.3919,-1.4366,-1.4495,-1.4438,-1.4241,-1.4325,-1.4298,-1.4298,-1.3318,-1.2533,-1.2047,-1.0489,-0.941,-0.8924,-0.8333,-0.8038,-0.8038,-0.7842,-0.7743,-0.7547,-0.7241,-0.6942,-0.6745,-0.6548,-0.6353,-0.6364,-0.6372,-0.635,-0.6213,-0.4234,-0.211,0.0,0.0,0.0,0.0,0.0,0.0,0.0,0.0,0.0,0.0,0.0,0.0,0.0202,0.1313,0.1415,0.1414,0.2322,0.2522,0.2622,0.3624,0.4726,0.5729,0.6234,0.7238,0.8038,0.8038,0.8038,0.8038,0.8038,0.8038,0.8038,0.8038,0.8038,0.8038,0.8038,0.797,0.7946,0.8028,0.7967,0.7916,0.7916,0.7991,0.7946,0.7716,0.756,0.7448,0.7377,0.7382,0.7571,0.786,0.8028,0.8208,0.8568,0.8568,0.8568,0.8568,0.8568,0.8568,0.8568,0.8568,0.8568,-1.62,-1.6275,-1.6175,-1.549,-1.488,-1.4329,-1.3752,0.0,0.0,0.0,0.0,0.0,0.0,-1.2959,-1.2541,-1.2277,-1.1596,-1.1416,-1.2188,-1.2712,-1.3211,-1.376,-1.3945,-1.3973,-1.4218,-1.425,-1.4202,-1.41,-1.3022,-1.2047,-1.0974,-0.9903,-0.8924,-0.8038,-0.8038,-0.8028,-0.8004,-0.7733,-0.7547,-0.7543,-0.7045,-0.6745,-0.6742,-0.6537,-0.6234,-0.5932,-0.6253,-0.5991,-0.5103,-0.1497,0.0,0.0,0.0,0.0,0.0,0.0,0.0,0.0,0.0,0.0,0.0,0.0,0.0101,0.0404,0.1212,0.1718,0.2221,0.3528,0.3626,0.3525,0.4726,0.5729,0.6437,0.6637,0.7338,0.8038,0.8038,0.8038,0.8038,0.8038,0.8038,0.8038,0.8038,0.8038,0.8038,0.8038,0.8038,0.8038,0.8038,0.8038,0.8038,0.8038,0.8038,0.7977,0.7824,0.7702,0.7567,0.7414,0.7542,0.7725,0.786,0.8116,0.8292,0.8568,0.8568,0.8568,0.8568,0.8568,0.8568,0.8568,0.8568,0.8568,-1.6044,-1.6044,-1.5944,-1.5445,-1.4801,-1.4201,-1.3705,-1.3152,0.0,0.0,0.0,0.0,0.0,-1.2482,-1.258,-1.1338,-1.173,-1.2672,-1.4082,-1.4078,-1.3989,-1.4161,-1.4408,-1.4372,-1.3939,-1.4133,-1.3902,-1.3022,-1.195,-1.0979,-0.9899,-0.8825,-0.8137,-0.8038,-0.8038,-0.7977,-0.7848,-0.7681,-0.7444,-0.7238,-0.6942,-0.6642,-0.6434,-0.6448,-0.5417,-0.3837,-0.5632,-0.4298,-0.0959,-0.0293,0.0,0.0,0.0,0.0,0.0,0.0,0.0,0.0,0.0,0.0,0.0,0.0,0.0598,0.1313,0.101,0.2119,0.3629,0.4427,0.3924,0.3626,0.5632,0.6234,0.6637,0.7537,0.7839,0.8038,0.8038,0.8038,0.8038,0.8038,0.8038,0.8038,0.8038,0.8038,0.8038,0.8038,0.8038,0.8038,0.8038,0.8038,0.8038,0.8038,0.8038,0.7977,0.7824,0.779,0.7719,0.7573,0.7319,0.7432,0.7856,0.8116,0.8292,0.8568,0.8568,0.8568,0.8568,0.8568,0.8568,0.8568,0.8568,0.8568,-1.5603,-1.5457,-1.5311,-1.4846,-1.449,-1.4035,-1.3286,-1.2813,-1.2578,0.0,0.0,0.0,-1.1928,-1.2204,-1.2364,-1.1754,-1.2144,-1.266,-1.3365,-1.3458,-1.3585,-1.3717,-1.3882,-1.4013,-1.4105,-1.3671,-1.3221,-1.2732,-1.1268,-1.0096,-0.9608,-0.8543,-0.7916,-0.7916,-0.7841,-0.7671,-0.7502,-0.7283,-0.7161,-0.7134,-0.6719,-0.6517,-0.6352,-0.6415,-0.5869,-0.4837,-0.348,-0.1815,0.0,0.0,0.0,0.0,0.0,0.0,0.0,0.0,0.0,0.0,0.0,0.0,0.01,0.069,0.1194,0.1718,0.222,0.3025,0.4029,0.5329,0.5329,0.5331,0.6836,0.7238,0.7437,0.7839,0.8038,0.8038,0.8038,0.8038,0.8038,0.8038,0.8038,0.8038,0.8038,0.8038,0.8038,0.8038,0.8038,0.8038,0.8038,0.8038,0.8038,0.8038,0.8038,0.7946,0.7716,0.7767,0.775,0.7607,0.7557,0.7661,0.7843,0.8121,0.8341,0.8527,0.8524,0.8568,0.8568,0.8568,0.8568,0.8568,0.8568,0.8568,-1.5379,-1.5096,-1.4812,-1.4398,-1.4118,-1.3784,-1.3125,-1.2847,-1.2723,-1.2723,-1.2772,-1.2654,-1.2132,-1.2006,-1.2027,-1.2191,-1.2486,-1.2719,-1.2776,-1.2937,-1.3249,-1.3441,-1.3389,-1.3537,-1.3761,-1.3042,-1.2374,-1.1889,-1.0448,-0.9389,-0.9096,-0.8304,-0.7763,-0.7763,-0.7655,-0.7486,-0.7166,-0.6917,-0.6798,-0.6903,-0.6527,-0.6331,-0.6338,-0.6426,-0.637,-0.6181,-0.1894,0.0,0.0,0.0,0.0,0.0,0.0,0.0,0.0,0.0,0.0,0.0,0.0,0.0097,0.0494,0.1266,0.157,0.1796,0.2902,0.3604,0.4305,0.5625,0.6434,0.6936,0.7739,0.8014,0.7994,0.8031,0.8011,0.7994,0.8031,0.8038,0.8038,0.8038,0.8038,0.8038,0.8038,0.8038,0.8038,0.8038,0.8038,0.8038,0.8038,0.8038,0.8038,0.8038,0.8038,0.7933,0.7672,0.775,0.7767,0.7655,0.7802,0.7875,0.7872,0.8221,0.8409,0.8371,0.8605,0.8609,0.8568,0.8568,0.8568,0.8568,0.8568,0.8568,-1.5748,-1.5322,-1.4766,-1.4316,-1.3742,-1.3367,-1.3831,-1.3656,-1.3429,-1.3429,-1.3922,-1.382,-1.2227,-1.1688,-1.1687,-1.2048,-1.2769,-1.3479,-1.3733,-1.3811,-1.3713,-1.3513,-1.3489,-1.3138,-1.2345,-1.2167,-1.1426,-0.9584,-0.9308,-0.875,-0.782,-0.7621,-0.7614,-0.7614,-0.7604,-0.7439,-0.7027,-0.6873,-0.675,-0.6567,-0.6306,-0.6216,-0.6205,-0.6301,-0.6438,-0.6149,-0.1854,0.0,0.0,0.0,0.0,0.0,0.0,0.0,0.0,0.0,0.0,0.0,0.0,0.0557,0.1304,0.1395,0.1414,0.1538,0.1664,0.314,0.4716,0.4901,0.6329,0.7939,0.7939,0.7933,0.7865,0.8007,0.7929,0.7868,0.8011,0.8038,0.8038,0.8038,0.8038,0.8038,0.8038,0.8038,0.8038,0.8038,0.8038,0.8038,0.8038,0.8038,0.8038,0.8038,0.8038,0.7974,0.7811,0.7804,0.7807,0.7797,0.7672,0.7691,0.7872,0.8142,0.8344,0.8375,0.8631,0.8727,0.8568,0.8568,0.8568,0.8568,0.8568,0.8568,-1.522,-1.4628,-1.4071,-1.3967,-1.3218,0.0,0.0,-1.3355,-1.3276,-1.3062,-1.3283,-1.3141,-1.1791,-1.1139,-1.1153,-1.1989,-1.2634,-1.31,-1.3549,-1.3695,-1.3628,-1.3525,-1.2956,-1.2489,-1.2113,-1.1012,-1.0001,-0.9266,-0.8617,-0.8063,-0.7597,-0.7509,-0.7458,-0.7458,-0.7275,-0.6889,-0.6571,-0.6352,-0.616,-0.5914,-0.6054,-0.617,-0.6194,-0.3622,-0.2391,-0.2363,-0.0727,0.0,0.0,0.0,0.0,0.0,0.0,0.0,0.0,0.0,0.0,0.0,0.0,0.0647,0.1412,0.1394,0.1407,0.1718,0.3072,0.4037,0.4905,0.6198,0.7084,0.7787,0.7875,0.7855,0.7824,0.7882,0.7851,0.7851,0.8007,0.8038,0.8038,0.8038,0.8038,0.8038,0.8038,0.8038,0.8038,0.8038,0.8038,0.8038,0.8038,0.8038,0.8038,0.8038,0.7957,0.7913,0.795,0.7865,0.7851,0.7946,0.7902,0.7828,0.7828,0.811,0.8262,0.8197,0.8539,0.8629,0.8568,0.8568,0.8568,0.8568,0.8568,0.8568,-1.4789,-1.4107,-1.361,-1.3542,0.0,0.0,-1.3088,-1.3433,-1.3671,-1.3514,-1.3101,-1.257,-1.1703,-1.1005,-1.0918,-1.1921,-1.2517,-1.2964,-1.3338,-1.3393,-1.3357,-1.3266,-1.2439,-1.1711,-1.1436,-0.9904,-0.8798,-0.8473,-0.7749,-0.7366,-0.7319,-0.7125,-0.7068,-0.7068,-0.6799,-0.6442,-0.6096,-0.6005,-0.5797,-0.5477,-0.5822,-0.6056,-0.602,-0.1906,0.0,0.0,0.0,0.0,0.0,0.0,0.0,0.0,0.0,0.0,0.0,0.0,0.0181,0.0457,0.0451,0.0823,0.1401,0.1381,0.1388,0.1779,0.3199,0.4049,0.4902,0.6258,0.7123,0.7611,0.7658,0.7706,0.7756,0.7801,0.7811,0.7851,0.8007,0.8038,0.8038,0.8038,0.8038,0.8038,0.8038,0.8038,0.8038,0.8038,0.8038,0.8038,0.8038,0.8038,0.8038,0.8038,0.7946,0.7926,0.8031,0.7943,0.7926,0.8031,0.8038,0.8069,0.7918,0.8193,0.8318,0.8197,0.8531,0.8621,0.8568,0.8568,0.8568,0.8568,0.8568,0.8568,-1.4652,-1.4061,-1.3515,-1.3112,0.0,0.0,-1.3699,-1.4203,-1.4614,-1.5012,-1.3623,-1.2285,-1.2025,-1.1371,-1.115,-1.1793,-1.259,-1.3115,-1.3121,-1.3121,-1.3019,-1.2735,-1.1837,-1.0885,-1.0005,-0.9056,-0.8032,-0.6936,-0.6926,-0.6861,-0.6709,-0.6529,-0.636,-0.636,-0.6201,-0.5954,-0.5707,-0.5877,-0.5802,-0.5393,-0.5574,-0.5647,-0.5505,-0.1741,0.0,0.0,0.0,0.0,0.0,0.0,0.0,0.0,0.0,0.0,0.0,0.0,0.0629,0.1436,0.1436,0.1436,0.1436,0.1436,0.1436,0.1441,0.1471,0.2954,0.4537,0.4628,0.6075,0.756,0.7407,0.7485,0.7634,0.7777,0.7811,0.7851,0.8007,0.8038,0.8038,0.8038,0.8038,0.8038,0.8038,0.8038,0.8038,0.8038,0.8038,0.8038,0.8038,0.8038,0.8038,0.8038,0.8038,0.8038,0.8038,0.8038,0.8038,0.8038,0.8233,0.8364,0.8215,0.8494,0.8528,0.8375,0.8639,0.8735,0.8568,0.8568,0.8568,0.8568,0.8568,0.8568,-1.3931,-1.342,-1.2958,-1.2813,-1.2723,-1.2927,-1.3699,-1.3974,-1.4025,-1.3814,-1.2787,-1.1878,-1.1433,-1.1218,-1.1141,-1.1576,-1.2155,-1.262,-1.2801,-1.2831,-1.2466,-1.1691,-1.0731,-0.9742,-0.8752,-0.7747,-0.7063,-0.6773,-0.677,-0.6662,-0.6529,-0.6529,-0.645,-0.6201,-0.6117,-0.5912,-0.5668,-0.5583,-0.5381,-0.5148,-0.5154,-0.3938,-0.1616,-0.051,0.0,0.0,0.0,0.0,0.0,0.0,0.0,0.0,0.0,0.0,0.0,0.0,0.0629,0.1436,0.1436,0.1436,0.1436,0.1436,0.1436,0.1616,0.3064,0.3879,0.4604,0.5992,0.6821,0.7265,0.7221,0.7404,0.7611,0.7651,0.774,0.7851,0.8007,0.8038,0.8038,0.8038,0.8038,0.8038,0.8038,0.8038,0.8038,0.8038,0.8038,0.8038,0.8038,0.8038,0.8038,0.8038,0.8038,0.8038,0.8038,0.8038,0.7994,0.7885,0.8174,0.8314,0.7956,0.8415,0.8532,0.8282,0.8553,0.8617,0.8568,0.8568,0.8568,0.8568,0.8568,0.8568,-1.3286,-1.2968,-1.2715,-1.2679,-1.2824,-1.3121,-1.3756,-1.4255,-1.4367,-1.3588,-1.2796,-1.204,-1.139,-1.1184,-1.1208,-1.1486,-1.1884,-1.221,-1.2373,-1.2141,-1.1661,-1.1007,-0.9829,-0.8787,-0.818,-0.7274,-0.6651,-0.6451,-0.6441,-0.6334,-0.6035,-0.6064,-0.5981,-0.5802,-0.5642,-0.553,-0.5463,-0.5274,-0.5108,-0.4967,-0.4969,-0.3275,0.0,0.0,0.0,0.0,0.0,0.0,0.0,0.0,0.0,0.0,0.0349,0.0529,0.0533,0.0355,0.0713,0.1436,0.1436,0.1436,0.1436,0.1436,0.1436,0.1704,0.331,0.4022,0.4645,0.616,0.6786,0.7139,0.7139,0.7326,0.7522,0.7587,0.7753,0.7926,0.8021,0.8038,0.8038,0.8137,0.8137,0.8137,0.8137,0.8137,0.8137,0.8041,0.8038,0.8038,0.8038,0.8038,0.8038,0.8038,0.8038,0.8038,0.8137,0.8038,0.8076,0.8115,0.8387,0.8394,0.8073,0.8486,0.8547,0.8388,0.8476,0.8568,0.8568,0.8568,0.8568,0.8568,0.8568,0.8568,-1.2774,-1.2627,-1.2624,-1.2674,-1.3066,-1.3476,-1.3767,-1.4684,-1.5174,-1.3926,-1.3262,-1.2607,-1.171,-1.1323,-1.1232,-1.1492,-1.1751,-1.192,-1.192,-1.1186,-1.0686,-1.0584,-0.9117,-0.8049,-0.7865,-0.7129,-0.6438,-0.6002,-0.5902,-0.5771,-0.5498,-0.5155,-0.5149,-0.5352,-0.498,-0.4908,-0.4989,-0.5032,-0.4854,-0.4538,-0.4545,-0.2971,0.0,0.0,0.0,0.0,0.0,0.0,0.0,0.0,0.0,0.0084,0.0926,0.1365,0.1302,0.0957,0.1056,0.1428,0.1433,0.1433,0.1431,0.1431,0.1433,0.1613,0.2681,0.3662,0.4556,0.5539,0.6428,0.7139,0.7139,0.7255,0.7411,0.7563,0.7814,0.8021,0.8035,0.8041,0.8137,0.8333,0.8432,0.8432,0.8432,0.8333,0.8233,0.8038,0.8038,0.8038,0.8038,0.8038,0.8038,0.8038,0.8038,0.8137,0.8432,0.8237,0.8273,0.8601,0.8605,0.8562,0.8405,0.8613,0.8718,0.8572,0.8568,0.8568,0.8568,0.8568,0.8568,0.8568,0.8568,0.8568,-1.2274,-1.2224,-1.2317,-1.2614,-1.3474,-1.4013,-1.3216,-1.3717,-1.4003,-1.3077,-1.2528,-1.2094,-1.1557,-1.1479,-1.1461,-1.1522,-1.1751,-1.192,-1.192,-1.1186,-1.0386,-0.9567,-0.8595,-0.7529,-0.6419,-0.6093,-0.5868,-0.5475,-0.5463,-0.5377,-0.5134,-0.5174,-0.5177,-0.4924,-0.507,-0.5079,-0.5026,-0.4981,-0.3643,-0.1111,-0.1111,-0.0667,0.0,0.0,0.0,0.0,0.0,0.0,0.0,0.0,0.0,0.0082,0.092,0.1267,0.1276,0.1298,0.1296,0.1288,0.1419,0.142,0.1399,0.1399,0.1416,0.1698,0.3419,0.4056,0.4643,0.6337,0.6962,0.7139,0.7139,0.7255,0.7411,0.7563,0.7733,0.7892,0.8014,0.8137,0.8333,0.8432,0.8432,0.8432,0.8432,0.8233,0.8038,0.8038,0.8038,0.8038,0.8038,0.8038,0.8038,0.8333,0.8333,0.8432,0.8726,0.8627,0.8659,0.8601,0.8909,0.8925,0.8668,0.8746,0.8689,0.8572,0.8568,0.8568,0.8568,0.8568,0.8568,0.8568,0.8568,0.8568,-1.1819,-1.166,-1.1488,-1.187,-1.2711,-1.3252,-1.2421,-1.2417,-1.247,-1.2054,-1.1877,-1.1745,-1.1356,-1.1226,-1.1184,-1.131,-1.1232,-1.1051,-1.0865,-1.0013,-0.9064,-0.8125,-0.7287,-0.6464,-0.5638,-0.5552,-0.5422,-0.5074,-0.5065,-0.4992,-0.4782,-0.4795,-0.4795,-0.4728,-0.4731,-0.4087,-0.2655,-0.2614,-0.175,0.0,0.0,0.0,0.0,0.0,0.0,0.0,0.0,0.0,0.0,0.0487,0.0647,0.0641,0.1136,0.1313,0.1328,0.1344,0.1349,0.1268,0.1383,0.1383,0.137,0.137,0.1649,0.2377,0.3734,0.4568,0.527,0.6694,0.7139,0.7139,0.7139,0.72,0.7319,0.7546,0.7706,0.7851,0.8007,0.8137,0.8237,0.8333,0.8432,0.8432,0.8432,0.8233,0.8237,0.8237,0.8333,0.8432,0.8432,0.8432,0.8432,0.8531,0.8627,0.873,0.8928,0.8825,0.8856,0.8983,0.9061,0.9087,0.8913,0.8906,0.8869,0.869,0.8686,0.8649,0.8568,0.8568,0.8568,0.8568,0.8568,0.8568,-1.125,-1.0989,-1.0677,-1.0937,-1.1584,-1.2035,-1.1534,-1.1249,-1.1083,-1.1022,-1.1172,-1.1293,-1.101,-1.0797,-1.0725,-1.0942,-1.0468,-0.9979,-0.9614,-0.8541,-0.758,-0.6797,-0.6018,-0.5369,-0.5197,-0.5194,-0.5068,-0.4732,-0.472,-0.4643,-0.4412,-0.4322,-0.4314,-0.4261,-0.4293,-0.2911,-0.0,0.0,0.0,0.0,0.0,0.0,0.0,0.0,0.0,0.0,0.0,0.0078,0.0312,0.1015,0.133,0.1335,0.1335,0.1273,0.1295,0.1301,0.1315,0.1333,0.126,0.126,0.134,0.1507,0.2127,0.3032,0.4136,0.4993,0.5897,0.6874,0.7139,0.7139,0.7139,0.7139,0.721,0.7495,0.7648,0.779,0.7994,0.8038,0.8137,0.8333,0.8432,0.8432,0.8432,0.8432,0.8432,0.8432,0.8627,0.8825,0.8825,0.8825,0.8825,0.8825,0.8825,0.8928,0.9232,0.9027,0.9064,0.9409,0.9212,0.9148,0.9194,0.919,0.9088,0.8873,0.8836,0.8735,0.8568,0.8568,0.8568,0.8568,0.8568,0.8568,-1.0226,-1.0428,-1.0555,-1.03,-1.1004,-1.1465,-1.039,-1.0481,-1.0704,-1.019,-1.0268,-1.0463,-1.0429,-1.0405,-1.0393,-1.0429,-0.9735,-0.9136,-0.9092,-0.7726,-0.6647,-0.6579,-0.58,-0.5185,-0.4929,-0.4848,-0.4726,-0.44,-0.4392,-0.4278,-0.417,-0.4226,-0.3727,-0.2513,-0.368,-0.2942,-0.0,0.0,0.0,0.0,0.0,0.0,0.0,0.0,0.0,0.0,0.0,0.0447,0.1141,0.1217,0.1311,0.1335,0.1335,0.1338,0.1266,0.1293,0.1288,0.1277,0.133,0.1331,0.139,0.2202,0.26,0.3111,0.4821,0.554,0.5897,0.6874,0.7139,0.7139,0.7139,0.7139,0.7183,0.736,0.7417,0.7543,0.795,0.8134,0.8333,0.8432,0.8627,0.8627,0.8432,0.8627,0.8726,0.8726,0.8825,0.8825,0.8825,0.8825,0.8928,0.9133,0.9133,0.9232,0.9529,0.9525,0.9517,0.9592,0.9493,0.9485,0.9559,0.9559,0.9401,0.9068,0.8901,0.8735,0.8568,0.8568,0.8568,0.8568,0.8568,0.8568,-0.919,-0.9604,-0.9917,-0.94,-0.9722,-0.9993,-0.9176,-0.9461,-0.9793,-0.9482,-0.9634,-0.9916,-1.0272,-1.0212,-0.9947,-0.9597,-0.8974,-0.83,-0.7592,-0.6692,-0.5953,-0.5477,-0.5139,-0.4774,-0.4518,-0.4515,-0.4493,-0.4306,-0.4238,-0.4178,-0.4193,-0.4135,-0.3825,-0.3338,-0.2377,-0.1259,-0.0,0.0,0.0,0.0,0.0,0.0,0.0,0.0,0.0,0.0,0.0,0.044,0.1187,0.128,0.1296,0.1234,0.1251,0.1335,0.1338,0.1272,0.1269,0.1261,0.1288,0.1288,0.1436,0.2309,0.293,0.376,0.5103,0.5908,0.6514,0.6939,0.7139,0.7139,0.7139,0.7139,0.718,0.7333,0.737,0.7448,0.7733,0.789,0.8011,0.829,0.8474,0.8627,0.863,0.8829,0.9031,0.9031,0.913,0.9225,0.9225,0.9225,0.9327,0.943,0.943,0.943,0.9628,0.9628,0.9628,0.9628,0.9628,0.9628,0.9628,0.9628,0.9506,0.9246,0.9068,0.884,0.8568,0.8568,0.8568,0.8568,0.8568,0.8568,-0.8421,-0.8784,-0.9047,-0.8521,-0.8626,-0.8726,-0.8403,-0.8645,-0.8968,-0.8968,-0.9122,-0.935,-0.9597,-0.9542,-0.9287,-0.8638,-0.7984,-0.7236,-0.6237,-0.5751,-0.5286,-0.4628,-0.4466,-0.4394,-0.4298,-0.4243,-0.4221,-0.4251,-0.414,-0.4061,-0.4167,-0.3712,-0.3658,-0.412,-0.1459,0.0,0.0,0.0,0.0,0.0,0.0,0.0065,0.0259,0.0264,0.0205,0.0143,0.0214,0.0574,0.1084,0.1179,0.1198,0.1214,0.1237,0.125,0.1335,0.1335,0.1335,0.1335,0.1335,0.1414,0.1727,0.2588,0.3501,0.447,0.5451,0.6266,0.6953,0.7058,0.7112,0.7139,0.7139,0.7139,0.717,0.7285,0.7312,0.7377,0.7701,0.7749,0.7889,0.8236,0.8456,0.863,0.8829,0.913,0.9331,0.9331,0.943,0.9628,0.9628,0.9628,0.9628,0.9628,0.9628,0.9628,0.9628,0.9628,0.9628,0.9628,0.9628,0.9628,0.9628,0.9628,0.9543,0.936,0.923,0.8986,0.8629,0.8589,0.8568,0.8568,0.8568,0.8568,-0.7955,-0.7955,-0.7955,-0.7955,-0.8148,-0.8347,-0.8291,-0.8501,-0.8699,-0.8699,-0.8673,-0.8477,-0.7963,-0.8095,-0.8057,-0.741,-0.6412,-0.5683,-0.5627,-0.4897,-0.4367,-0.43,-0.4197,-0.4172,-0.4289,-0.4091,-0.4001,-0.4118,-0.4012,-0.3898,-0.3851,-0.2775,-0.2623,-0.3632,-0.1279,0.0,0.0,0.0,0.0,0.0,0.0,0.0378,0.1033,0.1035,0.0856,0.0474,0.088,0.1099,0.1123,0.1125,0.1159,0.1212,0.1213,0.1232,0.1335,0.1335,0.1335,0.1335,0.1335,0.1805,0.2588,0.3443,0.437,0.5267,0.616,0.6692,0.6929,0.6939,0.7037,0.7139,0.7139,0.7139,0.7143,0.7149,0.7153,0.7272,0.8002,0.8197,0.8243,0.8685,0.9027,0.9133,0.9133,0.943,0.9529,0.9529,0.9628,0.9628,0.9628,0.9628,0.9628,0.9628,0.9628,0.9628,0.9628,0.9628,0.9628,0.9628,0.9628,0.9628,0.9628,0.9628,0.9543,0.936,0.9348,0.9165,0.8808,0.8645,0.8568,0.8568,0.8568,0.8568,-0.7901,-0.7628,-0.7413,-0.7413,-0.7475,-0.7543,-0.7543,-0.8014,-0.8372,-0.8195,-0.8106,-0.7767,-0.6902,-0.7301,-0.7322,-0.6129,-0.5619,-0.5123,-0.4565,-0.4253,-0.4066,-0.4066,-0.4028,-0.4018,-0.4061,-0.3988,-0.3955,-0.4069,-0.3956,-0.3932,-0.4136,-0.3475,-0.2503,-0.1347,-0.0454,0.0,0.0,0.0,0.0,0.0,0.0,0.038,0.1069,0.111,0.1002,0.0877,0.1012,0.1084,0.1095,0.1114,0.1145,0.1185,0.1204,0.123,0.1335,0.1335,0.1335,0.1335,0.1335,0.1492,0.1961,0.3365,0.401,0.4604,0.6039,0.6617,0.6803,0.6902,0.7031,0.7139,0.7139,0.7139,0.7139,0.7139,0.7231,0.7485,0.8033,0.8171,0.835,0.8691,0.8891,0.9202,0.941,0.9529,0.9628,0.9628,0.9628,0.9628,0.9628,0.9628,0.9628,0.9628,0.9628,0.9579,0.9462,0.9453,0.9453,0.9453,0.9453,0.9506,0.9624,0.9628,0.9596,0.9531,0.9417,0.9177,0.882,0.8759,0.8674,0.8568,0.8568,0.8568,-0.7246,-0.6918,-0.6647,-0.6647,-0.6647,-0.6647,-0.6647,-0.7093,-0.7427,-0.7255,-0.7099,-0.6759,-0.5868,-0.6126,-0.6172,-0.5029,-0.4776,-0.4537,-0.3994,-0.3872,-0.3872,-0.3872,-0.3898,-0.389,-0.387,-0.3863,-0.3838,-0.4008,-0.348,-0.342,-0.4019,-0.3769,-0.2475,-0.0056,0.0,0.0,0.0,0.0,0.0,0.0,0.0242,0.0561,0.0928,0.1041,0.1069,0.1078,0.1078,0.1078,0.108,0.1098,0.1124,0.1154,0.1185,0.1215,0.1243,0.1254,0.1335,0.1335,0.1335,0.1649,0.2352,0.3441,0.4144,0.4862,0.6051,0.6505,0.6644,0.6746,0.6915,0.7068,0.7068,0.7105,0.7139,0.7231,0.7453,0.7778,0.8099,0.8238,0.8474,0.8867,0.908,0.922,0.9497,0.9628,0.9628,0.9628,0.9628,0.9628,0.9628,0.9628,0.9628,0.9628,0.9628,0.9555,0.9368,0.9413,0.9421,0.936,0.9413,0.9502,0.9624,0.9628,0.9628,0.9628,0.9506,0.9299,0.8999,0.8942,0.8824,0.8653,0.8653,0.8653,0.0,0.0,0.0,-0.5773,-0.5773,-0.5773,-0.5773,-0.5773,-0.5773,-0.5773,-0.5694,-0.5417,-0.4809,-0.4635,-0.4497,-0.4215,-0.405,-0.3864,-0.3864,-0.3864,-0.3864,-0.3864,-0.3819,-0.3795,-0.3912,-0.3719,-0.3634,-0.3751,-0.2565,-0.2355,-0.3442,-0.3498,-0.2419,-0.0056,0.0,0.0,0.0,0.0,0.0,0.0056,0.0754,0.0899,0.0556,0.0892,0.1115,0.1076,0.1076,0.1076,0.1076,0.1076,0.1093,0.1124,0.1153,0.1184,0.1215,0.1245,0.1335,0.1335,0.1335,0.2352,0.3752,0.383,0.4927,0.6261,0.6261,0.6359,0.6474,0.6478,0.6698,0.6929,0.6932,0.7037,0.7143,0.7415,0.78,0.8144,0.8155,0.8337,0.8647,0.9271,0.9348,0.9413,0.9592,0.9624,0.9628,0.9628,0.9628,0.9628,0.9628,0.9628,0.9628,0.9628,0.9628,0.9555,0.9368,0.9518,0.9543,0.9364,0.9518,0.962,0.9628,0.9628,0.9628,0.9628,0.9628,0.9539,0.9364,0.919,0.9011,0.8828,0.8828,0.8828,-0.5882,0.0,0.0,0.0,0.0,0.0,-0.5171,-0.55,-0.5719,-0.5496,-0.5203,-0.4834,-0.4405,-0.4104,-0.3868,-0.3792,-0.3738,-0.368,-0.368,-0.368,-0.368,-0.368,-0.3651,-0.3645,-0.3678,-0.3621,-0.3258,-0.2437,-0.2822,-0.2473,-0.1066,-0.101,-0.0673,-0.0,0.0,0.0,0.0,0.0,0.0224,0.0673,0.087,0.0899,0.0865,0.0956,0.1049,0.1076,0.1076,0.1076,0.1076,0.1076,0.1093,0.1122,0.113,0.1166,0.1213,0.1221,0.1239,0.1335,0.1335,0.1961,0.2978,0.3599,0.4533,0.5473,0.6103,0.6359,0.6495,0.6607,0.6776,0.6953,0.7054,0.7204,0.7415,0.7507,0.7801,0.8205,0.8376,0.8512,0.8613,0.8926,0.9177,0.9372,0.9421,0.9539,0.9628,0.9628,0.9628,0.9628,0.9628,0.9628,0.9628,0.9628,0.9628,0.9555,0.9368,0.9401,0.9409,0.936,0.9405,0.949,0.962,0.9628,0.9628,0.9628,0.9628,0.9604,0.9551,0.9372,0.9194,0.9019,0.9019,0.9019,0.0,0.0,0.0,-0.4353,0.0,0.0,-0.4353,-0.4625,-0.4846,-0.4625,-0.4405,-0.4184,-0.3962,-0.3747,-0.3585,-0.3585,-0.3585,-0.3585,-0.3585,-0.3585,-0.3585,-0.3585,-0.3585,-0.3585,-0.3585,-0.3591,-0.3314,-0.2583,-0.2247,-0.1459,-0.0056,0.0,0.0,0.0,0.0,0.0,0.0,0.0,0.028,0.0898,0.0928,0.0959,0.0989,0.102,0.1049,0.1076,0.1076,0.1076,0.1076,0.1076,0.1086,0.1103,0.1116,0.1142,0.1176,0.1202,0.1452,0.1781,0.18,0.2588,0.36,0.4144,0.4846,0.5631,0.618,0.6318,0.6403,0.6491,0.6671,0.6881,0.7179,0.7415,0.7507,0.7768,0.8082,0.8407,0.8531,0.8665,0.8816,0.8917,0.9104,0.9271,0.934,0.9506,0.9628,0.9628,0.9628,0.9628,0.9628,0.9628,0.96,0.9522,0.9583,0.9522,0.9267,0.9384,0.9437,0.936,0.9425,0.9514,0.9624,0.9628,0.9628,0.9628,0.9628,0.9628,0.9628,0.9518,0.9376,0.9206,0.9206,0.9206,0.0,0.0,0.0,-0.3585,-0.3585,0.0,-0.3585,-0.3585,-0.3585,-0.3585,-0.3585,-0.3585,-0.3585,-0.3585,-0.3585,-0.3585,-0.3585,-0.3585,-0.3585,-0.3585,-0.3585,-0.3585,-0.3585,-0.3585,-0.3585,-0.3602,-0.3613,-0.3613,-0.1347,0.0,0.0,0.0,0.0,0.0,0.0,0.0,0.0,0.0056,0.0336,0.0842,0.0867,0.0956,0.0989,0.1016,0.1046,0.1076,0.1076,0.1076,0.1076,0.1076,0.1076,0.1078,0.1105,0.1118,0.1127,0.1255,0.1804,0.2494,0.2556,0.3665,0.4985,0.4999,0.5553,0.6338,0.6338,0.6271,0.6288,0.6305,0.6522,0.6891,0.7323,0.7492,0.768,0.8113,0.8321,0.8493,0.8625,0.8828,0.9043,0.9064,0.91,0.9169,0.9303,0.9494,0.9628,0.9628,0.9628,0.9628,0.9628,0.9612,0.9543,0.9401,0.951,0.9478,0.9181,0.9445,0.9559,0.9393,0.9539,0.9628,0.9628,0.9628,0.9628,0.9628,0.9628,0.9628,0.9628,0.9628,0.9543,0.9384,0.9384,0.9384,-0.3638,-0.3585,-0.3585,-0.3585,-0.3591,0.0,-0.3596,-0.3596,-0.3596,-0.3596,-0.3596,-0.3596,-0.3596,-0.3596,-0.3596,-0.3596,-0.3591,-0.3585,-0.3585,-0.3585,-0.3585,-0.3585,-0.3585,-0.3585,-0.3585,-0.3602,-0.3613,-0.3613,-0.1347,0.0,0.0,0.0,0.0,0.0,0.0,0.0,0.0,0.0505,0.0673,0.0505,0.079,0.0935,0.0988,0.0994,0.1026,0.1076,0.1076,0.1076,0.1076,0.1076,0.1076,0.1076,0.1082,0.1099,0.1192,0.177,0.2088,0.2354,0.3093,0.3951,0.4871,0.4972,0.5553,0.6338,0.6338,0.6339,0.6458,0.658,0.6827,0.7041,0.7242,0.7581,0.7856,0.8113,0.8408,0.8645,0.8747,0.8718,0.871,0.8848,0.9108,0.9271,0.9165,0.9413,0.9628,0.9628,0.9628,0.9628,0.9628,0.9498,0.9449,0.9563,0.9474,0.9441,0.9518,0.9587,0.9612,0.9575,0.9608,0.9628,0.9628,0.9628,0.9628,0.9628,0.9628,0.9628,0.9628,0.9628,0.9608,0.9575,0.9575,0.9575,-0.3585,-0.3588,-0.3477,-0.2854,-0.2689,0.0,0.0,-0.2691,-0.2691,-0.2691,-0.2691,-0.2691,-0.2691,-0.2691,-0.2691,-0.2691,-0.2687,-0.2912,-0.3532,-0.3588,-0.3585,-0.3591,-0.3596,-0.3599,-0.3599,-0.2527,-0.1797,-0.1797,-0.0673,0.0,0.0,0.0,0.0,0.0,0.0,0.0,0.0,0.0285,0.0513,0.0673,0.0799,0.0936,0.0967,0.0982,0.1013,0.1055,0.1069,0.1076,0.1076,0.1076,0.1076,0.1076,0.1076,0.1288,0.1648,0.2018,0.2678,0.344,0.3946,0.4672,0.5448,0.5585,0.5944,0.6338,0.6338,0.6312,0.6413,0.6637,0.6753,0.6908,0.7328,0.758,0.7835,0.8273,0.8476,0.8593,0.8674,0.8625,0.8593,0.8678,0.8905,0.9088,0.9096,0.9315,0.9522,0.9612,0.9551,0.9527,0.9616,0.947,0.9388,0.9482,0.949,0.949,0.949,0.9575,0.9628,0.9628,0.9628,0.9628,0.9628,0.9628,0.9628,0.9628,0.9628,0.9628,0.9628,0.9628,0.9628,0.9628,0.9628,0.9628,-0.3135,-0.3084,-0.2863,-0.2017,-0.1567,-0.1343,0.0,0.0,0.0,-0.1399,-0.1342,-0.1286,-0.1343,-0.1399,-0.1511,-0.1736,-0.1792,-0.2017,-0.2637,-0.297,-0.3137,-0.3086,-0.3378,-0.3498,-0.3268,-0.1178,0.0112,0.0,0.0,0.0,0.0,0.0,0.0,0.0,0.0,0.0,0.0,0.0058,0.0347,0.085,0.0867,0.0884,0.0901,0.098,0.1008,0.1043,0.1066,0.1076,0.1076,0.1076,0.1143,0.1276,0.1276,0.1612,0.2153,0.2476,0.3395,0.4538,0.4851,0.5384,0.6017,0.62,0.6338,0.6271,0.6329,0.6325,0.6359,0.6624,0.6713,0.677,0.741,0.7603,0.7857,0.8444,0.8568,0.8568,0.8568,0.8568,0.8568,0.8568,0.8678,0.884,0.906,0.9242,0.9417,0.96,0.9474,0.9421,0.9604,0.9437,0.9332,0.9401,0.9506,0.9531,0.9417,0.9543,0.9628,0.9628,0.9628,0.9628,0.9628,0.9628,0.9628,0.9628,0.9628,0.9628,0.9628,0.9628,0.9628,0.9628,0.9628,0.9628,-0.1397,-0.1231,-0.129,-0.1684,-0.0841,0.0224,0.0505,0.0,-0.0112,0.0112,0.0,0.0505,0.0224,0.0,0.0,-0.1628,-0.1797,-0.129,0.0168,-0.0728,-0.1457,-0.123,-0.2641,-0.3156,-0.2135,-0.028,0.0561,0.0056,0.0,0.0,0.0,0.0,0.0,0.0,0.0,0.0,0.0,0.0225,0.04,0.0527,0.08,0.0945,0.0959,0.0999,0.1018,0.1071,0.1074,0.1076,0.1076,0.1076,0.1478,0.2013,0.2013,0.2013,0.2281,0.3563,0.4172,0.4476,0.5367,0.5755,0.5874,0.6166,0.6338,0.6312,0.6573,0.6556,0.6481,0.6654,0.6951,0.7274,0.7424,0.7777,0.8177,0.856,0.8568,0.8568,0.8568,0.8568,0.8568,0.8568,0.858,0.8702,0.9039,0.9242,0.9417,0.96,0.9474,0.9421,0.9604,0.9336,0.9246,0.9563,0.947,0.9441,0.9587,0.9616,0.9628,0.9628,0.9628,0.9628,0.9628,0.9628,0.9628,0.9628,0.9628,0.9628,0.9628,0.9628,0.9628,0.9628,0.9628,0.9628,-0.0728,-0.028,0.0056,-0.0168,0.0112,0.0505,0.0842,0.0729,0.0505,0.0393,0.0,0.0,0.0,0.0,0.0,0.0,-0.0505,-0.028,0.0505,0.0224,-0.0056,-0.0112,-0.0672,-0.0954,-0.0785,0.0224,0.0785,0.0561,0.0224,0.0,0.0,0.0,0.0,0.0,0.0,0.0168,0.0505,0.0629,0.0697,0.0766,0.0872,0.0944,0.092,0.0986,0.1001,0.1027,0.1061,0.1076,0.1076,0.1076,0.1478,0.2147,0.2547,0.3015,0.3485,0.4084,0.4556,0.4998,0.5627,0.58,0.5854,0.6159,0.6338,0.6298,0.6505,0.6464,0.6396,0.6634,0.685,0.7105,0.7388,0.7777,0.817,0.854,0.8568,0.8568,0.8568,0.8568,0.8568,0.8568,0.8568,0.8678,0.9035,0.9157,0.9267,0.9441,0.9405,0.9421,0.9604,0.9405,0.9344,0.96,0.9559,0.9543,0.962,0.9628,0.9628,0.9628,0.9628,0.9628,0.9628,0.9628,0.9628,0.9628,0.9628,0.9628,0.9628,0.9628,0.9628,0.9628,0.9628,0.9628,-0.0056,0.0336,0.0898,0.0898,0.0729,0.0617,0.0842,0.0898,0.0842,0.0561,0.0729,0.0,0.0,0.0,0.0842,0.0561,0.0,0.0561,0.0561,0.0729,0.0785,0.0561,0.0729,0.0617,0.0056,0.0561,0.0898,0.0898,0.0505,0.0168,0.0,0.0,0.0,0.0,0.0,0.028,0.0898,0.092,0.0939,0.1015,0.0939,0.0947,0.098,0.0986,0.0997,0.1014,0.1057,0.121,0.1344,0.1344,0.1879,0.2748,0.3282,0.3951,0.4622,0.4622,0.4957,0.547,0.5698,0.5857,0.5962,0.619,0.6338,0.6295,0.6478,0.6434,0.638,0.6678,0.685,0.7144,0.7539,0.7897,0.8233,0.8536,0.8568,0.8568,0.8568,0.8568,0.8568,0.8568,0.8568,0.8666,0.897,0.9064,0.9173,0.9397,0.9384,0.9421,0.9604,0.947,0.9425,0.9608,0.9628,0.9628,0.9628,0.9628,0.9628,0.9628,0.9628,0.9628,0.9628,0.9628,0.9628,0.9628,0.9628,0.9723,1.0015,1.0015,1.0212,1.0404,1.0212,0.9916,0.0842,0.0898,0.0898,0.0898,0.0898,0.0898,0.0898,0.0898,0.0898,0.0898,0.0898,0.0898,0.0898,0.0898,0.0,0.0,0.0,0.0,0.0,0.0898,0.0898,0.0898,0.0729,0.0449,0.0056,0.0561,0.0898,0.0898,0.0898,0.0617,0.0056,0.0,0.0,0.0,0.0,0.028,0.0898,0.0898,0.0928,0.0986,0.0927,0.096,0.1069,0.1014,0.1019,0.1073,0.1075,0.1478,0.2079,0.2079,0.2948,0.422,0.4287,0.4688,0.5362,0.5362,0.5362,0.547,0.5698,0.5996,0.6247,0.6335,0.6338,0.6315,0.6607,0.6586,0.6529,0.6834,0.7254,0.7588,0.7599,0.8072,0.856,0.8564,0.8568,0.8568,0.8568,0.8568,0.8568,0.8568,0.8568,0.8621,0.88,0.8978,0.9218,0.9567,0.947,0.9421,0.9604,0.947,0.9425,0.9608,0.9628,0.9628,0.9628,0.9628,0.9628,0.9628,0.9628,0.9628,0.9628,0.9628,0.9628,0.9628,0.9628,1.0109,1.1175,1.1175,1.1658,1.2538,1.156,1.0592,0.0898,0.0898,0.0898,0.0898,0.0898,0.0898,0.0898,0.0898,0.0898,0.0898,0.0898,0.0898,0.0898,0.0898,0.0,0.0,0.0,0.0,0.0,0.0898,0.0898,0.0898,0.0842,0.0729,0.0617,0.0785,0.0729,0.0336,0.0673,0.0617,0.0056,0.0,0.0,0.0,0.0,0.0168,0.0561,0.0785,0.0918,0.0958,0.0937,0.0959,0.1018,0.1018,0.1029,0.1048,0.1533,0.1879,0.2147,0.2614,0.3416,0.4287,0.4287,0.4755,0.5428,0.5428,0.5428,0.547,0.5698,0.6003,0.6338,0.6338,0.6325,0.642,0.6519,0.6583,0.6747,0.7038,0.735,0.7625,0.791,0.8341,0.8568,0.8568,0.8568,0.8568,0.8568,0.8568,0.8568,0.8568,0.8568,0.8662,0.8954,0.9056,0.9177,0.9409,0.9498,0.9559,0.962,0.9571,0.9559,0.962,0.9628,0.9628,0.9628,0.9628,0.9628,0.9628,0.9628,0.9628,0.9628,0.9628,0.9628,0.9628,1.0306,1.0881,1.117,1.1853,1.2339,1.2732,1.3119,1.264,0.0898,0.0898,0.0898,0.0898,0.1065,0.1177,0.0953,0.1065,0.1232,0.1232,0.1065,0.1009,0.1456,0.1177,0.0953,0.0,0.0,0.0,0.0,0.0898,0.0898,0.0898,0.0898,0.0898,0.0898,0.0898,0.0673,0.0056,0.0449,0.0617,0.0336,0.0112,0.0,0.0,0.0224,0.0336,0.0393,0.0729,0.0913,0.0884,0.0884,0.0965,0.1005,0.1024,0.1039,0.105,0.1798,0.2281,0.2547,0.3282,0.4018,0.4688,0.4688,0.4957,0.5428,0.5428,0.543,0.5552,0.5796,0.6047,0.6338,0.6338,0.6356,0.6481,0.6536,0.6661,0.6898,0.7221,0.7519,0.7801,0.8082,0.8384,0.8568,0.8568,0.8568,0.8568,0.8568,0.8568,0.8568,0.8568,0.8568,0.8658,0.895,0.8999,0.91,0.9405,0.9551,0.9628,0.9628,0.9628,0.9628,0.9628,0.9628,0.9628,0.9628,0.9628,0.9628,0.9628,0.9628,0.9628,0.9628,0.9628,0.9855,1.0315,1.0923,1.16,1.2464,1.2969,1.3409,1.3794,1.4478,1.4478]}]]